<?xml version="1.0" encoding="UTF-8" standalone="no" ?>
<gpx xmlns="http://www.topografix.com/GPX/1/1" xmlns:xsi="http://www.w3.org/2001/XMLSchema-instance" xsi:schemaLocation="http://www.topografix.com/GPX/1/1 http://www.topografix.com/GPX/1/1/gpx.xsd" version="1.1" creator="VisuGPX - https://www.visugpx.com">
  <metadata>
    <name>La Baume Cornillane la Raye</name>
    <desc><![CDATA[File with points/tracks from Locus Map/3.27.1]]></desc>
  </metadata>
  <trk>
    <name><![CDATA[F26120 la Baume Cornillane la Raye MJC]]></name>
    <trkseg>
      <trkpt lat="44.82356" lon="5.03905">
        <ele>319.24</ele>
        <time>2017-11-28T08:10:50.000Z</time>
      </trkpt>
      <trkpt lat="44.82357" lon="5.03904">
        <ele>319.11</ele>
        <time>2017-11-28T08:11:00.000Z</time>
      </trkpt>
      <trkpt lat="44.82359" lon="5.03904">
        <ele>318.93</ele>
        <time>2017-11-28T08:11:26.000Z</time>
      </trkpt>
      <trkpt lat="44.82362" lon="5.03904">
        <ele>318.57</ele>
        <time>2017-11-28T08:11:36.000Z</time>
      </trkpt>
      <trkpt lat="44.82362" lon="5.03906">
        <ele>318.6</ele>
        <time>2017-11-28T08:11:58.000Z</time>
      </trkpt>
      <trkpt lat="44.82363" lon="5.03908">
        <ele>318.56</ele>
        <time>2017-11-28T08:12:08.000Z</time>
      </trkpt>
      <trkpt lat="44.82369" lon="5.03908">
        <ele>317.8</ele>
        <time>2017-11-28T08:12:18.000Z</time>
      </trkpt>
      <trkpt lat="44.8237" lon="5.03906">
        <ele>317.6</ele>
        <time>2017-11-28T08:12:28.000Z</time>
      </trkpt>
      <trkpt lat="44.8237" lon="5.03904">
        <ele>317.5</ele>
        <time>2017-11-28T08:12:38.000Z</time>
      </trkpt>
      <trkpt lat="44.82369" lon="5.03906">
        <ele>317.68</ele>
        <time>2017-11-28T08:12:54.000Z</time>
      </trkpt>
      <trkpt lat="44.82371" lon="5.03908">
        <ele>317.58</ele>
        <time>2017-11-28T08:13:04.000Z</time>
      </trkpt>
      <trkpt lat="44.8237" lon="5.03909">
        <ele>317.72</ele>
        <time>2017-11-28T08:13:14.000Z</time>
      </trkpt>
      <trkpt lat="44.82372" lon="5.03912">
        <ele>317.62</ele>
        <time>2017-11-28T08:13:24.000Z</time>
      </trkpt>
      <trkpt lat="44.82375" lon="5.03919">
        <ele>317.48</ele>
        <time>2017-11-28T08:13:34.000Z</time>
      </trkpt>
      <trkpt lat="44.82376" lon="5.0392">
        <ele>317.48</ele>
        <time>2017-11-28T08:13:44.000Z</time>
      </trkpt>
      <trkpt lat="44.82375" lon="5.03922">
        <ele>317.69</ele>
        <time>2017-11-28T08:14:41.000Z</time>
      </trkpt>
      <trkpt lat="44.82373" lon="5.03934">
        <ele>318.56</ele>
        <time>2017-11-28T08:14:51.000Z</time>
      </trkpt>
      <trkpt lat="44.82372" lon="5.03943">
        <ele>319.24</ele>
        <time>2017-11-28T08:15:01.000Z</time>
      </trkpt>
      <trkpt lat="44.82366" lon="5.03959">
        <ele>321.17</ele>
        <time>2017-11-28T08:15:11.000Z</time>
      </trkpt>
      <trkpt lat="44.82357" lon="5.03968">
        <ele>323.13</ele>
        <time>2017-11-28T08:15:21.000Z</time>
      </trkpt>
      <trkpt lat="44.82349" lon="5.03978">
        <ele>324.78</ele>
        <time>2017-11-28T08:15:31.000Z</time>
      </trkpt>
      <trkpt lat="44.82352" lon="5.0408">
        <ele>335.94</ele>
        <time>2017-11-28T08:18:22.000Z</time>
      </trkpt>
      <trkpt lat="44.82355" lon="5.04089">
        <ele>337.29</ele>
        <time>2017-11-28T08:18:32.000Z</time>
      </trkpt>
      <trkpt lat="44.82353" lon="5.04097">
        <ele>338.8</ele>
        <time>2017-11-28T08:18:42.000Z</time>
      </trkpt>
      <trkpt lat="44.82357" lon="5.04106">
        <ele>340.48</ele>
        <time>2017-11-28T08:18:52.000Z</time>
      </trkpt>
      <trkpt lat="44.8236" lon="5.04114">
        <ele>342.02</ele>
        <time>2017-11-28T08:19:02.000Z</time>
      </trkpt>
      <trkpt lat="44.82359" lon="5.04123">
        <ele>344.08</ele>
        <time>2017-11-28T08:19:12.000Z</time>
      </trkpt>
      <trkpt lat="44.82364" lon="5.04132">
        <ele>345.96</ele>
        <time>2017-11-28T08:19:22.000Z</time>
      </trkpt>
      <trkpt lat="44.82367" lon="5.04144">
        <ele>348.67</ele>
        <time>2017-11-28T08:19:32.000Z</time>
      </trkpt>
      <trkpt lat="44.82366" lon="5.04144">
        <ele>348.73</ele>
        <time>2017-11-28T08:19:42.000Z</time>
      </trkpt>
      <trkpt lat="44.82367" lon="5.04152">
        <ele>350.41</ele>
        <time>2017-11-28T08:19:52.000Z</time>
      </trkpt>
      <trkpt lat="44.8237" lon="5.04161">
        <ele>352.32</ele>
        <time>2017-11-28T08:20:02.000Z</time>
      </trkpt>
      <trkpt lat="44.82367" lon="5.0417">
        <ele>354.81</ele>
        <time>2017-11-28T08:20:12.000Z</time>
      </trkpt>
      <trkpt lat="44.82367" lon="5.04172">
        <ele>355.19</ele>
        <time>2017-11-28T08:20:22.000Z</time>
      </trkpt>
      <trkpt lat="44.82365" lon="5.04172">
        <ele>355.21</ele>
        <time>2017-11-28T08:20:32.000Z</time>
      </trkpt>
      <trkpt lat="44.8236" lon="5.04178">
        <ele>357.27</ele>
        <time>2017-11-28T08:20:42.000Z</time>
      </trkpt>
      <trkpt lat="44.82359" lon="5.04184">
        <ele>358.77</ele>
        <time>2017-11-28T08:20:52.000Z</time>
      </trkpt>
      <trkpt lat="44.82363" lon="5.04183">
        <ele>358.35</ele>
        <time>2017-11-28T08:21:02.000Z</time>
      </trkpt>
      <trkpt lat="44.82362" lon="5.04184">
        <ele>358.73</ele>
        <time>2017-11-28T08:21:12.000Z</time>
      </trkpt>
      <trkpt lat="44.82361" lon="5.04186">
        <ele>359.06</ele>
        <time>2017-11-28T08:21:22.000Z</time>
      </trkpt>
      <trkpt lat="44.82363" lon="5.04189">
        <ele>359.75</ele>
        <time>2017-11-28T08:22:06.000Z</time>
      </trkpt>
      <trkpt lat="44.82369" lon="5.04211">
        <ele>365.12</ele>
        <time>2017-11-28T08:22:16.000Z</time>
      </trkpt>
      <trkpt lat="44.82374" lon="5.0421">
        <ele>364.25</ele>
        <time>2017-11-28T08:22:26.000Z</time>
      </trkpt>
      <trkpt lat="44.8237" lon="5.04216">
        <ele>366.19</ele>
        <time>2017-11-28T08:22:36.000Z</time>
      </trkpt>
      <trkpt lat="44.82374" lon="5.04225">
        <ele>367.98</ele>
        <time>2017-11-28T08:22:46.000Z</time>
      </trkpt>
      <trkpt lat="44.82378" lon="5.04236">
        <ele>369.99</ele>
        <time>2017-11-28T08:22:56.000Z</time>
      </trkpt>
      <trkpt lat="44.82375" lon="5.04245">
        <ele>372.46</ele>
        <time>2017-11-28T08:23:06.000Z</time>
      </trkpt>
      <trkpt lat="44.82378" lon="5.0425">
        <ele>373.11</ele>
        <time>2017-11-28T08:23:16.000Z</time>
      </trkpt>
      <trkpt lat="44.82379" lon="5.04259">
        <ele>374.73</ele>
        <time>2017-11-28T08:23:26.000Z</time>
      </trkpt>
      <trkpt lat="44.82379" lon="5.04266">
        <ele>376.35</ele>
        <time>2017-11-28T08:23:36.000Z</time>
      </trkpt>
      <trkpt lat="44.82384" lon="5.04272">
        <ele>376.86</ele>
        <time>2017-11-28T08:23:46.000Z</time>
      </trkpt>
      <trkpt lat="44.82386" lon="5.04281">
        <ele>378.44</ele>
        <time>2017-11-28T08:23:56.000Z</time>
      </trkpt>
      <trkpt lat="44.82388" lon="5.04293">
        <ele>380.48</ele>
        <time>2017-11-28T08:24:06.000Z</time>
      </trkpt>
      <trkpt lat="44.82386" lon="5.04299">
        <ele>381.78</ele>
        <time>2017-11-28T08:24:16.000Z</time>
      </trkpt>
      <trkpt lat="44.82388" lon="5.04305">
        <ele>382.46</ele>
        <time>2017-11-28T08:24:26.000Z</time>
      </trkpt>
      <trkpt lat="44.82392" lon="5.0432">
        <ele>384.17</ele>
        <time>2017-11-28T08:24:36.000Z</time>
      </trkpt>
      <trkpt lat="44.82383" lon="5.04326">
        <ele>385.6</ele>
        <time>2017-11-28T08:24:46.000Z</time>
      </trkpt>
      <trkpt lat="44.82379" lon="5.04334">
        <ele>386.49</ele>
        <time>2017-11-28T08:24:56.000Z</time>
      </trkpt>
      <trkpt lat="44.8238" lon="5.04342">
        <ele>386.71</ele>
        <time>2017-11-28T08:25:06.000Z</time>
      </trkpt>
      <trkpt lat="44.82377" lon="5.04347">
        <ele>386.88</ele>
        <time>2017-11-28T08:25:16.000Z</time>
      </trkpt>
      <trkpt lat="44.82374" lon="5.04349">
        <ele>387.01</ele>
        <time>2017-11-28T08:25:26.000Z</time>
      </trkpt>
      <trkpt lat="44.82366" lon="5.04353">
        <ele>387.26</ele>
        <time>2017-11-28T08:25:36.000Z</time>
      </trkpt>
      <trkpt lat="44.82358" lon="5.04356">
        <ele>387.33</ele>
        <time>2017-11-28T08:25:46.000Z</time>
      </trkpt>
      <trkpt lat="44.82351" lon="5.04358">
        <ele>387.28</ele>
        <time>2017-11-28T08:25:56.000Z</time>
      </trkpt>
      <trkpt lat="44.8235" lon="5.04354">
        <ele>387.57</ele>
        <time>2017-11-28T08:26:06.000Z</time>
      </trkpt>
      <trkpt lat="44.82353" lon="5.0435">
        <ele>387.74</ele>
        <time>2017-11-28T08:26:16.000Z</time>
      </trkpt>
      <trkpt lat="44.82352" lon="5.04348">
        <ele>387.86</ele>
        <time>2017-11-28T08:26:28.000Z</time>
      </trkpt>
      <trkpt lat="44.82349" lon="5.04345">
        <ele>388.02</ele>
        <time>2017-11-28T08:26:38.000Z</time>
      </trkpt>
      <trkpt lat="44.82348" lon="5.04347">
        <ele>387.97</ele>
        <time>2017-11-28T08:26:48.000Z</time>
      </trkpt>
      <trkpt lat="44.82342" lon="5.04347">
        <ele>387.96</ele>
        <time>2017-11-28T08:26:58.000Z</time>
      </trkpt>
      <trkpt lat="44.8234" lon="5.04349">
        <ele>387.82</ele>
        <time>2017-11-28T08:27:27.000Z</time>
      </trkpt>
      <trkpt lat="44.82337" lon="5.04352">
        <ele>387.55</ele>
        <time>2017-11-28T08:27:37.000Z</time>
      </trkpt>
      <trkpt lat="44.82335" lon="5.04354">
        <ele>387.38</ele>
        <time>2017-11-28T08:27:47.000Z</time>
      </trkpt>
      <trkpt lat="44.82335" lon="5.04345">
        <ele>387.89</ele>
        <time>2017-11-28T08:27:57.000Z</time>
      </trkpt>
      <trkpt lat="44.82338" lon="5.04336">
        <ele>388.14</ele>
        <time>2017-11-28T08:28:07.000Z</time>
      </trkpt>
      <trkpt lat="44.82334" lon="5.04327">
        <ele>387.88</ele>
        <time>2017-11-28T08:28:17.000Z</time>
      </trkpt>
      <trkpt lat="44.82324" lon="5.0432">
        <ele>387.05</ele>
        <time>2017-11-28T08:28:27.000Z</time>
      </trkpt>
      <trkpt lat="44.82321" lon="5.0431">
        <ele>386.09</ele>
        <time>2017-11-28T08:28:37.000Z</time>
      </trkpt>
      <trkpt lat="44.82319" lon="5.04307">
        <ele>385.65</ele>
        <time>2017-11-28T08:28:47.000Z</time>
      </trkpt>
      <trkpt lat="44.82317" lon="5.04303">
        <ele>385.04</ele>
        <time>2017-11-28T08:28:57.000Z</time>
      </trkpt>
      <trkpt lat="44.82316" lon="5.04303">
        <ele>384.98</ele>
        <time>2017-11-28T08:29:07.000Z</time>
      </trkpt>
      <trkpt lat="44.82315" lon="5.04305">
        <ele>385.14</ele>
        <time>2017-11-28T08:29:28.000Z</time>
      </trkpt>
      <trkpt lat="44.82317" lon="5.04308">
        <ele>385.62</ele>
        <time>2017-11-28T08:29:38.000Z</time>
      </trkpt>
      <trkpt lat="44.82316" lon="5.04306">
        <ele>385.26</ele>
        <time>2017-11-28T08:29:48.000Z</time>
      </trkpt>
      <trkpt lat="44.82316" lon="5.04305">
        <ele>385.2</ele>
        <time>2017-11-28T08:30:01.000Z</time>
      </trkpt>
      <trkpt lat="44.82316" lon="5.04304">
        <ele>385.03</ele>
        <time>2017-11-28T08:30:15.000Z</time>
      </trkpt>
      <trkpt lat="44.82315" lon="5.04303">
        <ele>384.81</ele>
        <time>2017-11-28T08:30:25.000Z</time>
      </trkpt>
      <trkpt lat="44.82316" lon="5.04304">
        <ele>385</ele>
        <time>2017-11-28T08:30:36.000Z</time>
      </trkpt>
      <trkpt lat="44.82315" lon="5.04302">
        <ele>384.74</ele>
        <time>2017-11-28T08:30:46.000Z</time>
      </trkpt>
      <trkpt lat="44.82316" lon="5.04302">
        <ele>384.87</ele>
        <time>2017-11-28T08:31:27.000Z</time>
      </trkpt>
      <trkpt lat="44.82318" lon="5.04301">
        <ele>384.89</ele>
        <time>2017-11-28T08:31:37.000Z</time>
      </trkpt>
      <trkpt lat="44.82319" lon="5.04303">
        <ele>385.12</ele>
        <time>2017-11-28T08:31:47.000Z</time>
      </trkpt>
      <trkpt lat="44.82319" lon="5.04304">
        <ele>385.28</ele>
        <time>2017-11-28T08:31:59.000Z</time>
      </trkpt>
      <trkpt lat="44.82323" lon="5.04307">
        <ele>385.86</ele>
        <time>2017-11-28T08:32:09.000Z</time>
      </trkpt>
      <trkpt lat="44.82324" lon="5.04311">
        <ele>386.34</ele>
        <time>2017-11-28T08:32:19.000Z</time>
      </trkpt>
      <trkpt lat="44.82323" lon="5.04313">
        <ele>386.42</ele>
        <time>2017-11-28T08:32:29.000Z</time>
      </trkpt>
      <trkpt lat="44.82321" lon="5.04315">
        <ele>386.55</ele>
        <time>2017-11-28T08:32:39.000Z</time>
      </trkpt>
      <trkpt lat="44.82324" lon="5.04318">
        <ele>386.92</ele>
        <time>2017-11-28T08:33:06.000Z</time>
      </trkpt>
      <trkpt lat="44.82332" lon="5.04332">
        <ele>387.92</ele>
        <time>2017-11-28T08:33:16.000Z</time>
      </trkpt>
      <trkpt lat="44.82332" lon="5.04346">
        <ele>387.73</ele>
        <time>2017-11-28T08:33:26.000Z</time>
      </trkpt>
      <trkpt lat="44.82333" lon="5.04356">
        <ele>387.12</ele>
        <time>2017-11-28T08:33:36.000Z</time>
      </trkpt>
      <trkpt lat="44.82332" lon="5.04362">
        <ele>386.61</ele>
        <time>2017-11-28T08:33:46.000Z</time>
      </trkpt>
      <trkpt lat="44.82332" lon="5.04363">
        <ele>386.45</ele>
        <time>2017-11-28T08:33:58.000Z</time>
      </trkpt>
      <trkpt lat="44.82334" lon="5.04377">
        <ele>384.95</ele>
        <time>2017-11-28T08:34:08.000Z</time>
      </trkpt>
      <trkpt lat="44.82336" lon="5.04377">
        <ele>384.96</ele>
        <time>2017-11-28T08:34:18.000Z</time>
      </trkpt>
      <trkpt lat="44.82337" lon="5.04378">
        <ele>384.83</ele>
        <time>2017-11-28T08:34:34.000Z</time>
      </trkpt>
      <trkpt lat="44.82342" lon="5.04382">
        <ele>384.49</ele>
        <time>2017-11-28T08:34:44.000Z</time>
      </trkpt>
      <trkpt lat="44.82342" lon="5.04379">
        <ele>384.92</ele>
        <time>2017-11-28T08:34:56.000Z</time>
      </trkpt>
      <trkpt lat="44.82346" lon="5.04382">
        <ele>384.7</ele>
        <time>2017-11-28T08:35:06.000Z</time>
      </trkpt>
      <trkpt lat="44.82347" lon="5.04388">
        <ele>383.82</ele>
        <time>2017-11-28T08:35:16.000Z</time>
      </trkpt>
      <trkpt lat="44.82348" lon="5.04386">
        <ele>384.21</ele>
        <time>2017-11-28T08:35:33.000Z</time>
      </trkpt>
      <trkpt lat="44.82356" lon="5.04382">
        <ele>384.91</ele>
        <time>2017-11-28T08:35:43.000Z</time>
      </trkpt>
      <trkpt lat="44.82364" lon="5.04382">
        <ele>385</ele>
        <time>2017-11-28T08:35:53.000Z</time>
      </trkpt>
      <trkpt lat="44.82371" lon="5.04376">
        <ele>385.53</ele>
        <time>2017-11-28T08:36:03.000Z</time>
      </trkpt>
      <trkpt lat="44.82379" lon="5.04379">
        <ele>385.23</ele>
        <time>2017-11-28T08:36:13.000Z</time>
      </trkpt>
      <trkpt lat="44.82386" lon="5.04388">
        <ele>384.47</ele>
        <time>2017-11-28T08:36:23.000Z</time>
      </trkpt>
      <trkpt lat="44.82394" lon="5.04372">
        <ele>385.54</ele>
        <time>2017-11-28T08:36:33.000Z</time>
      </trkpt>
      <trkpt lat="44.82407" lon="5.0437">
        <ele>385.44</ele>
        <time>2017-11-28T08:36:43.000Z</time>
      </trkpt>
      <trkpt lat="44.82417" lon="5.04374">
        <ele>385.38</ele>
        <time>2017-11-28T08:36:53.000Z</time>
      </trkpt>
      <trkpt lat="44.82422" lon="5.04369">
        <ele>385.47</ele>
        <time>2017-11-28T08:37:03.000Z</time>
      </trkpt>
      <trkpt lat="44.82434" lon="5.04367">
        <ele>385.49</ele>
        <time>2017-11-28T08:37:13.000Z</time>
      </trkpt>
      <trkpt lat="44.82444" lon="5.04363">
        <ele>385.35</ele>
        <time>2017-11-28T08:37:23.000Z</time>
      </trkpt>
      <trkpt lat="44.82453" lon="5.04354">
        <ele>384.75</ele>
        <time>2017-11-28T08:37:33.000Z</time>
      </trkpt>
      <trkpt lat="44.82461" lon="5.04364">
        <ele>385.48</ele>
        <time>2017-11-28T08:37:43.000Z</time>
      </trkpt>
      <trkpt lat="44.82465" lon="5.04377">
        <ele>386.24</ele>
        <time>2017-11-28T08:37:53.000Z</time>
      </trkpt>
      <trkpt lat="44.82475" lon="5.04382">
        <ele>386.74</ele>
        <time>2017-11-28T08:38:03.000Z</time>
      </trkpt>
      <trkpt lat="44.82486" lon="5.04379">
        <ele>386.99</ele>
        <time>2017-11-28T08:38:13.000Z</time>
      </trkpt>
      <trkpt lat="44.82496" lon="5.04381">
        <ele>387.55</ele>
        <time>2017-11-28T08:38:23.000Z</time>
      </trkpt>
      <trkpt lat="44.82504" lon="5.04389">
        <ele>388.45</ele>
        <time>2017-11-28T08:38:33.000Z</time>
      </trkpt>
      <trkpt lat="44.82511" lon="5.04395">
        <ele>389.23</ele>
        <time>2017-11-28T08:38:43.000Z</time>
      </trkpt>
      <trkpt lat="44.82519" lon="5.04402">
        <ele>390.13</ele>
        <time>2017-11-28T08:38:53.000Z</time>
      </trkpt>
      <trkpt lat="44.82528" lon="5.04408">
        <ele>391.11</ele>
        <time>2017-11-28T08:39:03.000Z</time>
      </trkpt>
      <trkpt lat="44.82537" lon="5.04423">
        <ele>392.25</ele>
        <time>2017-11-28T08:39:13.000Z</time>
      </trkpt>
      <trkpt lat="44.82539" lon="5.04439">
        <ele>392</ele>
        <time>2017-11-28T08:39:23.000Z</time>
      </trkpt>
      <trkpt lat="44.82547" lon="5.04451">
        <ele>392.21</ele>
        <time>2017-11-28T08:39:33.000Z</time>
      </trkpt>
      <trkpt lat="44.82543" lon="5.04469">
        <ele>390.41</ele>
        <time>2017-11-28T08:39:43.000Z</time>
      </trkpt>
      <trkpt lat="44.82547" lon="5.04483">
        <ele>389.91</ele>
        <time>2017-11-28T08:39:53.000Z</time>
      </trkpt>
      <trkpt lat="44.82545" lon="5.04498">
        <ele>388.95</ele>
        <time>2017-11-28T08:40:03.000Z</time>
      </trkpt>
      <trkpt lat="44.82547" lon="5.04514">
        <ele>388.84</ele>
        <time>2017-11-28T08:40:13.000Z</time>
      </trkpt>
      <trkpt lat="44.82548" lon="5.04527">
        <ele>388.94</ele>
        <time>2017-11-28T08:40:23.000Z</time>
      </trkpt>
      <trkpt lat="44.82547" lon="5.04543">
        <ele>388.92</ele>
        <time>2017-11-28T08:40:33.000Z</time>
      </trkpt>
      <trkpt lat="44.82545" lon="5.04556">
        <ele>388.54</ele>
        <time>2017-11-28T08:40:43.000Z</time>
      </trkpt>
      <trkpt lat="44.82546" lon="5.04568">
        <ele>388.72</ele>
        <time>2017-11-28T08:40:53.000Z</time>
      </trkpt>
      <trkpt lat="44.82554" lon="5.04576">
        <ele>389.92</ele>
        <time>2017-11-28T08:41:03.000Z</time>
      </trkpt>
      <trkpt lat="44.82561" lon="5.04583">
        <ele>390.87</ele>
        <time>2017-11-28T08:41:13.000Z</time>
      </trkpt>
      <trkpt lat="44.82564" lon="5.04579">
        <ele>391.43</ele>
        <time>2017-11-28T08:41:23.000Z</time>
      </trkpt>
      <trkpt lat="44.82576" lon="5.04578">
        <ele>393.13</ele>
        <time>2017-11-28T08:41:33.000Z</time>
      </trkpt>
      <trkpt lat="44.82585" lon="5.04591">
        <ele>393.95</ele>
        <time>2017-11-28T08:41:43.000Z</time>
      </trkpt>
      <trkpt lat="44.82592" lon="5.04601">
        <ele>394.47</ele>
        <time>2017-11-28T08:41:53.000Z</time>
      </trkpt>
      <trkpt lat="44.826" lon="5.0461">
        <ele>394.88</ele>
        <time>2017-11-28T08:42:03.000Z</time>
      </trkpt>
      <trkpt lat="44.82607" lon="5.04618">
        <ele>395.12</ele>
        <time>2017-11-28T08:42:13.000Z</time>
      </trkpt>
      <trkpt lat="44.82616" lon="5.04627">
        <ele>395.4</ele>
        <time>2017-11-28T08:42:23.000Z</time>
      </trkpt>
      <trkpt lat="44.82625" lon="5.04636">
        <ele>395.4</ele>
        <time>2017-11-28T08:42:33.000Z</time>
      </trkpt>
      <trkpt lat="44.82632" lon="5.0465">
        <ele>394.92</ele>
        <time>2017-11-28T08:42:43.000Z</time>
      </trkpt>
      <trkpt lat="44.82634" lon="5.04663">
        <ele>394.3</ele>
        <time>2017-11-28T08:42:53.000Z</time>
      </trkpt>
      <trkpt lat="44.82638" lon="5.04681">
        <ele>393.43</ele>
        <time>2017-11-28T08:43:03.000Z</time>
      </trkpt>
      <trkpt lat="44.82636" lon="5.04695">
        <ele>392.52</ele>
        <time>2017-11-28T08:43:13.000Z</time>
      </trkpt>
      <trkpt lat="44.82638" lon="5.04711">
        <ele>391.78</ele>
        <time>2017-11-28T08:43:23.000Z</time>
      </trkpt>
      <trkpt lat="44.82635" lon="5.04722">
        <ele>390.95</ele>
        <time>2017-11-28T08:43:33.000Z</time>
      </trkpt>
      <trkpt lat="44.82633" lon="5.04734">
        <ele>390.23</ele>
        <time>2017-11-28T08:43:43.000Z</time>
      </trkpt>
      <trkpt lat="44.82633" lon="5.0475">
        <ele>389.89</ele>
        <time>2017-11-28T08:43:53.000Z</time>
      </trkpt>
      <trkpt lat="44.82635" lon="5.04764">
        <ele>389.91</ele>
        <time>2017-11-28T08:44:03.000Z</time>
      </trkpt>
      <trkpt lat="44.82633" lon="5.04778">
        <ele>389.83</ele>
        <time>2017-11-28T08:44:13.000Z</time>
      </trkpt>
      <trkpt lat="44.8263" lon="5.0479">
        <ele>389.74</ele>
        <time>2017-11-28T08:44:23.000Z</time>
      </trkpt>
      <trkpt lat="44.82628" lon="5.04802">
        <ele>389.92</ele>
        <time>2017-11-28T08:44:33.000Z</time>
      </trkpt>
      <trkpt lat="44.82623" lon="5.04816">
        <ele>390.1</ele>
        <time>2017-11-28T08:44:43.000Z</time>
      </trkpt>
      <trkpt lat="44.82618" lon="5.04828">
        <ele>390.4</ele>
        <time>2017-11-28T08:44:53.000Z</time>
      </trkpt>
      <trkpt lat="44.82609" lon="5.04838">
        <ele>390.4</ele>
        <time>2017-11-28T08:45:03.000Z</time>
      </trkpt>
      <trkpt lat="44.82607" lon="5.04851">
        <ele>391.28</ele>
        <time>2017-11-28T08:45:13.000Z</time>
      </trkpt>
      <trkpt lat="44.82604" lon="5.04863">
        <ele>392.11</ele>
        <time>2017-11-28T08:45:23.000Z</time>
      </trkpt>
      <trkpt lat="44.82603" lon="5.04873">
        <ele>393.01</ele>
        <time>2017-11-28T08:45:33.000Z</time>
      </trkpt>
      <trkpt lat="44.826" lon="5.04886">
        <ele>394.16</ele>
        <time>2017-11-28T08:45:43.000Z</time>
      </trkpt>
      <trkpt lat="44.82602" lon="5.04898">
        <ele>395.75</ele>
        <time>2017-11-28T08:45:53.000Z</time>
      </trkpt>
      <trkpt lat="44.82595" lon="5.04908">
        <ele>396.6</ele>
        <time>2017-11-28T08:46:03.000Z</time>
      </trkpt>
      <trkpt lat="44.8259" lon="5.04917">
        <ele>397.45</ele>
        <time>2017-11-28T08:46:13.000Z</time>
      </trkpt>
      <trkpt lat="44.82588" lon="5.04928">
        <ele>399.09</ele>
        <time>2017-11-28T08:46:23.000Z</time>
      </trkpt>
      <trkpt lat="44.82584" lon="5.04939">
        <ele>400.7</ele>
        <time>2017-11-28T08:46:33.000Z</time>
      </trkpt>
      <trkpt lat="44.82582" lon="5.04948">
        <ele>402.18</ele>
        <time>2017-11-28T08:46:43.000Z</time>
      </trkpt>
      <trkpt lat="44.82583" lon="5.04956">
        <ele>403.96</ele>
        <time>2017-11-28T08:46:53.000Z</time>
      </trkpt>
      <trkpt lat="44.8258" lon="5.04965">
        <ele>405.17</ele>
        <time>2017-11-28T08:47:03.000Z</time>
      </trkpt>
      <trkpt lat="44.82581" lon="5.04966">
        <ele>405.54</ele>
        <time>2017-11-28T08:47:13.000Z</time>
      </trkpt>
      <trkpt lat="44.8258" lon="5.04969">
        <ele>405.92</ele>
        <time>2017-11-28T08:47:25.000Z</time>
      </trkpt>
      <trkpt lat="44.82567" lon="5.0498">
        <ele>406.37</ele>
        <time>2017-11-28T08:47:35.000Z</time>
      </trkpt>
      <trkpt lat="44.8256" lon="5.04991">
        <ele>407.05</ele>
        <time>2017-11-28T08:47:45.000Z</time>
      </trkpt>
      <trkpt lat="44.82558" lon="5.05">
        <ele>407.72</ele>
        <time>2017-11-28T08:47:55.000Z</time>
      </trkpt>
      <trkpt lat="44.82555" lon="5.05007">
        <ele>407.73</ele>
        <time>2017-11-28T08:48:05.000Z</time>
      </trkpt>
      <trkpt lat="44.82551" lon="5.05018">
        <ele>407.75</ele>
        <time>2017-11-28T08:48:15.000Z</time>
      </trkpt>
      <trkpt lat="44.82547" lon="5.05025">
        <ele>407.26</ele>
        <time>2017-11-28T08:48:25.000Z</time>
      </trkpt>
      <trkpt lat="44.8255" lon="5.05035">
        <ele>407.97</ele>
        <time>2017-11-28T08:48:35.000Z</time>
      </trkpt>
      <trkpt lat="44.82553" lon="5.05042">
        <ele>408.75</ele>
        <time>2017-11-28T08:48:45.000Z</time>
      </trkpt>
      <trkpt lat="44.82564" lon="5.05048">
        <ele>411.04</ele>
        <time>2017-11-28T08:48:55.000Z</time>
      </trkpt>
      <trkpt lat="44.82566" lon="5.05062">
        <ele>411.6</ele>
        <time>2017-11-28T08:49:05.000Z</time>
      </trkpt>
      <trkpt lat="44.8258" lon="5.05066">
        <ele>414.39</ele>
        <time>2017-11-28T08:49:15.000Z</time>
      </trkpt>
      <trkpt lat="44.82584" lon="5.05076">
        <ele>415.03</ele>
        <time>2017-11-28T08:49:25.000Z</time>
      </trkpt>
      <trkpt lat="44.8259" lon="5.05083">
        <ele>416.19</ele>
        <time>2017-11-28T08:49:35.000Z</time>
      </trkpt>
      <trkpt lat="44.82598" lon="5.05088">
        <ele>417.38</ele>
        <time>2017-11-28T08:49:45.000Z</time>
      </trkpt>
      <trkpt lat="44.82598" lon="5.05106">
        <ele>416.3</ele>
        <time>2017-11-28T08:49:55.000Z</time>
      </trkpt>
      <trkpt lat="44.82606" lon="5.05106">
        <ele>417.45</ele>
        <time>2017-11-28T08:50:05.000Z</time>
      </trkpt>
      <trkpt lat="44.82614" lon="5.05118">
        <ele>417.28</ele>
        <time>2017-11-28T08:50:15.000Z</time>
      </trkpt>
      <trkpt lat="44.82616" lon="5.05128">
        <ele>416.46</ele>
        <time>2017-11-28T08:50:25.000Z</time>
      </trkpt>
      <trkpt lat="44.82621" lon="5.05142">
        <ele>415.44</ele>
        <time>2017-11-28T08:50:35.000Z</time>
      </trkpt>
      <trkpt lat="44.82628" lon="5.05156">
        <ele>415.28</ele>
        <time>2017-11-28T08:50:45.000Z</time>
      </trkpt>
      <trkpt lat="44.82634" lon="5.0517">
        <ele>415.57</ele>
        <time>2017-11-28T08:50:55.000Z</time>
      </trkpt>
      <trkpt lat="44.82639" lon="5.05181">
        <ele>416.25</ele>
        <time>2017-11-28T08:51:05.000Z</time>
      </trkpt>
      <trkpt lat="44.82643" lon="5.05196">
        <ele>417.22</ele>
        <time>2017-11-28T08:51:15.000Z</time>
      </trkpt>
      <trkpt lat="44.82644" lon="5.0521">
        <ele>418.03</ele>
        <time>2017-11-28T08:51:25.000Z</time>
      </trkpt>
      <trkpt lat="44.82642" lon="5.05223">
        <ele>418.78</ele>
        <time>2017-11-28T08:51:35.000Z</time>
      </trkpt>
      <trkpt lat="44.82645" lon="5.05236">
        <ele>419.96</ele>
        <time>2017-11-28T08:51:45.000Z</time>
      </trkpt>
      <trkpt lat="44.82653" lon="5.05249">
        <ele>421.28</ele>
        <time>2017-11-28T08:51:55.000Z</time>
      </trkpt>
      <trkpt lat="44.82654" lon="5.05259">
        <ele>421.94</ele>
        <time>2017-11-28T08:52:05.000Z</time>
      </trkpt>
      <trkpt lat="44.82648" lon="5.05274">
        <ele>422.86</ele>
        <time>2017-11-28T08:52:15.000Z</time>
      </trkpt>
      <trkpt lat="44.82646" lon="5.05291">
        <ele>424.29</ele>
        <time>2017-11-28T08:52:25.000Z</time>
      </trkpt>
      <trkpt lat="44.82644" lon="5.05308">
        <ele>425.76</ele>
        <time>2017-11-28T08:52:35.000Z</time>
      </trkpt>
      <trkpt lat="44.82639" lon="5.05314">
        <ele>426.11</ele>
        <time>2017-11-28T08:52:45.000Z</time>
      </trkpt>
      <trkpt lat="44.82635" lon="5.05325">
        <ele>427.04</ele>
        <time>2017-11-28T08:52:55.000Z</time>
      </trkpt>
      <trkpt lat="44.82629" lon="5.0533">
        <ele>427.36</ele>
        <time>2017-11-28T08:53:05.000Z</time>
      </trkpt>
      <trkpt lat="44.8262" lon="5.05335">
        <ele>427.59</ele>
        <time>2017-11-28T08:53:15.000Z</time>
      </trkpt>
      <trkpt lat="44.82613" lon="5.05338">
        <ele>427.53</ele>
        <time>2017-11-28T08:53:25.000Z</time>
      </trkpt>
      <trkpt lat="44.82607" lon="5.05345">
        <ele>427.88</ele>
        <time>2017-11-28T08:53:35.000Z</time>
      </trkpt>
      <trkpt lat="44.82602" lon="5.0535">
        <ele>428.01</ele>
        <time>2017-11-28T08:53:45.000Z</time>
      </trkpt>
      <trkpt lat="44.82597" lon="5.05359">
        <ele>428.41</ele>
        <time>2017-11-28T08:53:55.000Z</time>
      </trkpt>
      <trkpt lat="44.82596" lon="5.05362">
        <ele>428.6</ele>
        <time>2017-11-28T08:54:05.000Z</time>
      </trkpt>
      <trkpt lat="44.82594" lon="5.05373">
        <ele>429.3</ele>
        <time>2017-11-28T08:54:15.000Z</time>
      </trkpt>
      <trkpt lat="44.82592" lon="5.05381">
        <ele>429.73</ele>
        <time>2017-11-28T08:54:25.000Z</time>
      </trkpt>
      <trkpt lat="44.82593" lon="5.0539">
        <ele>430.55</ele>
        <time>2017-11-28T08:54:35.000Z</time>
      </trkpt>
      <trkpt lat="44.82596" lon="5.05402">
        <ele>431.78</ele>
        <time>2017-11-28T08:54:45.000Z</time>
      </trkpt>
      <trkpt lat="44.82592" lon="5.05413">
        <ele>432.14</ele>
        <time>2017-11-28T08:54:55.000Z</time>
      </trkpt>
      <trkpt lat="44.8259" lon="5.05413">
        <ele>431.82</ele>
        <time>2017-11-28T08:55:05.000Z</time>
      </trkpt>
      <trkpt lat="44.8259" lon="5.05412">
        <ele>431.66</ele>
        <time>2017-11-28T08:55:15.000Z</time>
      </trkpt>
      <trkpt lat="44.8259" lon="5.05421">
        <ele>432.33</ele>
        <time>2017-11-28T08:55:25.000Z</time>
      </trkpt>
      <trkpt lat="44.82592" lon="5.05421">
        <ele>432.53</ele>
        <time>2017-11-28T08:55:35.000Z</time>
      </trkpt>
      <trkpt lat="44.82592" lon="5.05423">
        <ele>432.67</ele>
        <time>2017-11-28T08:57:25.000Z</time>
      </trkpt>
      <trkpt lat="44.82591" lon="5.05422">
        <ele>432.49</ele>
        <time>2017-11-28T08:57:40.000Z</time>
      </trkpt>
      <trkpt lat="44.82592" lon="5.05422">
        <ele>432.62</ele>
        <time>2017-11-28T08:58:35.000Z</time>
      </trkpt>
      <trkpt lat="44.82591" lon="5.05421">
        <ele>432.47</ele>
        <time>2017-11-28T08:58:46.000Z</time>
      </trkpt>
      <trkpt lat="44.82592" lon="5.05421">
        <ele>432.57</ele>
        <time>2017-11-28T09:00:05.000Z</time>
      </trkpt>
      <trkpt lat="44.8259" lon="5.05431">
        <ele>432.82</ele>
        <time>2017-11-28T09:00:15.000Z</time>
      </trkpt>
      <trkpt lat="44.82593" lon="5.0544">
        <ele>433.75</ele>
        <time>2017-11-28T09:00:25.000Z</time>
      </trkpt>
      <trkpt lat="44.82596" lon="5.05448">
        <ele>434.59</ele>
        <time>2017-11-28T09:00:35.000Z</time>
      </trkpt>
      <trkpt lat="44.82592" lon="5.05458">
        <ele>434.49</ele>
        <time>2017-11-28T09:00:45.000Z</time>
      </trkpt>
      <trkpt lat="44.82601" lon="5.0546">
        <ele>436.06</ele>
        <time>2017-11-28T09:00:55.000Z</time>
      </trkpt>
      <trkpt lat="44.82602" lon="5.05469">
        <ele>436.71</ele>
        <time>2017-11-28T09:01:05.000Z</time>
      </trkpt>
      <trkpt lat="44.82607" lon="5.05478">
        <ele>438.05</ele>
        <time>2017-11-28T09:01:15.000Z</time>
      </trkpt>
      <trkpt lat="44.82611" lon="5.05488">
        <ele>439.49</ele>
        <time>2017-11-28T09:01:25.000Z</time>
      </trkpt>
      <trkpt lat="44.82618" lon="5.05489">
        <ele>440.84</ele>
        <time>2017-11-28T09:01:35.000Z</time>
      </trkpt>
      <trkpt lat="44.82623" lon="5.05496">
        <ele>442.37</ele>
        <time>2017-11-28T09:01:45.000Z</time>
      </trkpt>
      <trkpt lat="44.82624" lon="5.05509">
        <ele>443.56</ele>
        <time>2017-11-28T09:01:55.000Z</time>
      </trkpt>
      <trkpt lat="44.82622" lon="5.05522">
        <ele>443.69</ele>
        <time>2017-11-28T09:02:05.000Z</time>
      </trkpt>
      <trkpt lat="44.82625" lon="5.05532">
        <ele>444.97</ele>
        <time>2017-11-28T09:02:15.000Z</time>
      </trkpt>
      <trkpt lat="44.8263" lon="5.05542">
        <ele>446.79</ele>
        <time>2017-11-28T09:02:25.000Z</time>
      </trkpt>
      <trkpt lat="44.82632" lon="5.0555">
        <ele>447.8</ele>
        <time>2017-11-28T09:02:35.000Z</time>
      </trkpt>
      <trkpt lat="44.82636" lon="5.05556">
        <ele>449.69</ele>
        <time>2017-11-28T09:02:45.000Z</time>
      </trkpt>
      <trkpt lat="44.8264" lon="5.05557">
        <ele>450.95</ele>
        <time>2017-11-28T09:02:55.000Z</time>
      </trkpt>
      <trkpt lat="44.82643" lon="5.05559">
        <ele>452.09</ele>
        <time>2017-11-28T09:03:05.000Z</time>
      </trkpt>
      <trkpt lat="44.82647" lon="5.05557">
        <ele>453.28</ele>
        <time>2017-11-28T09:03:15.000Z</time>
      </trkpt>
      <trkpt lat="44.82651" lon="5.0556">
        <ele>454.55</ele>
        <time>2017-11-28T09:03:25.000Z</time>
      </trkpt>
      <trkpt lat="44.82657" lon="5.05566">
        <ele>457.02</ele>
        <time>2017-11-28T09:03:35.000Z</time>
      </trkpt>
      <trkpt lat="44.82662" lon="5.0557">
        <ele>458.98</ele>
        <time>2017-11-28T09:03:45.000Z</time>
      </trkpt>
      <trkpt lat="44.82664" lon="5.05575">
        <ele>460.07</ele>
        <time>2017-11-28T09:03:55.000Z</time>
      </trkpt>
      <trkpt lat="44.82666" lon="5.05574">
        <ele>460.54</ele>
        <time>2017-11-28T09:04:05.000Z</time>
      </trkpt>
      <trkpt lat="44.82668" lon="5.05584">
        <ele>462.63</ele>
        <time>2017-11-28T09:04:15.000Z</time>
      </trkpt>
      <trkpt lat="44.82675" lon="5.05589">
        <ele>465.28</ele>
        <time>2017-11-28T09:04:25.000Z</time>
      </trkpt>
      <trkpt lat="44.82676" lon="5.05595">
        <ele>466.36</ele>
        <time>2017-11-28T09:04:35.000Z</time>
      </trkpt>
      <trkpt lat="44.8268" lon="5.05599">
        <ele>467.95</ele>
        <time>2017-11-28T09:04:45.000Z</time>
      </trkpt>
      <trkpt lat="44.82682" lon="5.05606">
        <ele>469.41</ele>
        <time>2017-11-28T09:04:55.000Z</time>
      </trkpt>
      <trkpt lat="44.8268" lon="5.05614">
        <ele>469.8</ele>
        <time>2017-11-28T09:05:05.000Z</time>
      </trkpt>
      <trkpt lat="44.82684" lon="5.05623">
        <ele>472.09</ele>
        <time>2017-11-28T09:05:15.000Z</time>
      </trkpt>
      <trkpt lat="44.82684" lon="5.0563">
        <ele>472.81</ele>
        <time>2017-11-28T09:05:25.000Z</time>
      </trkpt>
      <trkpt lat="44.82683" lon="5.05638">
        <ele>473.49</ele>
        <time>2017-11-28T09:05:35.000Z</time>
      </trkpt>
      <trkpt lat="44.82684" lon="5.05647">
        <ele>474.83</ele>
        <time>2017-11-28T09:05:45.000Z</time>
      </trkpt>
      <trkpt lat="44.82686" lon="5.05655">
        <ele>476.59</ele>
        <time>2017-11-28T09:05:55.000Z</time>
      </trkpt>
      <trkpt lat="44.82686" lon="5.0566">
        <ele>477.17</ele>
        <time>2017-11-28T09:06:05.000Z</time>
      </trkpt>
      <trkpt lat="44.82686" lon="5.05673">
        <ele>478.62</ele>
        <time>2017-11-28T09:06:15.000Z</time>
      </trkpt>
      <trkpt lat="44.82686" lon="5.05676">
        <ele>479.11</ele>
        <time>2017-11-28T09:06:25.000Z</time>
      </trkpt>
      <trkpt lat="44.82686" lon="5.05691">
        <ele>480.85</ele>
        <time>2017-11-28T09:06:35.000Z</time>
      </trkpt>
      <trkpt lat="44.82687" lon="5.05698">
        <ele>482.19</ele>
        <time>2017-11-28T09:06:45.000Z</time>
      </trkpt>
      <trkpt lat="44.82689" lon="5.05705">
        <ele>483.8</ele>
        <time>2017-11-28T09:06:55.000Z</time>
      </trkpt>
      <trkpt lat="44.82689" lon="5.05709">
        <ele>484.23</ele>
        <time>2017-11-28T09:07:24.000Z</time>
      </trkpt>
      <trkpt lat="44.82687" lon="5.05738">
        <ele>487.69</ele>
        <time>2017-11-28T09:07:34.000Z</time>
      </trkpt>
      <trkpt lat="44.82687" lon="5.05739">
        <ele>487.57</ele>
        <time>2017-11-28T09:08:01.000Z</time>
      </trkpt>
      <trkpt lat="44.8269" lon="5.05753">
        <ele>490.77</ele>
        <time>2017-11-28T09:08:11.000Z</time>
      </trkpt>
      <trkpt lat="44.8269" lon="5.05766">
        <ele>492.8</ele>
        <time>2017-11-28T09:08:21.000Z</time>
      </trkpt>
      <trkpt lat="44.82689" lon="5.05774">
        <ele>493.54</ele>
        <time>2017-11-28T09:08:31.000Z</time>
      </trkpt>
      <trkpt lat="44.82691" lon="5.05781">
        <ele>495.59</ele>
        <time>2017-11-28T09:08:41.000Z</time>
      </trkpt>
      <trkpt lat="44.82689" lon="5.05782">
        <ele>494.95</ele>
        <time>2017-11-28T09:08:52.000Z</time>
      </trkpt>
      <trkpt lat="44.8269" lon="5.05784">
        <ele>495.42</ele>
        <time>2017-11-28T09:09:02.000Z</time>
      </trkpt>
      <trkpt lat="44.82689" lon="5.05789">
        <ele>495.7</ele>
        <time>2017-11-28T09:09:15.000Z</time>
      </trkpt>
      <trkpt lat="44.8269" lon="5.05811">
        <ele>499.5</ele>
        <time>2017-11-28T09:09:25.000Z</time>
      </trkpt>
      <trkpt lat="44.82692" lon="5.05819">
        <ele>501.97</ele>
        <time>2017-11-28T09:09:35.000Z</time>
      </trkpt>
      <trkpt lat="44.82687" lon="5.05826">
        <ele>500.67</ele>
        <time>2017-11-28T09:09:45.000Z</time>
      </trkpt>
      <trkpt lat="44.8269" lon="5.05826">
        <ele>501.81</ele>
        <time>2017-11-28T09:09:55.000Z</time>
      </trkpt>
      <trkpt lat="44.8269" lon="5.05826">
        <ele>502.05</ele>
        <time>2017-11-28T09:10:05.000Z</time>
      </trkpt>
      <trkpt lat="44.82691" lon="5.05825">
        <ele>502.45</ele>
        <time>2017-11-28T09:10:19.000Z</time>
      </trkpt>
      <trkpt lat="44.82683" lon="5.05844">
        <ele>501.96</ele>
        <time>2017-11-28T09:10:29.000Z</time>
      </trkpt>
      <trkpt lat="44.82681" lon="5.05858">
        <ele>504.16</ele>
        <time>2017-11-28T09:10:39.000Z</time>
      </trkpt>
      <trkpt lat="44.82681" lon="5.05863">
        <ele>505.21</ele>
        <time>2017-11-28T09:10:49.000Z</time>
      </trkpt>
      <trkpt lat="44.8268" lon="5.05866">
        <ele>505.65</ele>
        <time>2017-11-28T09:11:05.000Z</time>
      </trkpt>
      <trkpt lat="44.82679" lon="5.05883">
        <ele>508.55</ele>
        <time>2017-11-28T09:11:15.000Z</time>
      </trkpt>
      <trkpt lat="44.82676" lon="5.05888">
        <ele>508.91</ele>
        <time>2017-11-28T09:11:25.000Z</time>
      </trkpt>
      <trkpt lat="44.82674" lon="5.05893">
        <ele>509.31</ele>
        <time>2017-11-28T09:11:35.000Z</time>
      </trkpt>
      <trkpt lat="44.82675" lon="5.05901">
        <ele>511.09</ele>
        <time>2017-11-28T09:11:45.000Z</time>
      </trkpt>
      <trkpt lat="44.82669" lon="5.05911">
        <ele>511.6</ele>
        <time>2017-11-28T09:11:55.000Z</time>
      </trkpt>
      <trkpt lat="44.82671" lon="5.05918">
        <ele>513.28</ele>
        <time>2017-11-28T09:12:05.000Z</time>
      </trkpt>
      <trkpt lat="44.82672" lon="5.05925">
        <ele>514.56</ele>
        <time>2017-11-28T09:12:15.000Z</time>
      </trkpt>
      <trkpt lat="44.82667" lon="5.05928">
        <ele>513.94</ele>
        <time>2017-11-28T09:12:25.000Z</time>
      </trkpt>
      <trkpt lat="44.82669" lon="5.05933">
        <ele>515.3</ele>
        <time>2017-11-28T09:12:35.000Z</time>
      </trkpt>
      <trkpt lat="44.8267" lon="5.05935">
        <ele>515.83</ele>
        <time>2017-11-28T09:12:57.000Z</time>
      </trkpt>
      <trkpt lat="44.82674" lon="5.05947">
        <ele>518.33</ele>
        <time>2017-11-28T09:13:07.000Z</time>
      </trkpt>
      <trkpt lat="44.82676" lon="5.0595">
        <ele>519.08</ele>
        <time>2017-11-28T09:13:17.000Z</time>
      </trkpt>
      <trkpt lat="44.8268" lon="5.05965">
        <ele>521.42</ele>
        <time>2017-11-28T09:13:27.000Z</time>
      </trkpt>
      <trkpt lat="44.82689" lon="5.05969">
        <ele>522.69</ele>
        <time>2017-11-28T09:13:37.000Z</time>
      </trkpt>
      <trkpt lat="44.82691" lon="5.05979">
        <ele>523.65</ele>
        <time>2017-11-28T09:13:47.000Z</time>
      </trkpt>
      <trkpt lat="44.82688" lon="5.05984">
        <ele>523.89</ele>
        <time>2017-11-28T09:13:57.000Z</time>
      </trkpt>
      <trkpt lat="44.82685" lon="5.05993">
        <ele>524.54</ele>
        <time>2017-11-28T09:14:07.000Z</time>
      </trkpt>
      <trkpt lat="44.82695" lon="5.06001">
        <ele>525</ele>
        <time>2017-11-28T09:14:17.000Z</time>
      </trkpt>
      <trkpt lat="44.82703" lon="5.06013">
        <ele>524.99</ele>
        <time>2017-11-28T09:14:27.000Z</time>
      </trkpt>
      <trkpt lat="44.82706" lon="5.0601">
        <ele>524.53</ele>
        <time>2017-11-28T09:14:37.000Z</time>
      </trkpt>
      <trkpt lat="44.82705" lon="5.06023">
        <ele>524.87</ele>
        <time>2017-11-28T09:14:47.000Z</time>
      </trkpt>
      <trkpt lat="44.82705" lon="5.06037">
        <ele>525.17</ele>
        <time>2017-11-28T09:14:57.000Z</time>
      </trkpt>
      <trkpt lat="44.82704" lon="5.06039">
        <ele>525.28</ele>
        <time>2017-11-28T09:15:07.000Z</time>
      </trkpt>
      <trkpt lat="44.82705" lon="5.06053">
        <ele>525.27</ele>
        <time>2017-11-28T09:15:17.000Z</time>
      </trkpt>
      <trkpt lat="44.82704" lon="5.06062">
        <ele>525.62</ele>
        <time>2017-11-28T09:15:27.000Z</time>
      </trkpt>
      <trkpt lat="44.82703" lon="5.06076">
        <ele>525.91</ele>
        <time>2017-11-28T09:15:37.000Z</time>
      </trkpt>
      <trkpt lat="44.82703" lon="5.06078">
        <ele>526.04</ele>
        <time>2017-11-28T09:15:47.000Z</time>
      </trkpt>
      <trkpt lat="44.82701" lon="5.06078">
        <ele>526.33</ele>
        <time>2017-11-28T09:15:57.000Z</time>
      </trkpt>
      <trkpt lat="44.827" lon="5.06077">
        <ele>526.39</ele>
        <time>2017-11-28T09:17:30.000Z</time>
      </trkpt>
      <trkpt lat="44.82701" lon="5.06077">
        <ele>526.24</ele>
        <time>2017-11-28T09:17:40.000Z</time>
      </trkpt>
      <trkpt lat="44.827" lon="5.06079">
        <ele>526.44</ele>
        <time>2017-11-28T09:17:50.000Z</time>
      </trkpt>
      <trkpt lat="44.82702" lon="5.06079">
        <ele>526.18</ele>
        <time>2017-11-28T09:18:01.000Z</time>
      </trkpt>
      <trkpt lat="44.82703" lon="5.06084">
        <ele>526.16</ele>
        <time>2017-11-28T09:18:11.000Z</time>
      </trkpt>
      <trkpt lat="44.827" lon="5.06084">
        <ele>526.69</ele>
        <time>2017-11-28T09:24:59.000Z</time>
      </trkpt>
      <trkpt lat="44.82699" lon="5.0608">
        <ele>526.7</ele>
        <time>2017-11-28T09:25:09.000Z</time>
      </trkpt>
      <trkpt lat="44.82698" lon="5.06079">
        <ele>526.74</ele>
        <time>2017-11-28T09:25:31.000Z</time>
      </trkpt>
      <trkpt lat="44.82696" lon="5.06078">
        <ele>527.07</ele>
        <time>2017-11-28T09:26:00.000Z</time>
      </trkpt>
      <trkpt lat="44.82693" lon="5.06078">
        <ele>527.37</ele>
        <time>2017-11-28T09:26:10.000Z</time>
      </trkpt>
      <trkpt lat="44.82693" lon="5.06081">
        <ele>527.52</ele>
        <time>2017-11-28T09:26:20.000Z</time>
      </trkpt>
      <trkpt lat="44.82691" lon="5.06089">
        <ele>527.99</ele>
        <time>2017-11-28T09:26:30.000Z</time>
      </trkpt>
      <trkpt lat="44.82688" lon="5.06098">
        <ele>528.71</ele>
        <time>2017-11-28T09:26:40.000Z</time>
      </trkpt>
      <trkpt lat="44.82682" lon="5.06104">
        <ele>529.4</ele>
        <time>2017-11-28T09:26:50.000Z</time>
      </trkpt>
      <trkpt lat="44.82677" lon="5.0611">
        <ele>529.83</ele>
        <time>2017-11-28T09:27:00.000Z</time>
      </trkpt>
      <trkpt lat="44.82679" lon="5.06122">
        <ele>530.28</ele>
        <time>2017-11-28T09:27:10.000Z</time>
      </trkpt>
      <trkpt lat="44.82683" lon="5.06132">
        <ele>530.48</ele>
        <time>2017-11-28T09:27:20.000Z</time>
      </trkpt>
      <trkpt lat="44.82678" lon="5.06144">
        <ele>531.63</ele>
        <time>2017-11-28T09:27:30.000Z</time>
      </trkpt>
      <trkpt lat="44.82679" lon="5.0616">
        <ele>532.97</ele>
        <time>2017-11-28T09:27:40.000Z</time>
      </trkpt>
      <trkpt lat="44.82679" lon="5.06173">
        <ele>534.52</ele>
        <time>2017-11-28T09:27:50.000Z</time>
      </trkpt>
      <trkpt lat="44.82678" lon="5.06183">
        <ele>535.98</ele>
        <time>2017-11-28T09:28:00.000Z</time>
      </trkpt>
      <trkpt lat="44.82679" lon="5.06193">
        <ele>537.61</ele>
        <time>2017-11-28T09:28:10.000Z</time>
      </trkpt>
      <trkpt lat="44.82674" lon="5.062">
        <ele>539.13</ele>
        <time>2017-11-28T09:28:20.000Z</time>
      </trkpt>
      <trkpt lat="44.82672" lon="5.06212">
        <ele>541.61</ele>
        <time>2017-11-28T09:28:30.000Z</time>
      </trkpt>
      <trkpt lat="44.82673" lon="5.0622">
        <ele>543.15</ele>
        <time>2017-11-28T09:28:40.000Z</time>
      </trkpt>
      <trkpt lat="44.82672" lon="5.06233">
        <ele>545.7</ele>
        <time>2017-11-28T09:28:50.000Z</time>
      </trkpt>
      <trkpt lat="44.82672" lon="5.0624">
        <ele>547.16</ele>
        <time>2017-11-28T09:29:00.000Z</time>
      </trkpt>
      <trkpt lat="44.82672" lon="5.06242">
        <ele>547.54</ele>
        <time>2017-11-28T09:29:10.000Z</time>
      </trkpt>
      <trkpt lat="44.82671" lon="5.06244">
        <ele>547.9</ele>
        <time>2017-11-28T09:29:20.000Z</time>
      </trkpt>
      <trkpt lat="44.8267" lon="5.06248">
        <ele>548.61</ele>
        <time>2017-11-28T09:29:42.000Z</time>
      </trkpt>
      <trkpt lat="44.82665" lon="5.06258">
        <ele>550.45</ele>
        <time>2017-11-28T09:29:52.000Z</time>
      </trkpt>
      <trkpt lat="44.82663" lon="5.06271">
        <ele>552.73</ele>
        <time>2017-11-28T09:30:02.000Z</time>
      </trkpt>
      <trkpt lat="44.82662" lon="5.06276">
        <ele>553.59</ele>
        <time>2017-11-28T09:30:12.000Z</time>
      </trkpt>
      <trkpt lat="44.82662" lon="5.06279">
        <ele>554.1</ele>
        <time>2017-11-28T09:30:22.000Z</time>
      </trkpt>
      <trkpt lat="44.82664" lon="5.06285">
        <ele>555.28</ele>
        <time>2017-11-28T09:30:32.000Z</time>
      </trkpt>
      <trkpt lat="44.82664" lon="5.06288">
        <ele>555.71</ele>
        <time>2017-11-28T09:30:42.000Z</time>
      </trkpt>
      <trkpt lat="44.82662" lon="5.06301">
        <ele>558.13</ele>
        <time>2017-11-28T09:30:52.000Z</time>
      </trkpt>
      <trkpt lat="44.8266" lon="5.0631">
        <ele>559.67</ele>
        <time>2017-11-28T09:31:02.000Z</time>
      </trkpt>
      <trkpt lat="44.82658" lon="5.06321">
        <ele>561.7</ele>
        <time>2017-11-28T09:31:12.000Z</time>
      </trkpt>
      <trkpt lat="44.82656" lon="5.06329">
        <ele>563</ele>
        <time>2017-11-28T09:31:22.000Z</time>
      </trkpt>
      <trkpt lat="44.82654" lon="5.06339">
        <ele>564.74</ele>
        <time>2017-11-28T09:31:32.000Z</time>
      </trkpt>
      <trkpt lat="44.82653" lon="5.06347">
        <ele>566.21</ele>
        <time>2017-11-28T09:31:42.000Z</time>
      </trkpt>
      <trkpt lat="44.82649" lon="5.06357">
        <ele>567.79</ele>
        <time>2017-11-28T09:31:52.000Z</time>
      </trkpt>
      <trkpt lat="44.82647" lon="5.06365">
        <ele>569.14</ele>
        <time>2017-11-28T09:32:02.000Z</time>
      </trkpt>
      <trkpt lat="44.82648" lon="5.06371">
        <ele>570.42</ele>
        <time>2017-11-28T09:32:12.000Z</time>
      </trkpt>
      <trkpt lat="44.8265" lon="5.06375">
        <ele>571.14</ele>
        <time>2017-11-28T09:32:22.000Z</time>
      </trkpt>
      <trkpt lat="44.8265" lon="5.06378">
        <ele>571.67</ele>
        <time>2017-11-28T09:32:32.000Z</time>
      </trkpt>
      <trkpt lat="44.82649" lon="5.06389">
        <ele>573.77</ele>
        <time>2017-11-28T09:32:42.000Z</time>
      </trkpt>
      <trkpt lat="44.8265" lon="5.06391">
        <ele>574.13</ele>
        <time>2017-11-28T09:32:52.000Z</time>
      </trkpt>
      <trkpt lat="44.82652" lon="5.06401">
        <ele>576.08</ele>
        <time>2017-11-28T09:33:02.000Z</time>
      </trkpt>
      <trkpt lat="44.82651" lon="5.06413">
        <ele>578.29</ele>
        <time>2017-11-28T09:33:12.000Z</time>
      </trkpt>
      <trkpt lat="44.8265" lon="5.06427">
        <ele>581.12</ele>
        <time>2017-11-28T09:33:22.000Z</time>
      </trkpt>
      <trkpt lat="44.8265" lon="5.06439">
        <ele>583.48</ele>
        <time>2017-11-28T09:33:32.000Z</time>
      </trkpt>
      <trkpt lat="44.82652" lon="5.06441">
        <ele>583.97</ele>
        <time>2017-11-28T09:33:42.000Z</time>
      </trkpt>
      <trkpt lat="44.82654" lon="5.06451">
        <ele>586.22</ele>
        <time>2017-11-28T09:33:52.000Z</time>
      </trkpt>
      <trkpt lat="44.82654" lon="5.06455">
        <ele>587.02</ele>
        <time>2017-11-28T09:34:02.000Z</time>
      </trkpt>
      <trkpt lat="44.82661" lon="5.06468">
        <ele>589.88</ele>
        <time>2017-11-28T09:34:12.000Z</time>
      </trkpt>
      <trkpt lat="44.82662" lon="5.06477">
        <ele>591.95</ele>
        <time>2017-11-28T09:34:22.000Z</time>
      </trkpt>
      <trkpt lat="44.82659" lon="5.06486">
        <ele>593.96</ele>
        <time>2017-11-28T09:34:32.000Z</time>
      </trkpt>
      <trkpt lat="44.82664" lon="5.06486">
        <ele>593.97</ele>
        <time>2017-11-28T09:34:42.000Z</time>
      </trkpt>
      <trkpt lat="44.82661" lon="5.06491">
        <ele>595.18</ele>
        <time>2017-11-28T09:34:52.000Z</time>
      </trkpt>
      <trkpt lat="44.82666" lon="5.06498">
        <ele>596.66</ele>
        <time>2017-11-28T09:35:02.000Z</time>
      </trkpt>
      <trkpt lat="44.82667" lon="5.065">
        <ele>597.04</ele>
        <time>2017-11-28T09:35:12.000Z</time>
      </trkpt>
      <trkpt lat="44.82668" lon="5.06503">
        <ele>597.67</ele>
        <time>2017-11-28T09:35:33.000Z</time>
      </trkpt>
      <trkpt lat="44.82662" lon="5.06513">
        <ele>599.96</ele>
        <time>2017-11-28T09:35:43.000Z</time>
      </trkpt>
      <trkpt lat="44.82664" lon="5.06529">
        <ele>603.57</ele>
        <time>2017-11-28T09:35:53.000Z</time>
      </trkpt>
      <trkpt lat="44.82664" lon="5.06537">
        <ele>605.43</ele>
        <time>2017-11-28T09:36:03.000Z</time>
      </trkpt>
      <trkpt lat="44.82666" lon="5.06543">
        <ele>606.65</ele>
        <time>2017-11-28T09:36:13.000Z</time>
      </trkpt>
      <trkpt lat="44.82665" lon="5.06553">
        <ele>609.02</ele>
        <time>2017-11-28T09:36:23.000Z</time>
      </trkpt>
      <trkpt lat="44.82667" lon="5.06556">
        <ele>609.74</ele>
        <time>2017-11-28T09:36:33.000Z</time>
      </trkpt>
      <trkpt lat="44.8267" lon="5.06561">
        <ele>610.76</ele>
        <time>2017-11-28T09:36:43.000Z</time>
      </trkpt>
      <trkpt lat="44.82669" lon="5.06563">
        <ele>611.1</ele>
        <time>2017-11-28T09:36:53.000Z</time>
      </trkpt>
      <trkpt lat="44.82668" lon="5.06563">
        <ele>611.16</ele>
        <time>2017-11-28T09:37:13.000Z</time>
      </trkpt>
      <trkpt lat="44.82669" lon="5.06584">
        <ele>616.06</ele>
        <time>2017-11-28T09:37:23.000Z</time>
      </trkpt>
      <trkpt lat="44.8267" lon="5.06591">
        <ele>617.52</ele>
        <time>2017-11-28T09:37:33.000Z</time>
      </trkpt>
      <trkpt lat="44.8267" lon="5.06592">
        <ele>617.84</ele>
        <time>2017-11-28T09:37:44.000Z</time>
      </trkpt>
      <trkpt lat="44.82669" lon="5.06595">
        <ele>618.65</ele>
        <time>2017-11-28T09:38:08.000Z</time>
      </trkpt>
      <trkpt lat="44.82662" lon="5.06619">
        <ele>624.74</ele>
        <time>2017-11-28T09:38:18.000Z</time>
      </trkpt>
      <trkpt lat="44.82662" lon="5.0662">
        <ele>625.05</ele>
        <time>2017-11-28T09:38:28.000Z</time>
      </trkpt>
      <trkpt lat="44.8266" lon="5.06632">
        <ele>627.95</ele>
        <time>2017-11-28T09:38:38.000Z</time>
      </trkpt>
      <trkpt lat="44.82658" lon="5.06635">
        <ele>628.61</ele>
        <time>2017-11-28T09:38:48.000Z</time>
      </trkpt>
      <trkpt lat="44.82661" lon="5.06643">
        <ele>630.65</ele>
        <time>2017-11-28T09:38:58.000Z</time>
      </trkpt>
      <trkpt lat="44.8266" lon="5.06643">
        <ele>630.58</ele>
        <time>2017-11-28T09:39:08.000Z</time>
      </trkpt>
      <trkpt lat="44.82661" lon="5.06648">
        <ele>631.72</ele>
        <time>2017-11-28T09:39:18.000Z</time>
      </trkpt>
      <trkpt lat="44.8266" lon="5.06659">
        <ele>634.22</ele>
        <time>2017-11-28T09:39:28.000Z</time>
      </trkpt>
      <trkpt lat="44.82671" lon="5.0667">
        <ele>636.6</ele>
        <time>2017-11-28T09:39:38.000Z</time>
      </trkpt>
      <trkpt lat="44.82668" lon="5.06671">
        <ele>636.95</ele>
        <time>2017-11-28T09:39:48.000Z</time>
      </trkpt>
      <trkpt lat="44.82668" lon="5.06673">
        <ele>637.31</ele>
        <time>2017-11-28T09:39:58.000Z</time>
      </trkpt>
      <trkpt lat="44.82668" lon="5.06676">
        <ele>637.93</ele>
        <time>2017-11-28T09:40:08.000Z</time>
      </trkpt>
      <trkpt lat="44.82668" lon="5.06689">
        <ele>640.44</ele>
        <time>2017-11-28T09:40:18.000Z</time>
      </trkpt>
      <trkpt lat="44.82667" lon="5.06696">
        <ele>641.74</ele>
        <time>2017-11-28T09:40:28.000Z</time>
      </trkpt>
      <trkpt lat="44.8266" lon="5.06696">
        <ele>641.47</ele>
        <time>2017-11-28T09:40:38.000Z</time>
      </trkpt>
      <trkpt lat="44.82656" lon="5.06697">
        <ele>641.37</ele>
        <time>2017-11-28T09:40:48.000Z</time>
      </trkpt>
      <trkpt lat="44.82655" lon="5.06707">
        <ele>643.04</ele>
        <time>2017-11-28T09:40:58.000Z</time>
      </trkpt>
      <trkpt lat="44.8265" lon="5.0671">
        <ele>642.91</ele>
        <time>2017-11-28T09:41:08.000Z</time>
      </trkpt>
      <trkpt lat="44.82651" lon="5.06711">
        <ele>643.17</ele>
        <time>2017-11-28T09:41:20.000Z</time>
      </trkpt>
      <trkpt lat="44.82651" lon="5.06714">
        <ele>643.71</ele>
        <time>2017-11-28T09:41:30.000Z</time>
      </trkpt>
      <trkpt lat="44.82648" lon="5.06726">
        <ele>645.36</ele>
        <time>2017-11-28T09:41:40.000Z</time>
      </trkpt>
      <trkpt lat="44.82647" lon="5.0673">
        <ele>645.66</ele>
        <time>2017-11-28T09:41:50.000Z</time>
      </trkpt>
      <trkpt lat="44.82643" lon="5.06741">
        <ele>647.05</ele>
        <time>2017-11-28T09:42:00.000Z</time>
      </trkpt>
      <trkpt lat="44.82645" lon="5.06752">
        <ele>649.83</ele>
        <time>2017-11-28T09:42:10.000Z</time>
      </trkpt>
      <trkpt lat="44.82647" lon="5.06756">
        <ele>651.26</ele>
        <time>2017-11-28T09:42:20.000Z</time>
      </trkpt>
      <trkpt lat="44.82646" lon="5.06768">
        <ele>654.06</ele>
        <time>2017-11-28T09:42:30.000Z</time>
      </trkpt>
      <trkpt lat="44.82645" lon="5.06773">
        <ele>654.87</ele>
        <time>2017-11-28T09:42:40.000Z</time>
      </trkpt>
      <trkpt lat="44.82642" lon="5.06775">
        <ele>655.06</ele>
        <time>2017-11-28T09:42:50.000Z</time>
      </trkpt>
      <trkpt lat="44.82641" lon="5.06773">
        <ele>654.45</ele>
        <time>2017-11-28T09:45:11.000Z</time>
      </trkpt>
      <trkpt lat="44.82637" lon="5.06765">
        <ele>651.51</ele>
        <time>2017-11-28T09:45:21.000Z</time>
      </trkpt>
      <trkpt lat="44.82637" lon="5.06762">
        <ele>650.47</ele>
        <time>2017-11-28T09:45:31.000Z</time>
      </trkpt>
      <trkpt lat="44.82637" lon="5.06763">
        <ele>651.03</ele>
        <time>2017-11-28T09:46:55.000Z</time>
      </trkpt>
      <trkpt lat="44.82638" lon="5.06776">
        <ele>654.58</ele>
        <time>2017-11-28T09:47:05.000Z</time>
      </trkpt>
      <trkpt lat="44.82642" lon="5.06782">
        <ele>656.74</ele>
        <time>2017-11-28T09:47:15.000Z</time>
      </trkpt>
      <trkpt lat="44.82643" lon="5.06789">
        <ele>658.75</ele>
        <time>2017-11-28T09:47:25.000Z</time>
      </trkpt>
      <trkpt lat="44.82645" lon="5.06796">
        <ele>661.03</ele>
        <time>2017-11-28T09:47:35.000Z</time>
      </trkpt>
      <trkpt lat="44.82645" lon="5.06799">
        <ele>661.98</ele>
        <time>2017-11-28T09:47:45.000Z</time>
      </trkpt>
      <trkpt lat="44.82647" lon="5.06807">
        <ele>664.63</ele>
        <time>2017-11-28T09:47:55.000Z</time>
      </trkpt>
      <trkpt lat="44.82646" lon="5.06814">
        <ele>666.59</ele>
        <time>2017-11-28T09:48:05.000Z</time>
      </trkpt>
      <trkpt lat="44.82643" lon="5.0682">
        <ele>668</ele>
        <time>2017-11-28T09:48:15.000Z</time>
      </trkpt>
      <trkpt lat="44.82647" lon="5.06825">
        <ele>669.96</ele>
        <time>2017-11-28T09:48:25.000Z</time>
      </trkpt>
      <trkpt lat="44.82648" lon="5.06831">
        <ele>671.78</ele>
        <time>2017-11-28T09:48:35.000Z</time>
      </trkpt>
      <trkpt lat="44.8265" lon="5.06835">
        <ele>673.37</ele>
        <time>2017-11-28T09:48:45.000Z</time>
      </trkpt>
      <trkpt lat="44.82652" lon="5.0684">
        <ele>675.3</ele>
        <time>2017-11-28T09:48:55.000Z</time>
      </trkpt>
      <trkpt lat="44.82653" lon="5.06845">
        <ele>677.02</ele>
        <time>2017-11-28T09:49:05.000Z</time>
      </trkpt>
      <trkpt lat="44.82655" lon="5.06849">
        <ele>678.47</ele>
        <time>2017-11-28T09:49:15.000Z</time>
      </trkpt>
      <trkpt lat="44.82657" lon="5.0685">
        <ele>679.05</ele>
        <time>2017-11-28T09:49:25.000Z</time>
      </trkpt>
      <trkpt lat="44.8266" lon="5.06856">
        <ele>681.33</ele>
        <time>2017-11-28T09:49:35.000Z</time>
      </trkpt>
      <trkpt lat="44.82663" lon="5.06863">
        <ele>684.23</ele>
        <time>2017-11-28T09:49:45.000Z</time>
      </trkpt>
      <trkpt lat="44.82666" lon="5.06866">
        <ele>685.52</ele>
        <time>2017-11-28T09:49:55.000Z</time>
      </trkpt>
      <trkpt lat="44.82667" lon="5.06869">
        <ele>686.46</ele>
        <time>2017-11-28T09:50:05.000Z</time>
      </trkpt>
      <trkpt lat="44.82676" lon="5.06875">
        <ele>688.82</ele>
        <time>2017-11-28T09:50:15.000Z</time>
      </trkpt>
      <trkpt lat="44.82678" lon="5.06877">
        <ele>689.83</ele>
        <time>2017-11-28T09:50:25.000Z</time>
      </trkpt>
      <trkpt lat="44.82679" lon="5.06878">
        <ele>690.28</ele>
        <time>2017-11-28T09:50:35.000Z</time>
      </trkpt>
      <trkpt lat="44.82684" lon="5.0689">
        <ele>694.74</ele>
        <time>2017-11-28T09:50:45.000Z</time>
      </trkpt>
      <trkpt lat="44.82686" lon="5.06893">
        <ele>695.98</ele>
        <time>2017-11-28T09:50:55.000Z</time>
      </trkpt>
      <trkpt lat="44.82686" lon="5.06895">
        <ele>696.61</ele>
        <time>2017-11-28T09:51:07.000Z</time>
      </trkpt>
      <trkpt lat="44.82688" lon="5.06896">
        <ele>697.28</ele>
        <time>2017-11-28T09:51:17.000Z</time>
      </trkpt>
      <trkpt lat="44.82689" lon="5.06899">
        <ele>698.42</ele>
        <time>2017-11-28T09:51:30.000Z</time>
      </trkpt>
      <trkpt lat="44.82699" lon="5.06909">
        <ele>701.96</ele>
        <time>2017-11-28T09:51:40.000Z</time>
      </trkpt>
      <trkpt lat="44.82703" lon="5.06917">
        <ele>704.75</ele>
        <time>2017-11-28T09:51:50.000Z</time>
      </trkpt>
      <trkpt lat="44.82708" lon="5.06919">
        <ele>705.18</ele>
        <time>2017-11-28T09:52:00.000Z</time>
      </trkpt>
      <trkpt lat="44.82711" lon="5.06925">
        <ele>707.81</ele>
        <time>2017-11-28T09:52:27.000Z</time>
      </trkpt>
      <trkpt lat="44.82717" lon="5.0693">
        <ele>709.59</ele>
        <time>2017-11-28T09:52:37.000Z</time>
      </trkpt>
      <trkpt lat="44.82718" lon="5.06931">
        <ele>709.65</ele>
        <time>2017-11-28T09:52:47.000Z</time>
      </trkpt>
      <trkpt lat="44.82721" lon="5.06935">
        <ele>711.27</ele>
        <time>2017-11-28T09:52:57.000Z</time>
      </trkpt>
      <trkpt lat="44.82724" lon="5.06935">
        <ele>711.14</ele>
        <time>2017-11-28T09:53:07.000Z</time>
      </trkpt>
      <trkpt lat="44.82731" lon="5.06938">
        <ele>712.11</ele>
        <time>2017-11-28T09:53:17.000Z</time>
      </trkpt>
      <trkpt lat="44.82733" lon="5.06942">
        <ele>713.64</ele>
        <time>2017-11-28T09:53:27.000Z</time>
      </trkpt>
      <trkpt lat="44.82736" lon="5.06943">
        <ele>714.03</ele>
        <time>2017-11-28T09:53:39.000Z</time>
      </trkpt>
      <trkpt lat="44.82745" lon="5.0695">
        <ele>716.58</ele>
        <time>2017-11-28T09:53:49.000Z</time>
      </trkpt>
      <trkpt lat="44.82752" lon="5.06956">
        <ele>719.53</ele>
        <time>2017-11-28T09:53:59.000Z</time>
      </trkpt>
      <trkpt lat="44.82757" lon="5.0696">
        <ele>720.97</ele>
        <time>2017-11-28T09:54:09.000Z</time>
      </trkpt>
      <trkpt lat="44.82758" lon="5.06961">
        <ele>721.31</ele>
        <time>2017-11-28T09:54:20.000Z</time>
      </trkpt>
      <trkpt lat="44.82769" lon="5.06967">
        <ele>724.19</ele>
        <time>2017-11-28T09:54:30.000Z</time>
      </trkpt>
      <trkpt lat="44.82774" lon="5.06971">
        <ele>725.66</ele>
        <time>2017-11-28T09:54:40.000Z</time>
      </trkpt>
      <trkpt lat="44.82773" lon="5.06974">
        <ele>727.04</ele>
        <time>2017-11-28T09:54:50.000Z</time>
      </trkpt>
      <trkpt lat="44.82777" lon="5.06977">
        <ele>728.53</ele>
        <time>2017-11-28T09:55:00.000Z</time>
      </trkpt>
      <trkpt lat="44.82778" lon="5.0698">
        <ele>729.5</ele>
        <time>2017-11-28T09:55:10.000Z</time>
      </trkpt>
      <trkpt lat="44.8278" lon="5.06981">
        <ele>730.06</ele>
        <time>2017-11-28T09:55:32.000Z</time>
      </trkpt>
      <trkpt lat="44.82787" lon="5.06984">
        <ele>731.11</ele>
        <time>2017-11-28T09:55:42.000Z</time>
      </trkpt>
      <trkpt lat="44.82791" lon="5.06984">
        <ele>730.7</ele>
        <time>2017-11-28T09:55:52.000Z</time>
      </trkpt>
      <trkpt lat="44.82798" lon="5.06989">
        <ele>732.95</ele>
        <time>2017-11-28T09:56:02.000Z</time>
      </trkpt>
      <trkpt lat="44.82801" lon="5.0699">
        <ele>733.22</ele>
        <time>2017-11-28T09:56:12.000Z</time>
      </trkpt>
      <trkpt lat="44.82802" lon="5.0699">
        <ele>733</ele>
        <time>2017-11-28T09:56:22.000Z</time>
      </trkpt>
      <trkpt lat="44.82806" lon="5.06994">
        <ele>735.02</ele>
        <time>2017-11-28T09:57:00.000Z</time>
      </trkpt>
      <trkpt lat="44.82811" lon="5.06995">
        <ele>735.17</ele>
        <time>2017-11-28T09:57:10.000Z</time>
      </trkpt>
      <trkpt lat="44.82812" lon="5.06995">
        <ele>735.05</ele>
        <time>2017-11-28T09:57:20.000Z</time>
      </trkpt>
      <trkpt lat="44.82813" lon="5.06996">
        <ele>735.56</ele>
        <time>2017-11-28T09:57:30.000Z</time>
      </trkpt>
      <trkpt lat="44.82817" lon="5.06997">
        <ele>735.58</ele>
        <time>2017-11-28T09:57:40.000Z</time>
      </trkpt>
      <trkpt lat="44.82825" lon="5.07001">
        <ele>737.1</ele>
        <time>2017-11-28T09:57:50.000Z</time>
      </trkpt>
      <trkpt lat="44.82835" lon="5.07013">
        <ele>743.09</ele>
        <time>2017-11-28T09:58:00.000Z</time>
      </trkpt>
      <trkpt lat="44.82841" lon="5.07017">
        <ele>745.11</ele>
        <time>2017-11-28T09:58:10.000Z</time>
      </trkpt>
      <trkpt lat="44.82843" lon="5.07023">
        <ele>748.9</ele>
        <time>2017-11-28T09:59:09.000Z</time>
      </trkpt>
      <trkpt lat="44.82861" lon="5.07049">
        <ele>764.09</ele>
        <time>2017-11-28T09:59:19.000Z</time>
      </trkpt>
      <trkpt lat="44.82864" lon="5.07051">
        <ele>765.57</ele>
        <time>2017-11-28T09:59:29.000Z</time>
      </trkpt>
      <trkpt lat="44.82865" lon="5.0705">
        <ele>764.63</ele>
        <time>2017-11-28T09:59:39.000Z</time>
      </trkpt>
      <trkpt lat="44.82867" lon="5.07052">
        <ele>765.53</ele>
        <time>2017-11-28T09:59:55.000Z</time>
      </trkpt>
      <trkpt lat="44.82878" lon="5.07057">
        <ele>768.51</ele>
        <time>2017-11-28T10:00:05.000Z</time>
      </trkpt>
      <trkpt lat="44.82881" lon="5.07059">
        <ele>769.2</ele>
        <time>2017-11-28T10:00:15.000Z</time>
      </trkpt>
      <trkpt lat="44.82882" lon="5.07059">
        <ele>769.1</ele>
        <time>2017-11-28T10:00:52.000Z</time>
      </trkpt>
      <trkpt lat="44.82882" lon="5.07059">
        <ele>769.24</ele>
        <time>2017-11-28T10:02:24.000Z</time>
      </trkpt>
      <trkpt lat="44.82883" lon="5.0706">
        <ele>769.63</ele>
        <time>2017-11-28T10:02:42.000Z</time>
      </trkpt>
      <trkpt lat="44.82884" lon="5.07061">
        <ele>770.05</ele>
        <time>2017-11-28T10:03:05.000Z</time>
      </trkpt>
      <trkpt lat="44.82885" lon="5.07061">
        <ele>770.52</ele>
        <time>2017-11-28T10:05:26.000Z</time>
      </trkpt>
      <trkpt lat="44.82887" lon="5.07063">
        <ele>771.56</ele>
        <time>2017-11-28T10:05:52.000Z</time>
      </trkpt>
      <trkpt lat="44.82903" lon="5.07076">
        <ele>777.15</ele>
        <time>2017-11-28T10:06:02.000Z</time>
      </trkpt>
      <trkpt lat="44.82909" lon="5.07084">
        <ele>780.94</ele>
        <time>2017-11-28T10:06:12.000Z</time>
      </trkpt>
      <trkpt lat="44.82913" lon="5.07089">
        <ele>783.02</ele>
        <time>2017-11-28T10:06:30.000Z</time>
      </trkpt>
      <trkpt lat="44.82921" lon="5.07099">
        <ele>786.89</ele>
        <time>2017-11-28T10:06:40.000Z</time>
      </trkpt>
      <trkpt lat="44.82924" lon="5.07102">
        <ele>787.36</ele>
        <time>2017-11-28T10:06:50.000Z</time>
      </trkpt>
      <trkpt lat="44.82925" lon="5.07102">
        <ele>787.32</ele>
        <time>2017-11-28T10:07:18.000Z</time>
      </trkpt>
      <trkpt lat="44.82926" lon="5.07103">
        <ele>787.9</ele>
        <time>2017-11-28T10:09:04.000Z</time>
      </trkpt>
      <trkpt lat="44.82926" lon="5.07101">
        <ele>786.44</ele>
        <time>2017-11-28T10:09:38.000Z</time>
      </trkpt>
      <trkpt lat="44.82935" lon="5.07092">
        <ele>778.78</ele>
        <time>2017-11-28T10:09:48.000Z</time>
      </trkpt>
      <trkpt lat="44.82946" lon="5.07118">
        <ele>789.91</ele>
        <time>2017-11-28T10:09:58.000Z</time>
      </trkpt>
      <trkpt lat="44.82954" lon="5.07128">
        <ele>793.17</ele>
        <time>2017-11-28T10:10:08.000Z</time>
      </trkpt>
      <trkpt lat="44.82956" lon="5.07133">
        <ele>795.22</ele>
        <time>2017-11-28T10:10:18.000Z</time>
      </trkpt>
      <trkpt lat="44.82958" lon="5.07133">
        <ele>794.98</ele>
        <time>2017-11-28T10:10:28.000Z</time>
      </trkpt>
      <trkpt lat="44.82964" lon="5.07143">
        <ele>798.73</ele>
        <time>2017-11-28T10:10:38.000Z</time>
      </trkpt>
      <trkpt lat="44.82972" lon="5.07149">
        <ele>799.71</ele>
        <time>2017-11-28T10:10:48.000Z</time>
      </trkpt>
      <trkpt lat="44.82982" lon="5.07157">
        <ele>801.93</ele>
        <time>2017-11-28T10:10:58.000Z</time>
      </trkpt>
      <trkpt lat="44.82989" lon="5.07164">
        <ele>804.56</ele>
        <time>2017-11-28T10:11:08.000Z</time>
      </trkpt>
      <trkpt lat="44.82988" lon="5.07165">
        <ele>805.52</ele>
        <time>2017-11-28T10:11:18.000Z</time>
      </trkpt>
      <trkpt lat="44.82991" lon="5.07168">
        <ele>806.47</ele>
        <time>2017-11-28T10:11:52.000Z</time>
      </trkpt>
      <trkpt lat="44.83005" lon="5.07172">
        <ele>806.29</ele>
        <time>2017-11-28T10:12:02.000Z</time>
      </trkpt>
      <trkpt lat="44.83008" lon="5.07176">
        <ele>807.89</ele>
        <time>2017-11-28T10:12:12.000Z</time>
      </trkpt>
      <trkpt lat="44.83008" lon="5.07177">
        <ele>808.63</ele>
        <time>2017-11-28T10:15:18.000Z</time>
      </trkpt>
      <trkpt lat="44.83009" lon="5.07179">
        <ele>809.14</ele>
        <time>2017-11-28T10:16:12.000Z</time>
      </trkpt>
      <trkpt lat="44.83022" lon="5.07193">
        <ele>815.02</ele>
        <time>2017-11-28T10:16:22.000Z</time>
      </trkpt>
      <trkpt lat="44.83024" lon="5.07218">
        <ele>828.19</ele>
        <time>2017-11-28T10:16:32.000Z</time>
      </trkpt>
      <trkpt lat="44.83025" lon="5.07234">
        <ele>836.01</ele>
        <time>2017-11-28T10:16:42.000Z</time>
      </trkpt>
      <trkpt lat="44.83026" lon="5.07249">
        <ele>843.82</ele>
        <time>2017-11-28T10:16:52.000Z</time>
      </trkpt>
      <trkpt lat="44.83025" lon="5.07248">
        <ele>843.64</ele>
        <time>2017-11-28T10:17:02.000Z</time>
      </trkpt>
      <trkpt lat="44.83031" lon="5.07253">
        <ele>845.38</ele>
        <time>2017-11-28T10:17:12.000Z</time>
      </trkpt>
      <trkpt lat="44.83033" lon="5.07255">
        <ele>846.41</ele>
        <time>2017-11-28T10:17:22.000Z</time>
      </trkpt>
      <trkpt lat="44.83035" lon="5.07257">
        <ele>846.96</ele>
        <time>2017-11-28T10:19:22.000Z</time>
      </trkpt>
      <trkpt lat="44.83048" lon="5.07273">
        <ele>854.26</ele>
        <time>2017-11-28T10:19:32.000Z</time>
      </trkpt>
      <trkpt lat="44.83059" lon="5.07279">
        <ele>856.36</ele>
        <time>2017-11-28T10:19:42.000Z</time>
      </trkpt>
      <trkpt lat="44.8307" lon="5.07286">
        <ele>858.92</ele>
        <time>2017-11-28T10:19:52.000Z</time>
      </trkpt>
      <trkpt lat="44.83076" lon="5.07289">
        <ele>860.17</ele>
        <time>2017-11-28T10:20:02.000Z</time>
      </trkpt>
      <trkpt lat="44.83088" lon="5.07292">
        <ele>860.59</ele>
        <time>2017-11-28T10:20:12.000Z</time>
      </trkpt>
      <trkpt lat="44.83091" lon="5.07295">
        <ele>861.35</ele>
        <time>2017-11-28T10:20:22.000Z</time>
      </trkpt>
      <trkpt lat="44.83092" lon="5.07294">
        <ele>860.79</ele>
        <time>2017-11-28T10:20:32.000Z</time>
      </trkpt>
      <trkpt lat="44.83098" lon="5.07297">
        <ele>861.93</ele>
        <time>2017-11-28T10:20:42.000Z</time>
      </trkpt>
      <trkpt lat="44.83106" lon="5.07297">
        <ele>861.06</ele>
        <time>2017-11-28T10:20:52.000Z</time>
      </trkpt>
      <trkpt lat="44.83107" lon="5.07298">
        <ele>861.62</ele>
        <time>2017-11-28T10:21:02.000Z</time>
      </trkpt>
      <trkpt lat="44.8311" lon="5.073">
        <ele>862.09</ele>
        <time>2017-11-28T10:21:16.000Z</time>
      </trkpt>
      <trkpt lat="44.83123" lon="5.07305">
        <ele>863.23</ele>
        <time>2017-11-28T10:21:26.000Z</time>
      </trkpt>
      <trkpt lat="44.83129" lon="5.0731">
        <ele>864.98</ele>
        <time>2017-11-28T10:21:36.000Z</time>
      </trkpt>
      <trkpt lat="44.83137" lon="5.07316">
        <ele>866.79</ele>
        <time>2017-11-28T10:21:46.000Z</time>
      </trkpt>
      <trkpt lat="44.83139" lon="5.07317">
        <ele>866.93</ele>
        <time>2017-11-28T10:21:56.000Z</time>
      </trkpt>
      <trkpt lat="44.8314" lon="5.07319">
        <ele>867.34</ele>
        <time>2017-11-28T10:22:06.000Z</time>
      </trkpt>
      <trkpt lat="44.83148" lon="5.0733">
        <ele>870.12</ele>
        <time>2017-11-28T10:22:16.000Z</time>
      </trkpt>
      <trkpt lat="44.83154" lon="5.07332">
        <ele>870.29</ele>
        <time>2017-11-28T10:22:26.000Z</time>
      </trkpt>
      <trkpt lat="44.83156" lon="5.07336">
        <ele>871.07</ele>
        <time>2017-11-28T10:22:36.000Z</time>
      </trkpt>
      <trkpt lat="44.83161" lon="5.0734">
        <ele>871.52</ele>
        <time>2017-11-28T10:22:46.000Z</time>
      </trkpt>
      <trkpt lat="44.83165" lon="5.07344">
        <ele>871.85</ele>
        <time>2017-11-28T10:22:56.000Z</time>
      </trkpt>
      <trkpt lat="44.83169" lon="5.07344">
        <ele>871.72</ele>
        <time>2017-11-28T10:23:06.000Z</time>
      </trkpt>
      <trkpt lat="44.83169" lon="5.07346">
        <ele>871.97</ele>
        <time>2017-11-28T10:23:16.000Z</time>
      </trkpt>
      <trkpt lat="44.83168" lon="5.07348">
        <ele>872.19</ele>
        <time>2017-11-28T10:23:26.000Z</time>
      </trkpt>
      <trkpt lat="44.83167" lon="5.07349">
        <ele>872.27</ele>
        <time>2017-11-28T10:23:36.000Z</time>
      </trkpt>
      <trkpt lat="44.83168" lon="5.07348">
        <ele>872.15</ele>
        <time>2017-11-28T10:24:25.000Z</time>
      </trkpt>
      <trkpt lat="44.83168" lon="5.0735">
        <ele>872.36</ele>
        <time>2017-11-28T10:24:35.000Z</time>
      </trkpt>
      <trkpt lat="44.8317" lon="5.0735">
        <ele>872.27</ele>
        <time>2017-11-28T10:24:45.000Z</time>
      </trkpt>
      <trkpt lat="44.83176" lon="5.07347">
        <ele>871.81</ele>
        <time>2017-11-28T10:24:55.000Z</time>
      </trkpt>
      <trkpt lat="44.83181" lon="5.07339">
        <ele>870.89</ele>
        <time>2017-11-28T10:25:05.000Z</time>
      </trkpt>
      <trkpt lat="44.8319" lon="5.0733">
        <ele>869.61</ele>
        <time>2017-11-28T10:25:15.000Z</time>
      </trkpt>
      <trkpt lat="44.832" lon="5.07326">
        <ele>869.15</ele>
        <time>2017-11-28T10:25:25.000Z</time>
      </trkpt>
      <trkpt lat="44.83203" lon="5.07323">
        <ele>868.61</ele>
        <time>2017-11-28T10:25:35.000Z</time>
      </trkpt>
      <trkpt lat="44.83204" lon="5.07321">
        <ele>868.33</ele>
        <time>2017-11-28T10:25:45.000Z</time>
      </trkpt>
      <trkpt lat="44.83205" lon="5.07322">
        <ele>868.57</ele>
        <time>2017-11-28T10:25:55.000Z</time>
      </trkpt>
      <trkpt lat="44.83204" lon="5.07321">
        <ele>868.24</ele>
        <time>2017-11-28T10:26:10.000Z</time>
      </trkpt>
      <trkpt lat="44.83201" lon="5.07314">
        <ele>866.13</ele>
        <time>2017-11-28T10:26:20.000Z</time>
      </trkpt>
      <trkpt lat="44.832" lon="5.07317">
        <ele>866.99</ele>
        <time>2017-11-28T10:26:30.000Z</time>
      </trkpt>
      <trkpt lat="44.83202" lon="5.07318">
        <ele>867.36</ele>
        <time>2017-11-28T10:26:50.000Z</time>
      </trkpt>
      <trkpt lat="44.83201" lon="5.0732">
        <ele>867.67</ele>
        <time>2017-11-28T10:27:00.000Z</time>
      </trkpt>
      <trkpt lat="44.83202" lon="5.07318">
        <ele>867.32</ele>
        <time>2017-11-28T10:27:10.000Z</time>
      </trkpt>
      <trkpt lat="44.83202" lon="5.07319">
        <ele>867.66</ele>
        <time>2017-11-28T10:27:23.000Z</time>
      </trkpt>
      <trkpt lat="44.83195" lon="5.07326">
        <ele>868.87</ele>
        <time>2017-11-28T10:27:33.000Z</time>
      </trkpt>
      <trkpt lat="44.83192" lon="5.07329">
        <ele>869.44</ele>
        <time>2017-11-28T10:27:43.000Z</time>
      </trkpt>
      <trkpt lat="44.83183" lon="5.07338">
        <ele>870.84</ele>
        <time>2017-11-28T10:27:53.000Z</time>
      </trkpt>
      <trkpt lat="44.83176" lon="5.07342">
        <ele>871.27</ele>
        <time>2017-11-28T10:28:03.000Z</time>
      </trkpt>
      <trkpt lat="44.83169" lon="5.0735">
        <ele>872.28</ele>
        <time>2017-11-28T10:28:13.000Z</time>
      </trkpt>
      <trkpt lat="44.83167" lon="5.07352">
        <ele>872.54</ele>
        <time>2017-11-28T10:28:23.000Z</time>
      </trkpt>
      <trkpt lat="44.83169" lon="5.0735">
        <ele>872.26</ele>
        <time>2017-11-28T10:28:33.000Z</time>
      </trkpt>
      <trkpt lat="44.8317" lon="5.07348">
        <ele>872.14</ele>
        <time>2017-11-28T10:28:44.000Z</time>
      </trkpt>
      <trkpt lat="44.83169" lon="5.0735">
        <ele>872.32</ele>
        <time>2017-11-28T10:29:11.000Z</time>
      </trkpt>
      <trkpt lat="44.83168" lon="5.0735">
        <ele>872.37</ele>
        <time>2017-11-28T10:29:21.000Z</time>
      </trkpt>
      <trkpt lat="44.83167" lon="5.07352">
        <ele>872.53</ele>
        <time>2017-11-28T10:29:31.000Z</time>
      </trkpt>
      <trkpt lat="44.83168" lon="5.07352">
        <ele>872.51</ele>
        <time>2017-11-28T10:29:41.000Z</time>
      </trkpt>
      <trkpt lat="44.83168" lon="5.0735">
        <ele>872.36</ele>
        <time>2017-11-28T10:29:59.000Z</time>
      </trkpt>
      <trkpt lat="44.83167" lon="5.07351">
        <ele>872.48</ele>
        <time>2017-11-28T10:30:13.000Z</time>
      </trkpt>
      <trkpt lat="44.83168" lon="5.07351">
        <ele>872.44</ele>
        <time>2017-11-28T10:30:46.000Z</time>
      </trkpt>
      <trkpt lat="44.83167" lon="5.0735">
        <ele>872.41</ele>
        <time>2017-11-28T10:30:58.000Z</time>
      </trkpt>
      <trkpt lat="44.83167" lon="5.07352">
        <ele>872.52</ele>
        <time>2017-11-28T10:31:35.000Z</time>
      </trkpt>
      <trkpt lat="44.83167" lon="5.07353">
        <ele>872.61</ele>
        <time>2017-11-28T10:31:49.000Z</time>
      </trkpt>
      <trkpt lat="44.83168" lon="5.0735">
        <ele>872.39</ele>
        <time>2017-11-28T10:31:59.000Z</time>
      </trkpt>
      <trkpt lat="44.83168" lon="5.07349">
        <ele>872.21</ele>
        <time>2017-11-28T10:32:09.000Z</time>
      </trkpt>
      <trkpt lat="44.83167" lon="5.0735">
        <ele>872.34</ele>
        <time>2017-11-28T10:33:06.000Z</time>
      </trkpt>
      <trkpt lat="44.83168" lon="5.0735">
        <ele>872.34</ele>
        <time>2017-11-28T10:33:22.000Z</time>
      </trkpt>
      <trkpt lat="44.83168" lon="5.07357">
        <ele>872.77</ele>
        <time>2017-11-28T10:33:32.000Z</time>
      </trkpt>
      <trkpt lat="44.83174" lon="5.07364">
        <ele>872.66</ele>
        <time>2017-11-28T10:33:42.000Z</time>
      </trkpt>
      <trkpt lat="44.83172" lon="5.07372">
        <ele>872.67</ele>
        <time>2017-11-28T10:33:52.000Z</time>
      </trkpt>
      <trkpt lat="44.83171" lon="5.07373">
        <ele>872.69</ele>
        <time>2017-11-28T10:34:02.000Z</time>
      </trkpt>
      <trkpt lat="44.83165" lon="5.0738">
        <ele>872.9</ele>
        <time>2017-11-28T10:34:12.000Z</time>
      </trkpt>
      <trkpt lat="44.83157" lon="5.074">
        <ele>872.94</ele>
        <time>2017-11-28T10:34:22.000Z</time>
      </trkpt>
      <trkpt lat="44.83149" lon="5.07418">
        <ele>873.7</ele>
        <time>2017-11-28T10:34:32.000Z</time>
      </trkpt>
      <trkpt lat="44.83149" lon="5.07434">
        <ele>873.36</ele>
        <time>2017-11-28T10:34:42.000Z</time>
      </trkpt>
      <trkpt lat="44.83146" lon="5.07446">
        <ele>873.3</ele>
        <time>2017-11-28T10:34:52.000Z</time>
      </trkpt>
      <trkpt lat="44.83142" lon="5.0746">
        <ele>873.27</ele>
        <time>2017-11-28T10:35:02.000Z</time>
      </trkpt>
      <trkpt lat="44.83142" lon="5.07473">
        <ele>872.31</ele>
        <time>2017-11-28T10:35:12.000Z</time>
      </trkpt>
      <trkpt lat="44.83142" lon="5.0749">
        <ele>870.81</ele>
        <time>2017-11-28T10:35:22.000Z</time>
      </trkpt>
      <trkpt lat="44.83137" lon="5.07497">
        <ele>871.36</ele>
        <time>2017-11-28T10:35:32.000Z</time>
      </trkpt>
      <trkpt lat="44.83135" lon="5.07513">
        <ele>870.64</ele>
        <time>2017-11-28T10:35:42.000Z</time>
      </trkpt>
      <trkpt lat="44.83134" lon="5.07527">
        <ele>869.83</ele>
        <time>2017-11-28T10:35:52.000Z</time>
      </trkpt>
      <trkpt lat="44.83132" lon="5.07542">
        <ele>869.06</ele>
        <time>2017-11-28T10:36:02.000Z</time>
      </trkpt>
      <trkpt lat="44.8313" lon="5.07557">
        <ele>868.06</ele>
        <time>2017-11-28T10:36:12.000Z</time>
      </trkpt>
      <trkpt lat="44.83128" lon="5.07576">
        <ele>866.49</ele>
        <time>2017-11-28T10:36:22.000Z</time>
      </trkpt>
      <trkpt lat="44.83121" lon="5.07586">
        <ele>866.82</ele>
        <time>2017-11-28T10:36:32.000Z</time>
      </trkpt>
      <trkpt lat="44.83118" lon="5.07599">
        <ele>865.56</ele>
        <time>2017-11-28T10:36:42.000Z</time>
      </trkpt>
      <trkpt lat="44.83113" lon="5.07611">
        <ele>865.17</ele>
        <time>2017-11-28T10:36:52.000Z</time>
      </trkpt>
      <trkpt lat="44.83112" lon="5.07623">
        <ele>863.13</ele>
        <time>2017-11-28T10:37:02.000Z</time>
      </trkpt>
      <trkpt lat="44.83108" lon="5.07633">
        <ele>862.75</ele>
        <time>2017-11-28T10:37:12.000Z</time>
      </trkpt>
      <trkpt lat="44.83103" lon="5.07648">
        <ele>862.05</ele>
        <time>2017-11-28T10:37:22.000Z</time>
      </trkpt>
      <trkpt lat="44.83099" lon="5.07662">
        <ele>861.42</ele>
        <time>2017-11-28T10:37:32.000Z</time>
      </trkpt>
      <trkpt lat="44.83092" lon="5.07672">
        <ele>862.51</ele>
        <time>2017-11-28T10:37:42.000Z</time>
      </trkpt>
      <trkpt lat="44.83094" lon="5.07684">
        <ele>859.96</ele>
        <time>2017-11-28T10:37:52.000Z</time>
      </trkpt>
      <trkpt lat="44.83088" lon="5.07696">
        <ele>860.5</ele>
        <time>2017-11-28T10:38:02.000Z</time>
      </trkpt>
      <trkpt lat="44.83082" lon="5.07712">
        <ele>860.43</ele>
        <time>2017-11-28T10:38:12.000Z</time>
      </trkpt>
      <trkpt lat="44.83077" lon="5.07725">
        <ele>860.24</ele>
        <time>2017-11-28T10:38:22.000Z</time>
      </trkpt>
      <trkpt lat="44.83074" lon="5.07743">
        <ele>858.43</ele>
        <time>2017-11-28T10:38:32.000Z</time>
      </trkpt>
      <trkpt lat="44.83074" lon="5.07759">
        <ele>855.87</ele>
        <time>2017-11-28T10:38:42.000Z</time>
      </trkpt>
      <trkpt lat="44.8307" lon="5.07771">
        <ele>855.27</ele>
        <time>2017-11-28T10:38:52.000Z</time>
      </trkpt>
      <trkpt lat="44.83067" lon="5.07785">
        <ele>854.02</ele>
        <time>2017-11-28T10:39:02.000Z</time>
      </trkpt>
      <trkpt lat="44.83065" lon="5.07797">
        <ele>852.45</ele>
        <time>2017-11-28T10:39:12.000Z</time>
      </trkpt>
      <trkpt lat="44.83063" lon="5.07816">
        <ele>850.09</ele>
        <time>2017-11-28T10:39:22.000Z</time>
      </trkpt>
      <trkpt lat="44.8306" lon="5.07832">
        <ele>848.35</ele>
        <time>2017-11-28T10:39:32.000Z</time>
      </trkpt>
      <trkpt lat="44.83053" lon="5.07843">
        <ele>848.86</ele>
        <time>2017-11-28T10:39:42.000Z</time>
      </trkpt>
      <trkpt lat="44.83053" lon="5.07857">
        <ele>846.6</ele>
        <time>2017-11-28T10:39:52.000Z</time>
      </trkpt>
      <trkpt lat="44.83047" lon="5.07866">
        <ele>846.78</ele>
        <time>2017-11-28T10:40:02.000Z</time>
      </trkpt>
      <trkpt lat="44.83042" lon="5.07882">
        <ele>845.42</ele>
        <time>2017-11-28T10:40:12.000Z</time>
      </trkpt>
      <trkpt lat="44.8304" lon="5.07895">
        <ele>843.95</ele>
        <time>2017-11-28T10:40:22.000Z</time>
      </trkpt>
      <trkpt lat="44.83037" lon="5.07906">
        <ele>842.76</ele>
        <time>2017-11-28T10:40:32.000Z</time>
      </trkpt>
      <trkpt lat="44.83034" lon="5.07911">
        <ele>842.7</ele>
        <time>2017-11-28T10:40:42.000Z</time>
      </trkpt>
      <trkpt lat="44.83035" lon="5.07913">
        <ele>842.29</ele>
        <time>2017-11-28T10:40:52.000Z</time>
      </trkpt>
      <trkpt lat="44.83037" lon="5.07926">
        <ele>839.79</ele>
        <time>2017-11-28T10:41:02.000Z</time>
      </trkpt>
      <trkpt lat="44.83035" lon="5.07934">
        <ele>838.92</ele>
        <time>2017-11-28T10:41:12.000Z</time>
      </trkpt>
      <trkpt lat="44.83035" lon="5.07942">
        <ele>837.89</ele>
        <time>2017-11-28T10:41:22.000Z</time>
      </trkpt>
      <trkpt lat="44.83038" lon="5.07954">
        <ele>835.58</ele>
        <time>2017-11-28T10:41:32.000Z</time>
      </trkpt>
      <trkpt lat="44.83039" lon="5.07959">
        <ele>834.94</ele>
        <time>2017-11-28T10:41:42.000Z</time>
      </trkpt>
      <trkpt lat="44.83042" lon="5.07968">
        <ele>833.03</ele>
        <time>2017-11-28T10:41:52.000Z</time>
      </trkpt>
      <trkpt lat="44.83043" lon="5.07975">
        <ele>831.87</ele>
        <time>2017-11-28T10:42:02.000Z</time>
      </trkpt>
      <trkpt lat="44.83046" lon="5.07986">
        <ele>829.79</ele>
        <time>2017-11-28T10:42:12.000Z</time>
      </trkpt>
      <trkpt lat="44.83045" lon="5.07986">
        <ele>830.02</ele>
        <time>2017-11-28T10:42:23.000Z</time>
      </trkpt>
      <trkpt lat="44.83052" lon="5.07992">
        <ele>827.78</ele>
        <time>2017-11-28T10:42:33.000Z</time>
      </trkpt>
      <trkpt lat="44.83051" lon="5.07997">
        <ele>827.27</ele>
        <time>2017-11-28T10:42:43.000Z</time>
      </trkpt>
      <trkpt lat="44.83052" lon="5.07996">
        <ele>827.17</ele>
        <time>2017-11-28T10:42:53.000Z</time>
      </trkpt>
      <trkpt lat="44.83052" lon="5.07999">
        <ele>826.88</ele>
        <time>2017-11-28T10:43:52.000Z</time>
      </trkpt>
      <trkpt lat="44.83055" lon="5.0801">
        <ele>824.91</ele>
        <time>2017-11-28T10:44:02.000Z</time>
      </trkpt>
      <trkpt lat="44.83055" lon="5.08019">
        <ele>823.6</ele>
        <time>2017-11-28T10:44:12.000Z</time>
      </trkpt>
      <trkpt lat="44.83054" lon="5.08022">
        <ele>823.71</ele>
        <time>2017-11-28T10:44:22.000Z</time>
      </trkpt>
      <trkpt lat="44.83056" lon="5.08024">
        <ele>822.79</ele>
        <time>2017-11-28T10:44:32.000Z</time>
      </trkpt>
      <trkpt lat="44.83059" lon="5.08028">
        <ele>821.65</ele>
        <time>2017-11-28T10:44:42.000Z</time>
      </trkpt>
      <trkpt lat="44.83059" lon="5.08031">
        <ele>821.18</ele>
        <time>2017-11-28T10:44:52.000Z</time>
      </trkpt>
      <trkpt lat="44.83062" lon="5.08042">
        <ele>818.94</ele>
        <time>2017-11-28T10:45:02.000Z</time>
      </trkpt>
      <trkpt lat="44.83061" lon="5.08055">
        <ele>817.76</ele>
        <time>2017-11-28T10:45:12.000Z</time>
      </trkpt>
      <trkpt lat="44.83068" lon="5.08068">
        <ele>814.39</ele>
        <time>2017-11-28T10:45:22.000Z</time>
      </trkpt>
      <trkpt lat="44.83073" lon="5.08076">
        <ele>811.71</ele>
        <time>2017-11-28T10:45:32.000Z</time>
      </trkpt>
      <trkpt lat="44.83074" lon="5.08091">
        <ele>809.91</ele>
        <time>2017-11-28T10:45:42.000Z</time>
      </trkpt>
      <trkpt lat="44.83074" lon="5.08104">
        <ele>808.58</ele>
        <time>2017-11-28T10:45:52.000Z</time>
      </trkpt>
      <trkpt lat="44.83077" lon="5.08117">
        <ele>806.14</ele>
        <time>2017-11-28T10:46:02.000Z</time>
      </trkpt>
      <trkpt lat="44.83073" lon="5.08134">
        <ele>806.05</ele>
        <time>2017-11-28T10:46:12.000Z</time>
      </trkpt>
      <trkpt lat="44.83068" lon="5.08144">
        <ele>806.22</ele>
        <time>2017-11-28T10:46:22.000Z</time>
      </trkpt>
      <trkpt lat="44.8307" lon="5.0815">
        <ele>805.2</ele>
        <time>2017-11-28T10:46:32.000Z</time>
      </trkpt>
      <trkpt lat="44.83071" lon="5.08161">
        <ele>803.96</ele>
        <time>2017-11-28T10:46:42.000Z</time>
      </trkpt>
      <trkpt lat="44.83074" lon="5.08172">
        <ele>802.18</ele>
        <time>2017-11-28T10:46:52.000Z</time>
      </trkpt>
      <trkpt lat="44.83083" lon="5.08185">
        <ele>798.55</ele>
        <time>2017-11-28T10:47:02.000Z</time>
      </trkpt>
      <trkpt lat="44.83082" lon="5.08191">
        <ele>798.25</ele>
        <time>2017-11-28T10:47:12.000Z</time>
      </trkpt>
      <trkpt lat="44.83087" lon="5.08199">
        <ele>795.96</ele>
        <time>2017-11-28T10:47:22.000Z</time>
      </trkpt>
      <trkpt lat="44.83092" lon="5.08211">
        <ele>793.46</ele>
        <time>2017-11-28T10:47:32.000Z</time>
      </trkpt>
      <trkpt lat="44.83094" lon="5.08224">
        <ele>791.53</ele>
        <time>2017-11-28T10:47:42.000Z</time>
      </trkpt>
      <trkpt lat="44.83097" lon="5.08232">
        <ele>790.32</ele>
        <time>2017-11-28T10:47:52.000Z</time>
      </trkpt>
      <trkpt lat="44.83098" lon="5.08231">
        <ele>789.95</ele>
        <time>2017-11-28T10:48:02.000Z</time>
      </trkpt>
      <trkpt lat="44.831" lon="5.08235">
        <ele>789.13</ele>
        <time>2017-11-28T10:48:12.000Z</time>
      </trkpt>
      <trkpt lat="44.83103" lon="5.08237">
        <ele>788.07</ele>
        <time>2017-11-28T10:48:22.000Z</time>
      </trkpt>
      <trkpt lat="44.83097" lon="5.08234">
        <ele>790.05</ele>
        <time>2017-11-28T10:48:32.000Z</time>
      </trkpt>
      <trkpt lat="44.83097" lon="5.08231">
        <ele>790.19</ele>
        <time>2017-11-28T10:48:42.000Z</time>
      </trkpt>
      <trkpt lat="44.83096" lon="5.08235">
        <ele>790.48</ele>
        <time>2017-11-28T10:48:52.000Z</time>
      </trkpt>
      <trkpt lat="44.83095" lon="5.08248">
        <ele>790.02</ele>
        <time>2017-11-28T10:49:02.000Z</time>
      </trkpt>
      <trkpt lat="44.83102" lon="5.08261">
        <ele>787.92</ele>
        <time>2017-11-28T10:49:12.000Z</time>
      </trkpt>
      <trkpt lat="44.83102" lon="5.0827">
        <ele>788.13</ele>
        <time>2017-11-28T10:49:22.000Z</time>
      </trkpt>
      <trkpt lat="44.83102" lon="5.08284">
        <ele>788.58</ele>
        <time>2017-11-28T10:49:32.000Z</time>
      </trkpt>
      <trkpt lat="44.83107" lon="5.08296">
        <ele>788.08</ele>
        <time>2017-11-28T10:49:42.000Z</time>
      </trkpt>
      <trkpt lat="44.83112" lon="5.08307">
        <ele>787.95</ele>
        <time>2017-11-28T10:49:52.000Z</time>
      </trkpt>
      <trkpt lat="44.83118" lon="5.0832">
        <ele>787.6</ele>
        <time>2017-11-28T10:50:02.000Z</time>
      </trkpt>
      <trkpt lat="44.83117" lon="5.0833">
        <ele>788.19</ele>
        <time>2017-11-28T10:50:12.000Z</time>
      </trkpt>
      <trkpt lat="44.83126" lon="5.08341">
        <ele>787.18</ele>
        <time>2017-11-28T10:50:22.000Z</time>
      </trkpt>
      <trkpt lat="44.83133" lon="5.08352">
        <ele>786.27</ele>
        <time>2017-11-28T10:50:32.000Z</time>
      </trkpt>
      <trkpt lat="44.8314" lon="5.08365">
        <ele>785.39</ele>
        <time>2017-11-28T10:50:42.000Z</time>
      </trkpt>
      <trkpt lat="44.83145" lon="5.08379">
        <ele>784.62</ele>
        <time>2017-11-28T10:50:52.000Z</time>
      </trkpt>
      <trkpt lat="44.83154" lon="5.08388">
        <ele>783.71</ele>
        <time>2017-11-28T10:51:02.000Z</time>
      </trkpt>
      <trkpt lat="44.83159" lon="5.084">
        <ele>783.35</ele>
        <time>2017-11-28T10:51:12.000Z</time>
      </trkpt>
      <trkpt lat="44.83164" lon="5.0841">
        <ele>783.09</ele>
        <time>2017-11-28T10:51:22.000Z</time>
      </trkpt>
      <trkpt lat="44.83169" lon="5.08424">
        <ele>782.96</ele>
        <time>2017-11-28T10:51:32.000Z</time>
      </trkpt>
      <trkpt lat="44.8317" lon="5.08436">
        <ele>783</ele>
        <time>2017-11-28T10:51:42.000Z</time>
      </trkpt>
      <trkpt lat="44.83175" lon="5.08449">
        <ele>782.78</ele>
        <time>2017-11-28T10:51:52.000Z</time>
      </trkpt>
      <trkpt lat="44.83177" lon="5.08464">
        <ele>782.51</ele>
        <time>2017-11-28T10:52:02.000Z</time>
      </trkpt>
      <trkpt lat="44.83177" lon="5.0848">
        <ele>782.17</ele>
        <time>2017-11-28T10:52:12.000Z</time>
      </trkpt>
      <trkpt lat="44.83182" lon="5.08493">
        <ele>781.67</ele>
        <time>2017-11-28T10:52:22.000Z</time>
      </trkpt>
      <trkpt lat="44.83184" lon="5.08509">
        <ele>781.25</ele>
        <time>2017-11-28T10:52:32.000Z</time>
      </trkpt>
      <trkpt lat="44.8319" lon="5.08524">
        <ele>780.61</ele>
        <time>2017-11-28T10:52:42.000Z</time>
      </trkpt>
      <trkpt lat="44.83196" lon="5.08539">
        <ele>779.98</ele>
        <time>2017-11-28T10:52:52.000Z</time>
      </trkpt>
      <trkpt lat="44.83202" lon="5.08555">
        <ele>779.27</ele>
        <time>2017-11-28T10:53:02.000Z</time>
      </trkpt>
      <trkpt lat="44.83204" lon="5.0857">
        <ele>778.7</ele>
        <time>2017-11-28T10:53:12.000Z</time>
      </trkpt>
      <trkpt lat="44.83207" lon="5.08583">
        <ele>778.25</ele>
        <time>2017-11-28T10:53:22.000Z</time>
      </trkpt>
      <trkpt lat="44.83211" lon="5.08598">
        <ele>777.83</ele>
        <time>2017-11-28T10:53:32.000Z</time>
      </trkpt>
      <trkpt lat="44.83213" lon="5.08613">
        <ele>777.44</ele>
        <time>2017-11-28T10:53:42.000Z</time>
      </trkpt>
      <trkpt lat="44.8322" lon="5.08629">
        <ele>776.97</ele>
        <time>2017-11-28T10:53:52.000Z</time>
      </trkpt>
      <trkpt lat="44.83225" lon="5.08644">
        <ele>776.53</ele>
        <time>2017-11-28T10:54:02.000Z</time>
      </trkpt>
      <trkpt lat="44.83227" lon="5.08658">
        <ele>776.11</ele>
        <time>2017-11-28T10:54:12.000Z</time>
      </trkpt>
      <trkpt lat="44.83232" lon="5.08672">
        <ele>775.65</ele>
        <time>2017-11-28T10:54:22.000Z</time>
      </trkpt>
      <trkpt lat="44.83237" lon="5.08689">
        <ele>775.08</ele>
        <time>2017-11-28T10:54:32.000Z</time>
      </trkpt>
      <trkpt lat="44.83239" lon="5.08704">
        <ele>774.6</ele>
        <time>2017-11-28T10:54:42.000Z</time>
      </trkpt>
      <trkpt lat="44.83241" lon="5.08719">
        <ele>774.09</ele>
        <time>2017-11-28T10:54:52.000Z</time>
      </trkpt>
      <trkpt lat="44.83243" lon="5.08733">
        <ele>773.63</ele>
        <time>2017-11-28T10:55:02.000Z</time>
      </trkpt>
      <trkpt lat="44.83245" lon="5.08744">
        <ele>773.24</ele>
        <time>2017-11-28T10:55:12.000Z</time>
      </trkpt>
      <trkpt lat="44.83249" lon="5.08762">
        <ele>772.7</ele>
        <time>2017-11-28T10:55:22.000Z</time>
      </trkpt>
      <trkpt lat="44.83252" lon="5.08778">
        <ele>772.31</ele>
        <time>2017-11-28T10:55:32.000Z</time>
      </trkpt>
      <trkpt lat="44.83253" lon="5.08789">
        <ele>772.07</ele>
        <time>2017-11-28T10:55:42.000Z</time>
      </trkpt>
      <trkpt lat="44.8326" lon="5.08798">
        <ele>771.78</ele>
        <time>2017-11-28T10:55:52.000Z</time>
      </trkpt>
      <trkpt lat="44.83265" lon="5.0881">
        <ele>771.46</ele>
        <time>2017-11-28T10:56:02.000Z</time>
      </trkpt>
      <trkpt lat="44.83272" lon="5.08818">
        <ele>771.23</ele>
        <time>2017-11-28T10:56:12.000Z</time>
      </trkpt>
      <trkpt lat="44.83273" lon="5.08822">
        <ele>771.1</ele>
        <time>2017-11-28T10:56:22.000Z</time>
      </trkpt>
      <trkpt lat="44.83264" lon="5.08831">
        <ele>770.91</ele>
        <time>2017-11-28T10:56:32.000Z</time>
      </trkpt>
      <trkpt lat="44.83253" lon="5.08833">
        <ele>770.97</ele>
        <time>2017-11-28T10:56:42.000Z</time>
      </trkpt>
      <trkpt lat="44.83243" lon="5.08832">
        <ele>771.21</ele>
        <time>2017-11-28T10:56:52.000Z</time>
      </trkpt>
      <trkpt lat="44.83233" lon="5.08834">
        <ele>771.34</ele>
        <time>2017-11-28T10:57:02.000Z</time>
      </trkpt>
      <trkpt lat="44.83223" lon="5.0884">
        <ele>771.43</ele>
        <time>2017-11-28T10:57:12.000Z</time>
      </trkpt>
      <trkpt lat="44.83211" lon="5.08841">
        <ele>771.78</ele>
        <time>2017-11-28T10:57:22.000Z</time>
      </trkpt>
      <trkpt lat="44.832" lon="5.08839">
        <ele>772.27</ele>
        <time>2017-11-28T10:57:32.000Z</time>
      </trkpt>
      <trkpt lat="44.83191" lon="5.08841">
        <ele>772.56</ele>
        <time>2017-11-28T10:57:42.000Z</time>
      </trkpt>
      <trkpt lat="44.83182" lon="5.08839">
        <ele>773.03</ele>
        <time>2017-11-28T10:57:52.000Z</time>
      </trkpt>
      <trkpt lat="44.83171" lon="5.08842">
        <ele>773.38</ele>
        <time>2017-11-28T10:58:02.000Z</time>
      </trkpt>
      <trkpt lat="44.83162" lon="5.08847">
        <ele>773.55</ele>
        <time>2017-11-28T10:58:12.000Z</time>
      </trkpt>
      <trkpt lat="44.83151" lon="5.08846">
        <ele>774.14</ele>
        <time>2017-11-28T10:58:22.000Z</time>
      </trkpt>
      <trkpt lat="44.83142" lon="5.08845">
        <ele>774.66</ele>
        <time>2017-11-28T10:58:32.000Z</time>
      </trkpt>
      <trkpt lat="44.83136" lon="5.08843">
        <ele>775.1</ele>
        <time>2017-11-28T10:58:42.000Z</time>
      </trkpt>
      <trkpt lat="44.83128" lon="5.08839">
        <ele>775.83</ele>
        <time>2017-11-28T10:58:52.000Z</time>
      </trkpt>
      <trkpt lat="44.83124" lon="5.0883">
        <ele>776.55</ele>
        <time>2017-11-28T10:59:02.000Z</time>
      </trkpt>
      <trkpt lat="44.83117" lon="5.08821">
        <ele>777.34</ele>
        <time>2017-11-28T10:59:12.000Z</time>
      </trkpt>
      <trkpt lat="44.83111" lon="5.08815">
        <ele>777.93</ele>
        <time>2017-11-28T10:59:22.000Z</time>
      </trkpt>
      <trkpt lat="44.83106" lon="5.08802">
        <ele>778.59</ele>
        <time>2017-11-28T10:59:32.000Z</time>
      </trkpt>
      <trkpt lat="44.83099" lon="5.08794">
        <ele>779.23</ele>
        <time>2017-11-28T10:59:42.000Z</time>
      </trkpt>
      <trkpt lat="44.83093" lon="5.08784">
        <ele>779.74</ele>
        <time>2017-11-28T10:59:52.000Z</time>
      </trkpt>
      <trkpt lat="44.83086" lon="5.08778">
        <ele>780.22</ele>
        <time>2017-11-28T11:00:02.000Z</time>
      </trkpt>
      <trkpt lat="44.83079" lon="5.08772">
        <ele>780.69</ele>
        <time>2017-11-28T11:00:12.000Z</time>
      </trkpt>
      <trkpt lat="44.83073" lon="5.08762">
        <ele>781.12</ele>
        <time>2017-11-28T11:00:22.000Z</time>
      </trkpt>
      <trkpt lat="44.83066" lon="5.08752">
        <ele>781.65</ele>
        <time>2017-11-28T11:00:32.000Z</time>
      </trkpt>
      <trkpt lat="44.8306" lon="5.08742">
        <ele>782.24</ele>
        <time>2017-11-28T11:00:42.000Z</time>
      </trkpt>
      <trkpt lat="44.83054" lon="5.08731">
        <ele>782.99</ele>
        <time>2017-11-28T11:00:52.000Z</time>
      </trkpt>
      <trkpt lat="44.83046" lon="5.08723">
        <ele>783.73</ele>
        <time>2017-11-28T11:01:02.000Z</time>
      </trkpt>
      <trkpt lat="44.8304" lon="5.08714">
        <ele>784.48</ele>
        <time>2017-11-28T11:01:12.000Z</time>
      </trkpt>
      <trkpt lat="44.83033" lon="5.08706">
        <ele>785.23</ele>
        <time>2017-11-28T11:01:22.000Z</time>
      </trkpt>
      <trkpt lat="44.83026" lon="5.08694">
        <ele>786.33</ele>
        <time>2017-11-28T11:01:32.000Z</time>
      </trkpt>
      <trkpt lat="44.83019" lon="5.08683">
        <ele>787.28</ele>
        <time>2017-11-28T11:01:42.000Z</time>
      </trkpt>
      <trkpt lat="44.83011" lon="5.08673">
        <ele>788.22</ele>
        <time>2017-11-28T11:01:52.000Z</time>
      </trkpt>
      <trkpt lat="44.83003" lon="5.08663">
        <ele>789.06</ele>
        <time>2017-11-28T11:02:02.000Z</time>
      </trkpt>
      <trkpt lat="44.82995" lon="5.08654">
        <ele>789.8</ele>
        <time>2017-11-28T11:02:12.000Z</time>
      </trkpt>
      <trkpt lat="44.82988" lon="5.08642">
        <ele>790.62</ele>
        <time>2017-11-28T11:02:22.000Z</time>
      </trkpt>
      <trkpt lat="44.8298" lon="5.08633">
        <ele>791.31</ele>
        <time>2017-11-28T11:02:32.000Z</time>
      </trkpt>
      <trkpt lat="44.82975" lon="5.0862">
        <ele>792.02</ele>
        <time>2017-11-28T11:02:42.000Z</time>
      </trkpt>
      <trkpt lat="44.82965" lon="5.0861">
        <ele>792.7</ele>
        <time>2017-11-28T11:02:52.000Z</time>
      </trkpt>
      <trkpt lat="44.82957" lon="5.08601">
        <ele>793.25</ele>
        <time>2017-11-28T11:03:02.000Z</time>
      </trkpt>
      <trkpt lat="44.82952" lon="5.0859">
        <ele>793.77</ele>
        <time>2017-11-28T11:03:12.000Z</time>
      </trkpt>
      <trkpt lat="44.82945" lon="5.08579">
        <ele>794.26</ele>
        <time>2017-11-28T11:03:22.000Z</time>
      </trkpt>
      <trkpt lat="44.82938" lon="5.08571">
        <ele>794.67</ele>
        <time>2017-11-28T11:03:32.000Z</time>
      </trkpt>
      <trkpt lat="44.82931" lon="5.08562">
        <ele>795.12</ele>
        <time>2017-11-28T11:03:42.000Z</time>
      </trkpt>
      <trkpt lat="44.82925" lon="5.08553">
        <ele>795.55</ele>
        <time>2017-11-28T11:03:52.000Z</time>
      </trkpt>
      <trkpt lat="44.82918" lon="5.08543">
        <ele>796.07</ele>
        <time>2017-11-28T11:04:02.000Z</time>
      </trkpt>
      <trkpt lat="44.82909" lon="5.08532">
        <ele>796.68</ele>
        <time>2017-11-28T11:04:12.000Z</time>
      </trkpt>
      <trkpt lat="44.82904" lon="5.08518">
        <ele>797.23</ele>
        <time>2017-11-28T11:04:22.000Z</time>
      </trkpt>
      <trkpt lat="44.82897" lon="5.08508">
        <ele>797.75</ele>
        <time>2017-11-28T11:04:32.000Z</time>
      </trkpt>
      <trkpt lat="44.8289" lon="5.08497">
        <ele>798.25</ele>
        <time>2017-11-28T11:04:42.000Z</time>
      </trkpt>
      <trkpt lat="44.82883" lon="5.0849">
        <ele>798.72</ele>
        <time>2017-11-28T11:04:52.000Z</time>
      </trkpt>
      <trkpt lat="44.82876" lon="5.0848">
        <ele>799.24</ele>
        <time>2017-11-28T11:05:02.000Z</time>
      </trkpt>
      <trkpt lat="44.82869" lon="5.08469">
        <ele>799.81</ele>
        <time>2017-11-28T11:05:12.000Z</time>
      </trkpt>
      <trkpt lat="44.82861" lon="5.08456">
        <ele>800.53</ele>
        <time>2017-11-28T11:05:22.000Z</time>
      </trkpt>
      <trkpt lat="44.82854" lon="5.08445">
        <ele>801.1</ele>
        <time>2017-11-28T11:05:32.000Z</time>
      </trkpt>
      <trkpt lat="44.82845" lon="5.08435">
        <ele>801.82</ele>
        <time>2017-11-28T11:05:42.000Z</time>
      </trkpt>
      <trkpt lat="44.8284" lon="5.08424">
        <ele>802.4</ele>
        <time>2017-11-28T11:05:52.000Z</time>
      </trkpt>
      <trkpt lat="44.82833" lon="5.08415">
        <ele>803.1</ele>
        <time>2017-11-28T11:06:02.000Z</time>
      </trkpt>
      <trkpt lat="44.82827" lon="5.08405">
        <ele>803.74</ele>
        <time>2017-11-28T11:06:12.000Z</time>
      </trkpt>
      <trkpt lat="44.82821" lon="5.08394">
        <ele>804.37</ele>
        <time>2017-11-28T11:06:22.000Z</time>
      </trkpt>
      <trkpt lat="44.82816" lon="5.08385">
        <ele>804.93</ele>
        <time>2017-11-28T11:06:32.000Z</time>
      </trkpt>
      <trkpt lat="44.82811" lon="5.08378">
        <ele>805.51</ele>
        <time>2017-11-28T11:06:42.000Z</time>
      </trkpt>
      <trkpt lat="44.82801" lon="5.08368">
        <ele>806.53</ele>
        <time>2017-11-28T11:06:52.000Z</time>
      </trkpt>
      <trkpt lat="44.82795" lon="5.0836">
        <ele>807.22</ele>
        <time>2017-11-28T11:07:02.000Z</time>
      </trkpt>
      <trkpt lat="44.82787" lon="5.08357">
        <ele>807.93</ele>
        <time>2017-11-28T11:07:12.000Z</time>
      </trkpt>
      <trkpt lat="44.8278" lon="5.0835">
        <ele>808.68</ele>
        <time>2017-11-28T11:07:22.000Z</time>
      </trkpt>
      <trkpt lat="44.82773" lon="5.08348">
        <ele>809.39</ele>
        <time>2017-11-28T11:07:32.000Z</time>
      </trkpt>
      <trkpt lat="44.82765" lon="5.08342">
        <ele>810.27</ele>
        <time>2017-11-28T11:07:42.000Z</time>
      </trkpt>
      <trkpt lat="44.82756" lon="5.08334">
        <ele>811.4</ele>
        <time>2017-11-28T11:07:52.000Z</time>
      </trkpt>
      <trkpt lat="44.82748" lon="5.08332">
        <ele>812.32</ele>
        <time>2017-11-28T11:08:02.000Z</time>
      </trkpt>
      <trkpt lat="44.82742" lon="5.08324">
        <ele>813.29</ele>
        <time>2017-11-28T11:08:12.000Z</time>
      </trkpt>
      <trkpt lat="44.82734" lon="5.08319">
        <ele>814.49</ele>
        <time>2017-11-28T11:08:22.000Z</time>
      </trkpt>
      <trkpt lat="44.82727" lon="5.08311">
        <ele>815.75</ele>
        <time>2017-11-28T11:08:32.000Z</time>
      </trkpt>
      <trkpt lat="44.8272" lon="5.08306">
        <ele>817.09</ele>
        <time>2017-11-28T11:08:42.000Z</time>
      </trkpt>
      <trkpt lat="44.82715" lon="5.08301">
        <ele>818.05</ele>
        <time>2017-11-28T11:08:52.000Z</time>
      </trkpt>
      <trkpt lat="44.8271" lon="5.08296">
        <ele>819.07</ele>
        <time>2017-11-28T11:09:02.000Z</time>
      </trkpt>
      <trkpt lat="44.82704" lon="5.08291">
        <ele>820.24</ele>
        <time>2017-11-28T11:09:12.000Z</time>
      </trkpt>
      <trkpt lat="44.82695" lon="5.08288">
        <ele>821.61</ele>
        <time>2017-11-28T11:09:22.000Z</time>
      </trkpt>
      <trkpt lat="44.82689" lon="5.08283">
        <ele>822.76</ele>
        <time>2017-11-28T11:09:32.000Z</time>
      </trkpt>
      <trkpt lat="44.82684" lon="5.08279">
        <ele>823.46</ele>
        <time>2017-11-28T11:09:42.000Z</time>
      </trkpt>
      <trkpt lat="44.82678" lon="5.08278">
        <ele>824.21</ele>
        <time>2017-11-28T11:09:52.000Z</time>
      </trkpt>
      <trkpt lat="44.82675" lon="5.08274">
        <ele>824.72</ele>
        <time>2017-11-28T11:10:02.000Z</time>
      </trkpt>
      <trkpt lat="44.82665" lon="5.0827">
        <ele>825.68</ele>
        <time>2017-11-28T11:10:12.000Z</time>
      </trkpt>
      <trkpt lat="44.82657" lon="5.08268">
        <ele>826.26</ele>
        <time>2017-11-28T11:10:22.000Z</time>
      </trkpt>
      <trkpt lat="44.82649" lon="5.08264">
        <ele>826.71</ele>
        <time>2017-11-28T11:10:32.000Z</time>
      </trkpt>
      <trkpt lat="44.82639" lon="5.0826">
        <ele>827.07</ele>
        <time>2017-11-28T11:10:42.000Z</time>
      </trkpt>
      <trkpt lat="44.82631" lon="5.08262">
        <ele>827.16</ele>
        <time>2017-11-28T11:10:52.000Z</time>
      </trkpt>
      <trkpt lat="44.82623" lon="5.08252">
        <ele>827.47</ele>
        <time>2017-11-28T11:11:02.000Z</time>
      </trkpt>
      <trkpt lat="44.82616" lon="5.08249">
        <ele>827.6</ele>
        <time>2017-11-28T11:11:12.000Z</time>
      </trkpt>
      <trkpt lat="44.82605" lon="5.08249">
        <ele>827.66</ele>
        <time>2017-11-28T11:11:22.000Z</time>
      </trkpt>
      <trkpt lat="44.82595" lon="5.08245">
        <ele>827.89</ele>
        <time>2017-11-28T11:11:32.000Z</time>
      </trkpt>
      <trkpt lat="44.82585" lon="5.08243">
        <ele>828.16</ele>
        <time>2017-11-28T11:11:42.000Z</time>
      </trkpt>
      <trkpt lat="44.82574" lon="5.08241">
        <ele>828.59</ele>
        <time>2017-11-28T11:11:52.000Z</time>
      </trkpt>
      <trkpt lat="44.82563" lon="5.08244">
        <ele>828.91</ele>
        <time>2017-11-28T11:12:02.000Z</time>
      </trkpt>
      <trkpt lat="44.82552" lon="5.08245">
        <ele>829.33</ele>
        <time>2017-11-28T11:12:12.000Z</time>
      </trkpt>
      <trkpt lat="44.82541" lon="5.08241">
        <ele>829.96</ele>
        <time>2017-11-28T11:12:22.000Z</time>
      </trkpt>
      <trkpt lat="44.82532" lon="5.08233">
        <ele>830.78</ele>
        <time>2017-11-28T11:12:32.000Z</time>
      </trkpt>
      <trkpt lat="44.82522" lon="5.0823">
        <ele>831.44</ele>
        <time>2017-11-28T11:12:42.000Z</time>
      </trkpt>
      <trkpt lat="44.82513" lon="5.08226">
        <ele>832.15</ele>
        <time>2017-11-28T11:12:52.000Z</time>
      </trkpt>
      <trkpt lat="44.82502" lon="5.08221">
        <ele>832.93</ele>
        <time>2017-11-28T11:13:02.000Z</time>
      </trkpt>
      <trkpt lat="44.82493" lon="5.08216">
        <ele>833.58</ele>
        <time>2017-11-28T11:13:12.000Z</time>
      </trkpt>
      <trkpt lat="44.82486" lon="5.08209">
        <ele>834.34</ele>
        <time>2017-11-28T11:13:22.000Z</time>
      </trkpt>
      <trkpt lat="44.82479" lon="5.082">
        <ele>835.09</ele>
        <time>2017-11-28T11:13:32.000Z</time>
      </trkpt>
      <trkpt lat="44.8247" lon="5.08194">
        <ele>835.73</ele>
        <time>2017-11-28T11:13:42.000Z</time>
      </trkpt>
      <trkpt lat="44.82462" lon="5.08191">
        <ele>836.15</ele>
        <time>2017-11-28T11:13:52.000Z</time>
      </trkpt>
      <trkpt lat="44.82453" lon="5.08186">
        <ele>836.71</ele>
        <time>2017-11-28T11:14:02.000Z</time>
      </trkpt>
      <trkpt lat="44.82445" lon="5.0818">
        <ele>837.29</ele>
        <time>2017-11-28T11:14:12.000Z</time>
      </trkpt>
      <trkpt lat="44.82416" lon="5.08144">
        <ele>839.67</ele>
        <time>2017-11-28T11:14:48.000Z</time>
      </trkpt>
      <trkpt lat="44.82411" lon="5.08146">
        <ele>839.9</ele>
        <time>2017-11-28T11:14:58.000Z</time>
      </trkpt>
      <trkpt lat="44.82404" lon="5.08147">
        <ele>840.2</ele>
        <time>2017-11-28T11:15:08.000Z</time>
      </trkpt>
      <trkpt lat="44.82397" lon="5.08144">
        <ele>840.64</ele>
        <time>2017-11-28T11:15:18.000Z</time>
      </trkpt>
      <trkpt lat="44.82381" lon="5.08147">
        <ele>841.4</ele>
        <time>2017-11-28T11:15:36.000Z</time>
      </trkpt>
      <trkpt lat="44.8237" lon="5.08143">
        <ele>841.98</ele>
        <time>2017-11-28T11:15:46.000Z</time>
      </trkpt>
      <trkpt lat="44.82359" lon="5.0815">
        <ele>842.35</ele>
        <time>2017-11-28T11:15:56.000Z</time>
      </trkpt>
      <trkpt lat="44.82349" lon="5.08157">
        <ele>842.69</ele>
        <time>2017-11-28T11:16:06.000Z</time>
      </trkpt>
      <trkpt lat="44.82334" lon="5.08158">
        <ele>843.31</ele>
        <time>2017-11-28T11:16:16.000Z</time>
      </trkpt>
      <trkpt lat="44.82326" lon="5.08159">
        <ele>843.64</ele>
        <time>2017-11-28T11:16:26.000Z</time>
      </trkpt>
      <trkpt lat="44.82315" lon="5.0816">
        <ele>844.06</ele>
        <time>2017-11-28T11:16:36.000Z</time>
      </trkpt>
      <trkpt lat="44.82305" lon="5.08161">
        <ele>844.4</ele>
        <time>2017-11-28T11:16:46.000Z</time>
      </trkpt>
      <trkpt lat="44.82295" lon="5.08159">
        <ele>844.89</ele>
        <time>2017-11-28T11:16:56.000Z</time>
      </trkpt>
      <trkpt lat="44.82285" lon="5.08159">
        <ele>845.3</ele>
        <time>2017-11-28T11:17:06.000Z</time>
      </trkpt>
      <trkpt lat="44.82274" lon="5.08159">
        <ele>845.66</ele>
        <time>2017-11-28T11:17:16.000Z</time>
      </trkpt>
      <trkpt lat="44.82265" lon="5.08155">
        <ele>846.23</ele>
        <time>2017-11-28T11:17:26.000Z</time>
      </trkpt>
      <trkpt lat="44.82255" lon="5.08158">
        <ele>846.47</ele>
        <time>2017-11-28T11:17:36.000Z</time>
      </trkpt>
      <trkpt lat="44.82247" lon="5.08155">
        <ele>846.93</ele>
        <time>2017-11-28T11:17:46.000Z</time>
      </trkpt>
      <trkpt lat="44.8224" lon="5.08157">
        <ele>847.09</ele>
        <time>2017-11-28T11:17:56.000Z</time>
      </trkpt>
      <trkpt lat="44.82223" lon="5.08151">
        <ele>848.07</ele>
        <time>2017-11-28T11:18:06.000Z</time>
      </trkpt>
      <trkpt lat="44.82214" lon="5.08147">
        <ele>848.62</ele>
        <time>2017-11-28T11:18:16.000Z</time>
      </trkpt>
      <trkpt lat="44.82203" lon="5.08145">
        <ele>849.12</ele>
        <time>2017-11-28T11:18:26.000Z</time>
      </trkpt>
      <trkpt lat="44.82196" lon="5.08153">
        <ele>848.94</ele>
        <time>2017-11-28T11:18:36.000Z</time>
      </trkpt>
      <trkpt lat="44.8219" lon="5.08158">
        <ele>848.83</ele>
        <time>2017-11-28T11:18:46.000Z</time>
      </trkpt>
      <trkpt lat="44.8219" lon="5.08155">
        <ele>848.98</ele>
        <time>2017-11-28T11:18:56.000Z</time>
      </trkpt>
      <trkpt lat="44.82179" lon="5.08163">
        <ele>848.86</ele>
        <time>2017-11-28T11:19:06.000Z</time>
      </trkpt>
      <trkpt lat="44.82166" lon="5.08171">
        <ele>848.69</ele>
        <time>2017-11-28T11:19:16.000Z</time>
      </trkpt>
      <trkpt lat="44.82157" lon="5.08178">
        <ele>848.42</ele>
        <time>2017-11-28T11:19:26.000Z</time>
      </trkpt>
      <trkpt lat="44.82152" lon="5.0818">
        <ele>848.45</ele>
        <time>2017-11-28T11:19:36.000Z</time>
      </trkpt>
      <trkpt lat="44.82137" lon="5.08182">
        <ele>848.75</ele>
        <time>2017-11-28T11:19:46.000Z</time>
      </trkpt>
      <trkpt lat="44.82123" lon="5.08182">
        <ele>849.24</ele>
        <time>2017-11-28T11:19:56.000Z</time>
      </trkpt>
      <trkpt lat="44.82115" lon="5.08177">
        <ele>849.97</ele>
        <time>2017-11-28T11:20:06.000Z</time>
      </trkpt>
      <trkpt lat="44.8211" lon="5.08166">
        <ele>851.36</ele>
        <time>2017-11-28T11:20:16.000Z</time>
      </trkpt>
      <trkpt lat="44.82107" lon="5.08149">
        <ele>853.32</ele>
        <time>2017-11-28T11:20:26.000Z</time>
      </trkpt>
      <trkpt lat="44.82101" lon="5.08143">
        <ele>854.33</ele>
        <time>2017-11-28T11:20:36.000Z</time>
      </trkpt>
      <trkpt lat="44.82097" lon="5.08133">
        <ele>855.72</ele>
        <time>2017-11-28T11:20:46.000Z</time>
      </trkpt>
      <trkpt lat="44.82091" lon="5.08125">
        <ele>857.02</ele>
        <time>2017-11-28T11:20:56.000Z</time>
      </trkpt>
      <trkpt lat="44.82086" lon="5.08115">
        <ele>858.46</ele>
        <time>2017-11-28T11:21:06.000Z</time>
      </trkpt>
      <trkpt lat="44.82082" lon="5.0811">
        <ele>859.16</ele>
        <time>2017-11-28T11:21:16.000Z</time>
      </trkpt>
      <trkpt lat="44.82086" lon="5.08116">
        <ele>858.3</ele>
        <time>2017-11-28T11:21:26.000Z</time>
      </trkpt>
      <trkpt lat="44.82083" lon="5.08124">
        <ele>857.44</ele>
        <time>2017-11-28T11:21:36.000Z</time>
      </trkpt>
      <trkpt lat="44.82086" lon="5.08121">
        <ele>857.68</ele>
        <time>2017-11-28T11:21:46.000Z</time>
      </trkpt>
      <trkpt lat="44.82087" lon="5.08118">
        <ele>858.01</ele>
        <time>2017-11-28T11:21:56.000Z</time>
      </trkpt>
      <trkpt lat="44.82078" lon="5.08113">
        <ele>859.03</ele>
        <time>2017-11-28T11:22:06.000Z</time>
      </trkpt>
      <trkpt lat="44.8207" lon="5.08105">
        <ele>860.29</ele>
        <time>2017-11-28T11:22:16.000Z</time>
      </trkpt>
      <trkpt lat="44.82063" lon="5.081">
        <ele>861.12</ele>
        <time>2017-11-28T11:22:26.000Z</time>
      </trkpt>
      <trkpt lat="44.82053" lon="5.08098">
        <ele>861.65</ele>
        <time>2017-11-28T11:22:36.000Z</time>
      </trkpt>
      <trkpt lat="44.82046" lon="5.08098">
        <ele>861.87</ele>
        <time>2017-11-28T11:22:46.000Z</time>
      </trkpt>
      <trkpt lat="44.82052" lon="5.0809">
        <ele>862.68</ele>
        <time>2017-11-28T11:22:56.000Z</time>
      </trkpt>
      <trkpt lat="44.82053" lon="5.08094">
        <ele>862.21</ele>
        <time>2017-11-28T11:23:06.000Z</time>
      </trkpt>
      <trkpt lat="44.82043" lon="5.08097">
        <ele>862.06</ele>
        <time>2017-11-28T11:23:16.000Z</time>
      </trkpt>
      <trkpt lat="44.8204" lon="5.08097">
        <ele>862.03</ele>
        <time>2017-11-28T11:23:39.000Z</time>
      </trkpt>
      <trkpt lat="44.82029" lon="5.08092">
        <ele>862.86</ele>
        <time>2017-11-28T11:23:49.000Z</time>
      </trkpt>
      <trkpt lat="44.82029" lon="5.08089">
        <ele>863.19</ele>
        <time>2017-11-28T11:23:59.000Z</time>
      </trkpt>
      <trkpt lat="44.82024" lon="5.0809">
        <ele>863.18</ele>
        <time>2017-11-28T11:24:58.000Z</time>
      </trkpt>
      <trkpt lat="44.82008" lon="5.08088">
        <ele>863.37</ele>
        <time>2017-11-28T11:25:08.000Z</time>
      </trkpt>
      <trkpt lat="44.81998" lon="5.08087">
        <ele>863.5</ele>
        <time>2017-11-28T11:25:18.000Z</time>
      </trkpt>
      <trkpt lat="44.81988" lon="5.0808">
        <ele>864.28</ele>
        <time>2017-11-28T11:25:28.000Z</time>
      </trkpt>
      <trkpt lat="44.8198" lon="5.0807">
        <ele>865.44</ele>
        <time>2017-11-28T11:25:38.000Z</time>
      </trkpt>
      <trkpt lat="44.81974" lon="5.08063">
        <ele>866.02</ele>
        <time>2017-11-28T11:25:48.000Z</time>
      </trkpt>
      <trkpt lat="44.81968" lon="5.08052">
        <ele>867.38</ele>
        <time>2017-11-28T11:25:58.000Z</time>
      </trkpt>
      <trkpt lat="44.81961" lon="5.08043">
        <ele>868.22</ele>
        <time>2017-11-28T11:26:08.000Z</time>
      </trkpt>
      <trkpt lat="44.81955" lon="5.08036">
        <ele>869.06</ele>
        <time>2017-11-28T11:26:18.000Z</time>
      </trkpt>
      <trkpt lat="44.81948" lon="5.0803">
        <ele>869.49</ele>
        <time>2017-11-28T11:26:28.000Z</time>
      </trkpt>
      <trkpt lat="44.81937" lon="5.08028">
        <ele>869.5</ele>
        <time>2017-11-28T11:26:38.000Z</time>
      </trkpt>
      <trkpt lat="44.81933" lon="5.08026">
        <ele>869.54</ele>
        <time>2017-11-28T11:26:48.000Z</time>
      </trkpt>
      <trkpt lat="44.81922" lon="5.08023">
        <ele>869.76</ele>
        <time>2017-11-28T11:26:58.000Z</time>
      </trkpt>
      <trkpt lat="44.81914" lon="5.08016">
        <ele>870.54</ele>
        <time>2017-11-28T11:27:08.000Z</time>
      </trkpt>
      <trkpt lat="44.81903" lon="5.0801">
        <ele>871.09</ele>
        <time>2017-11-28T11:27:18.000Z</time>
      </trkpt>
      <trkpt lat="44.81898" lon="5.07998">
        <ele>872.63</ele>
        <time>2017-11-28T11:27:28.000Z</time>
      </trkpt>
      <trkpt lat="44.81894" lon="5.07985">
        <ele>874.42</ele>
        <time>2017-11-28T11:27:38.000Z</time>
      </trkpt>
      <trkpt lat="44.81886" lon="5.07978">
        <ele>875.09</ele>
        <time>2017-11-28T11:27:48.000Z</time>
      </trkpt>
      <trkpt lat="44.81877" lon="5.07974">
        <ele>875.22</ele>
        <time>2017-11-28T11:27:58.000Z</time>
      </trkpt>
      <trkpt lat="44.81869" lon="5.07969">
        <ele>875.42</ele>
        <time>2017-11-28T11:28:08.000Z</time>
      </trkpt>
      <trkpt lat="44.81861" lon="5.07964">
        <ele>875.5</ele>
        <time>2017-11-28T11:28:18.000Z</time>
      </trkpt>
      <trkpt lat="44.81852" lon="5.07957">
        <ele>876.01</ele>
        <time>2017-11-28T11:28:28.000Z</time>
      </trkpt>
      <trkpt lat="44.81844" lon="5.07946">
        <ele>877.12</ele>
        <time>2017-11-28T11:28:38.000Z</time>
      </trkpt>
      <trkpt lat="44.81836" lon="5.07936">
        <ele>878.3</ele>
        <time>2017-11-28T11:28:48.000Z</time>
      </trkpt>
      <trkpt lat="44.81827" lon="5.07933">
        <ele>878.67</ele>
        <time>2017-11-28T11:28:58.000Z</time>
      </trkpt>
      <trkpt lat="44.81819" lon="5.07929">
        <ele>879.34</ele>
        <time>2017-11-28T11:29:08.000Z</time>
      </trkpt>
      <trkpt lat="44.8181" lon="5.07924">
        <ele>880.47</ele>
        <time>2017-11-28T11:29:18.000Z</time>
      </trkpt>
      <trkpt lat="44.81799" lon="5.07924">
        <ele>880.95</ele>
        <time>2017-11-28T11:29:28.000Z</time>
      </trkpt>
      <trkpt lat="44.81792" lon="5.07925">
        <ele>881.24</ele>
        <time>2017-11-28T11:29:38.000Z</time>
      </trkpt>
      <trkpt lat="44.81784" lon="5.07928">
        <ele>881.35</ele>
        <time>2017-11-28T11:29:48.000Z</time>
      </trkpt>
      <trkpt lat="44.81776" lon="5.07932">
        <ele>881.27</ele>
        <time>2017-11-28T11:29:58.000Z</time>
      </trkpt>
      <trkpt lat="44.81771" lon="5.07931">
        <ele>881.68</ele>
        <time>2017-11-28T11:30:08.000Z</time>
      </trkpt>
      <trkpt lat="44.81768" lon="5.07932">
        <ele>881.73</ele>
        <time>2017-11-28T11:30:18.000Z</time>
      </trkpt>
      <trkpt lat="44.81766" lon="5.07924">
        <ele>883.04</ele>
        <time>2017-11-28T11:30:28.000Z</time>
      </trkpt>
      <trkpt lat="44.81752" lon="5.07928">
        <ele>883.15</ele>
        <time>2017-11-28T11:30:38.000Z</time>
      </trkpt>
      <trkpt lat="44.81741" lon="5.07925">
        <ele>883.82</ele>
        <time>2017-11-28T11:30:48.000Z</time>
      </trkpt>
      <trkpt lat="44.81735" lon="5.07921">
        <ele>884.76</ele>
        <time>2017-11-28T11:30:58.000Z</time>
      </trkpt>
      <trkpt lat="44.81736" lon="5.07907">
        <ele>887.15</ele>
        <time>2017-11-28T11:31:08.000Z</time>
      </trkpt>
      <trkpt lat="44.81722" lon="5.07908">
        <ele>887.24</ele>
        <time>2017-11-28T11:31:18.000Z</time>
      </trkpt>
      <trkpt lat="44.81718" lon="5.07904">
        <ele>888.01</ele>
        <time>2017-11-28T11:31:28.000Z</time>
      </trkpt>
      <trkpt lat="44.81711" lon="5.07893">
        <ele>890.07</ele>
        <time>2017-11-28T11:31:38.000Z</time>
      </trkpt>
      <trkpt lat="44.81704" lon="5.07889">
        <ele>890.76</ele>
        <time>2017-11-28T11:31:48.000Z</time>
      </trkpt>
      <trkpt lat="44.81696" lon="5.07883">
        <ele>891.96</ele>
        <time>2017-11-28T11:31:58.000Z</time>
      </trkpt>
      <trkpt lat="44.81694" lon="5.07872">
        <ele>893.91</ele>
        <time>2017-11-28T11:32:08.000Z</time>
      </trkpt>
      <trkpt lat="44.81687" lon="5.07872">
        <ele>893.83</ele>
        <time>2017-11-28T11:32:18.000Z</time>
      </trkpt>
      <trkpt lat="44.81693" lon="5.0787">
        <ele>894.36</ele>
        <time>2017-11-28T11:32:28.000Z</time>
      </trkpt>
      <trkpt lat="44.81693" lon="5.07862">
        <ele>895.79</ele>
        <time>2017-11-28T11:32:38.000Z</time>
      </trkpt>
      <trkpt lat="44.81696" lon="5.07865">
        <ele>895.27</ele>
        <time>2017-11-28T11:32:48.000Z</time>
      </trkpt>
      <trkpt lat="44.81697" lon="5.07867">
        <ele>894.95</ele>
        <time>2017-11-28T11:32:58.000Z</time>
      </trkpt>
      <trkpt lat="44.81689" lon="5.0787">
        <ele>894.24</ele>
        <time>2017-11-28T11:33:18.000Z</time>
      </trkpt>
      <trkpt lat="44.81689" lon="5.07869">
        <ele>894.48</ele>
        <time>2017-11-28T11:33:28.000Z</time>
      </trkpt>
      <trkpt lat="44.81682" lon="5.07864">
        <ele>895.31</ele>
        <time>2017-11-28T11:33:38.000Z</time>
      </trkpt>
      <trkpt lat="44.81676" lon="5.07854">
        <ele>897.15</ele>
        <time>2017-11-28T11:33:48.000Z</time>
      </trkpt>
      <trkpt lat="44.81669" lon="5.07847">
        <ele>898.4</ele>
        <time>2017-11-28T11:33:58.000Z</time>
      </trkpt>
      <trkpt lat="44.81666" lon="5.0784">
        <ele>899.72</ele>
        <time>2017-11-28T11:34:08.000Z</time>
      </trkpt>
      <trkpt lat="44.81656" lon="5.07833">
        <ele>900.59</ele>
        <time>2017-11-28T11:34:18.000Z</time>
      </trkpt>
      <trkpt lat="44.81651" lon="5.07823">
        <ele>902.44</ele>
        <time>2017-11-28T11:34:28.000Z</time>
      </trkpt>
      <trkpt lat="44.81645" lon="5.07817">
        <ele>903.34</ele>
        <time>2017-11-28T11:34:38.000Z</time>
      </trkpt>
      <trkpt lat="44.81641" lon="5.07808">
        <ele>904.87</ele>
        <time>2017-11-28T11:34:48.000Z</time>
      </trkpt>
      <trkpt lat="44.81636" lon="5.07802">
        <ele>905.84</ele>
        <time>2017-11-28T11:34:58.000Z</time>
      </trkpt>
      <trkpt lat="44.81632" lon="5.07797">
        <ele>906.53</ele>
        <time>2017-11-28T11:35:08.000Z</time>
      </trkpt>
      <trkpt lat="44.81625" lon="5.07789">
        <ele>907.66</ele>
        <time>2017-11-28T11:35:18.000Z</time>
      </trkpt>
      <trkpt lat="44.8162" lon="5.0778">
        <ele>909.12</ele>
        <time>2017-11-28T11:35:28.000Z</time>
      </trkpt>
      <trkpt lat="44.81612" lon="5.07774">
        <ele>909.59</ele>
        <time>2017-11-28T11:35:38.000Z</time>
      </trkpt>
      <trkpt lat="44.81607" lon="5.07766">
        <ele>910.78</ele>
        <time>2017-11-28T11:35:48.000Z</time>
      </trkpt>
      <trkpt lat="44.81601" lon="5.07755">
        <ele>912.42</ele>
        <time>2017-11-28T11:35:58.000Z</time>
      </trkpt>
      <trkpt lat="44.81594" lon="5.07747">
        <ele>913.85</ele>
        <time>2017-11-28T11:36:08.000Z</time>
      </trkpt>
      <trkpt lat="44.81591" lon="5.07742">
        <ele>914.66</ele>
        <time>2017-11-28T11:36:18.000Z</time>
      </trkpt>
      <trkpt lat="44.81586" lon="5.07738">
        <ele>915.51</ele>
        <time>2017-11-28T11:36:28.000Z</time>
      </trkpt>
      <trkpt lat="44.81578" lon="5.07733">
        <ele>916.79</ele>
        <time>2017-11-28T11:36:38.000Z</time>
      </trkpt>
      <trkpt lat="44.81572" lon="5.07726">
        <ele>918.5</ele>
        <time>2017-11-28T11:36:48.000Z</time>
      </trkpt>
      <trkpt lat="44.81567" lon="5.07722">
        <ele>919.78</ele>
        <time>2017-11-28T11:36:58.000Z</time>
      </trkpt>
      <trkpt lat="44.81555" lon="5.07718">
        <ele>921.62</ele>
        <time>2017-11-28T11:37:08.000Z</time>
      </trkpt>
      <trkpt lat="44.81548" lon="5.07714">
        <ele>923.45</ele>
        <time>2017-11-28T11:37:18.000Z</time>
      </trkpt>
      <trkpt lat="44.81547" lon="5.07714">
        <ele>923.62</ele>
        <time>2017-11-28T11:37:28.000Z</time>
      </trkpt>
      <trkpt lat="44.81544" lon="5.07714">
        <ele>924</ele>
        <time>2017-11-28T11:37:57.000Z</time>
      </trkpt>
      <trkpt lat="44.81534" lon="5.0771">
        <ele>926.31</ele>
        <time>2017-11-28T11:38:07.000Z</time>
      </trkpt>
      <trkpt lat="44.81524" lon="5.07712">
        <ele>927.25</ele>
        <time>2017-11-28T11:38:17.000Z</time>
      </trkpt>
      <trkpt lat="44.81516" lon="5.07714">
        <ele>928</ele>
        <time>2017-11-28T11:38:27.000Z</time>
      </trkpt>
      <trkpt lat="44.81509" lon="5.07712">
        <ele>929.35</ele>
        <time>2017-11-28T11:38:37.000Z</time>
      </trkpt>
      <trkpt lat="44.81498" lon="5.07716">
        <ele>929.95</ele>
        <time>2017-11-28T11:38:47.000Z</time>
      </trkpt>
      <trkpt lat="44.81496" lon="5.0772">
        <ele>929.3</ele>
        <time>2017-11-28T11:38:57.000Z</time>
      </trkpt>
      <trkpt lat="44.81491" lon="5.07721">
        <ele>929.73</ele>
        <time>2017-11-28T11:39:07.000Z</time>
      </trkpt>
      <trkpt lat="44.81488" lon="5.07721">
        <ele>930.08</ele>
        <time>2017-11-28T11:39:17.000Z</time>
      </trkpt>
      <trkpt lat="44.81486" lon="5.07725">
        <ele>929.65</ele>
        <time>2017-11-28T11:39:37.000Z</time>
      </trkpt>
      <trkpt lat="44.81474" lon="5.0773">
        <ele>930.41</ele>
        <time>2017-11-28T11:39:47.000Z</time>
      </trkpt>
      <trkpt lat="44.81462" lon="5.07727">
        <ele>932.97</ele>
        <time>2017-11-28T11:39:57.000Z</time>
      </trkpt>
      <trkpt lat="44.81448" lon="5.07734">
        <ele>933.75</ele>
        <time>2017-11-28T11:40:07.000Z</time>
      </trkpt>
      <trkpt lat="44.81437" lon="5.07732">
        <ele>935.97</ele>
        <time>2017-11-28T11:40:17.000Z</time>
      </trkpt>
      <trkpt lat="44.81423" lon="5.07742">
        <ele>935.34</ele>
        <time>2017-11-28T11:40:27.000Z</time>
      </trkpt>
      <trkpt lat="44.81419" lon="5.07736">
        <ele>936.86</ele>
        <time>2017-11-28T11:40:37.000Z</time>
      </trkpt>
      <trkpt lat="44.81415" lon="5.07735">
        <ele>937.45</ele>
        <time>2017-11-28T11:40:47.000Z</time>
      </trkpt>
      <trkpt lat="44.81416" lon="5.07733">
        <ele>937.68</ele>
        <time>2017-11-28T11:41:52.000Z</time>
      </trkpt>
      <trkpt lat="44.81423" lon="5.07728">
        <ele>938.27</ele>
        <time>2017-11-28T11:42:02.000Z</time>
      </trkpt>
      <trkpt lat="44.81421" lon="5.07728">
        <ele>938.54</ele>
        <time>2017-11-28T11:42:12.000Z</time>
      </trkpt>
      <trkpt lat="44.81419" lon="5.07729">
        <ele>938.5</ele>
        <time>2017-11-28T11:43:33.000Z</time>
      </trkpt>
      <trkpt lat="44.81408" lon="5.0773">
        <ele>938.88</ele>
        <time>2017-11-28T11:43:43.000Z</time>
      </trkpt>
      <trkpt lat="44.81398" lon="5.07738">
        <ele>937.43</ele>
        <time>2017-11-28T11:43:53.000Z</time>
      </trkpt>
      <trkpt lat="44.81391" lon="5.07732">
        <ele>938.87</ele>
        <time>2017-11-28T11:44:03.000Z</time>
      </trkpt>
      <trkpt lat="44.81385" lon="5.07719">
        <ele>941.92</ele>
        <time>2017-11-28T11:44:13.000Z</time>
      </trkpt>
      <trkpt lat="44.81376" lon="5.07715">
        <ele>942.83</ele>
        <time>2017-11-28T11:44:23.000Z</time>
      </trkpt>
      <trkpt lat="44.81369" lon="5.07711">
        <ele>943.57</ele>
        <time>2017-11-28T11:44:33.000Z</time>
      </trkpt>
      <trkpt lat="44.81362" lon="5.07705">
        <ele>944.82</ele>
        <time>2017-11-28T11:44:43.000Z</time>
      </trkpt>
      <trkpt lat="44.81358" lon="5.07699">
        <ele>946.03</ele>
        <time>2017-11-28T11:44:53.000Z</time>
      </trkpt>
      <trkpt lat="44.81349" lon="5.077">
        <ele>945.37</ele>
        <time>2017-11-28T11:45:03.000Z</time>
      </trkpt>
      <trkpt lat="44.8134" lon="5.07691">
        <ele>946.84</ele>
        <time>2017-11-28T11:45:13.000Z</time>
      </trkpt>
      <trkpt lat="44.81338" lon="5.07678">
        <ele>949.72</ele>
        <time>2017-11-28T11:45:23.000Z</time>
      </trkpt>
      <trkpt lat="44.81342" lon="5.07668">
        <ele>952.15</ele>
        <time>2017-11-28T11:45:33.000Z</time>
      </trkpt>
      <trkpt lat="44.81351" lon="5.07662">
        <ele>953.95</ele>
        <time>2017-11-28T11:45:43.000Z</time>
      </trkpt>
      <trkpt lat="44.8136" lon="5.07665">
        <ele>953.65</ele>
        <time>2017-11-28T11:45:53.000Z</time>
      </trkpt>
      <trkpt lat="44.81371" lon="5.07668">
        <ele>953.09</ele>
        <time>2017-11-28T11:46:03.000Z</time>
      </trkpt>
      <trkpt lat="44.81373" lon="5.07667">
        <ele>953.37</ele>
        <time>2017-11-28T11:46:28.000Z</time>
      </trkpt>
      <trkpt lat="44.81388" lon="5.07667">
        <ele>953.11</ele>
        <time>2017-11-28T11:46:38.000Z</time>
      </trkpt>
      <trkpt lat="44.81398" lon="5.07667">
        <ele>952.83</ele>
        <time>2017-11-28T11:46:48.000Z</time>
      </trkpt>
      <trkpt lat="44.81409" lon="5.07662">
        <ele>953.53</ele>
        <time>2017-11-28T11:46:58.000Z</time>
      </trkpt>
      <trkpt lat="44.81412" lon="5.07652">
        <ele>955.51</ele>
        <time>2017-11-28T11:47:08.000Z</time>
      </trkpt>
      <trkpt lat="44.81413" lon="5.07645">
        <ele>957.05</ele>
        <time>2017-11-28T11:47:18.000Z</time>
      </trkpt>
      <trkpt lat="44.81404" lon="5.07641">
        <ele>958.53</ele>
        <time>2017-11-28T11:47:28.000Z</time>
      </trkpt>
      <trkpt lat="44.81403" lon="5.07641">
        <ele>958.56</ele>
        <time>2017-11-28T11:47:38.000Z</time>
      </trkpt>
      <trkpt lat="44.81388" lon="5.0764">
        <ele>959.18</ele>
        <time>2017-11-28T11:47:48.000Z</time>
      </trkpt>
      <trkpt lat="44.81379" lon="5.07637">
        <ele>959.98</ele>
        <time>2017-11-28T11:47:58.000Z</time>
      </trkpt>
      <trkpt lat="44.81369" lon="5.07632">
        <ele>960.89</ele>
        <time>2017-11-28T11:48:08.000Z</time>
      </trkpt>
      <trkpt lat="44.81361" lon="5.07627">
        <ele>961.74</ele>
        <time>2017-11-28T11:48:18.000Z</time>
      </trkpt>
      <trkpt lat="44.81353" lon="5.07622">
        <ele>962.37</ele>
        <time>2017-11-28T11:48:28.000Z</time>
      </trkpt>
      <trkpt lat="44.81346" lon="5.07614">
        <ele>963.89</ele>
        <time>2017-11-28T11:48:38.000Z</time>
      </trkpt>
      <trkpt lat="44.81341" lon="5.07614">
        <ele>963.6</ele>
        <time>2017-11-28T11:48:48.000Z</time>
      </trkpt>
      <trkpt lat="44.81331" lon="5.07608">
        <ele>964.32</ele>
        <time>2017-11-28T11:48:58.000Z</time>
      </trkpt>
      <trkpt lat="44.81326" lon="5.07599">
        <ele>965.91</ele>
        <time>2017-11-28T11:49:08.000Z</time>
      </trkpt>
      <trkpt lat="44.81317" lon="5.0759">
        <ele>967.34</ele>
        <time>2017-11-28T11:49:18.000Z</time>
      </trkpt>
      <trkpt lat="44.81306" lon="5.0759">
        <ele>966.23</ele>
        <time>2017-11-28T11:49:28.000Z</time>
      </trkpt>
      <trkpt lat="44.81296" lon="5.07584">
        <ele>966.57</ele>
        <time>2017-11-28T11:49:38.000Z</time>
      </trkpt>
      <trkpt lat="44.81293" lon="5.07574">
        <ele>969.07</ele>
        <time>2017-11-28T11:49:48.000Z</time>
      </trkpt>
      <trkpt lat="44.81296" lon="5.07564">
        <ele>972.32</ele>
        <time>2017-11-28T11:49:58.000Z</time>
      </trkpt>
      <trkpt lat="44.81304" lon="5.07568">
        <ele>971.96</ele>
        <time>2017-11-28T11:50:08.000Z</time>
      </trkpt>
      <trkpt lat="44.81314" lon="5.0756">
        <ele>975.13</ele>
        <time>2017-11-28T11:50:18.000Z</time>
      </trkpt>
      <trkpt lat="44.81335" lon="5.07557">
        <ele>977.31</ele>
        <time>2017-11-28T11:50:28.000Z</time>
      </trkpt>
      <trkpt lat="44.81332" lon="5.0756">
        <ele>976.45</ele>
        <time>2017-11-28T11:50:38.000Z</time>
      </trkpt>
      <trkpt lat="44.81343" lon="5.07563">
        <ele>975.72</ele>
        <time>2017-11-28T11:50:48.000Z</time>
      </trkpt>
      <trkpt lat="44.81354" lon="5.07559">
        <ele>977.43</ele>
        <time>2017-11-28T11:50:58.000Z</time>
      </trkpt>
      <trkpt lat="44.81361" lon="5.07553">
        <ele>979.21</ele>
        <time>2017-11-28T11:51:08.000Z</time>
      </trkpt>
      <trkpt lat="44.81362" lon="5.07554">
        <ele>979.02</ele>
        <time>2017-11-28T11:51:19.000Z</time>
      </trkpt>
      <trkpt lat="44.81369" lon="5.07543">
        <ele>981.92</ele>
        <time>2017-11-28T11:51:29.000Z</time>
      </trkpt>
      <trkpt lat="44.81377" lon="5.07537">
        <ele>983.43</ele>
        <time>2017-11-28T11:51:39.000Z</time>
      </trkpt>
      <trkpt lat="44.81384" lon="5.07533">
        <ele>984.34</ele>
        <time>2017-11-28T11:51:49.000Z</time>
      </trkpt>
      <trkpt lat="44.81392" lon="5.07527">
        <ele>985.21</ele>
        <time>2017-11-28T11:51:59.000Z</time>
      </trkpt>
      <trkpt lat="44.814" lon="5.07527">
        <ele>984.81</ele>
        <time>2017-11-28T11:52:09.000Z</time>
      </trkpt>
      <trkpt lat="44.81407" lon="5.07527">
        <ele>984.41</ele>
        <time>2017-11-28T11:52:19.000Z</time>
      </trkpt>
      <trkpt lat="44.81412" lon="5.07524">
        <ele>984.71</ele>
        <time>2017-11-28T11:52:29.000Z</time>
      </trkpt>
      <trkpt lat="44.81413" lon="5.07519">
        <ele>985.51</ele>
        <time>2017-11-28T11:52:39.000Z</time>
      </trkpt>
      <trkpt lat="44.8141" lon="5.07515">
        <ele>986.73</ele>
        <time>2017-11-28T11:52:49.000Z</time>
      </trkpt>
      <trkpt lat="44.81402" lon="5.07515">
        <ele>987.38</ele>
        <time>2017-11-28T11:52:59.000Z</time>
      </trkpt>
      <trkpt lat="44.81394" lon="5.07516">
        <ele>987.52</ele>
        <time>2017-11-28T11:53:09.000Z</time>
      </trkpt>
      <trkpt lat="44.81383" lon="5.0752">
        <ele>987.33</ele>
        <time>2017-11-28T11:53:19.000Z</time>
      </trkpt>
      <trkpt lat="44.81372" lon="5.07514">
        <ele>989.19</ele>
        <time>2017-11-28T11:53:29.000Z</time>
      </trkpt>
      <trkpt lat="44.81362" lon="5.07509">
        <ele>990.38</ele>
        <time>2017-11-28T11:53:39.000Z</time>
      </trkpt>
      <trkpt lat="44.81354" lon="5.07506">
        <ele>991.19</ele>
        <time>2017-11-28T11:53:49.000Z</time>
      </trkpt>
      <trkpt lat="44.81346" lon="5.07502">
        <ele>991.89</ele>
        <time>2017-11-28T11:53:59.000Z</time>
      </trkpt>
      <trkpt lat="44.81338" lon="5.07497">
        <ele>992.7</ele>
        <time>2017-11-28T11:54:09.000Z</time>
      </trkpt>
      <trkpt lat="44.81335" lon="5.07486">
        <ele>994.44</ele>
        <time>2017-11-28T11:54:19.000Z</time>
      </trkpt>
      <trkpt lat="44.81325" lon="5.07486">
        <ele>994.04</ele>
        <time>2017-11-28T11:54:29.000Z</time>
      </trkpt>
      <trkpt lat="44.8132" lon="5.07478">
        <ele>994.86</ele>
        <time>2017-11-28T11:54:39.000Z</time>
      </trkpt>
      <trkpt lat="44.81313" lon="5.0747">
        <ele>995.27</ele>
        <time>2017-11-28T11:54:49.000Z</time>
      </trkpt>
      <trkpt lat="44.81305" lon="5.07462">
        <ele>995.14</ele>
        <time>2017-11-28T11:54:59.000Z</time>
      </trkpt>
      <trkpt lat="44.81303" lon="5.07463">
        <ele>994.88</ele>
        <time>2017-11-28T11:55:09.000Z</time>
      </trkpt>
      <trkpt lat="44.81303" lon="5.0746">
        <ele>995.06</ele>
        <time>2017-11-28T11:55:19.000Z</time>
      </trkpt>
      <trkpt lat="44.81304" lon="5.0746">
        <ele>995.25</ele>
        <time>2017-11-28T11:55:29.000Z</time>
      </trkpt>
      <trkpt lat="44.81303" lon="5.07461">
        <ele>994.91</ele>
        <time>2017-11-28T11:55:39.000Z</time>
      </trkpt>
      <trkpt lat="44.81303" lon="5.0746">
        <ele>995.05</ele>
        <time>2017-11-28T11:55:50.000Z</time>
      </trkpt>
      <trkpt lat="44.81303" lon="5.07458">
        <ele>995.3</ele>
        <time>2017-11-28T11:56:01.000Z</time>
      </trkpt>
      <trkpt lat="44.81299" lon="5.07457">
        <ele>994.7</ele>
        <time>2017-11-28T11:57:30.000Z</time>
      </trkpt>
      <trkpt lat="44.81288" lon="5.07452">
        <ele>993.11</ele>
        <time>2017-11-28T11:57:40.000Z</time>
      </trkpt>
      <trkpt lat="44.81279" lon="5.07452">
        <ele>991.43</ele>
        <time>2017-11-28T11:57:50.000Z</time>
      </trkpt>
      <trkpt lat="44.81262" lon="5.07452">
        <ele>988.27</ele>
        <time>2017-11-28T11:58:00.000Z</time>
      </trkpt>
      <trkpt lat="44.81254" lon="5.07455">
        <ele>986.77</ele>
        <time>2017-11-28T11:58:10.000Z</time>
      </trkpt>
      <trkpt lat="44.81248" lon="5.07457">
        <ele>985.68</ele>
        <time>2017-11-28T11:58:20.000Z</time>
      </trkpt>
      <trkpt lat="44.81246" lon="5.07458">
        <ele>985.3</ele>
        <time>2017-11-28T11:58:30.000Z</time>
      </trkpt>
      <trkpt lat="44.81222" lon="5.07455">
        <ele>980.7</ele>
        <time>2017-11-28T11:58:40.000Z</time>
      </trkpt>
      <trkpt lat="44.81216" lon="5.07457">
        <ele>979.47</ele>
        <time>2017-11-28T11:58:50.000Z</time>
      </trkpt>
      <trkpt lat="44.81215" lon="5.07456">
        <ele>979.26</ele>
        <time>2017-11-28T11:59:00.000Z</time>
      </trkpt>
      <trkpt lat="44.81215" lon="5.07455">
        <ele>979.2</ele>
        <time>2017-11-28T11:59:20.000Z</time>
      </trkpt>
      <trkpt lat="44.8121" lon="5.07453">
        <ele>977.99</ele>
        <time>2017-11-28T11:59:30.000Z</time>
      </trkpt>
      <trkpt lat="44.81209" lon="5.07453">
        <ele>977.8</ele>
        <time>2017-11-28T11:59:50.000Z</time>
      </trkpt>
      <trkpt lat="44.81203" lon="5.07451">
        <ele>976.27</ele>
        <time>2017-11-28T12:00:00.000Z</time>
      </trkpt>
      <trkpt lat="44.81201" lon="5.07449">
        <ele>975.59</ele>
        <time>2017-11-28T12:00:10.000Z</time>
      </trkpt>
      <trkpt lat="44.81202" lon="5.07451">
        <ele>975.95</ele>
        <time>2017-11-28T12:00:20.000Z</time>
      </trkpt>
      <trkpt lat="44.812" lon="5.07451">
        <ele>975.73</ele>
        <time>2017-11-28T12:02:30.000Z</time>
      </trkpt>
      <trkpt lat="44.81201" lon="5.07453">
        <ele>976.1</ele>
        <time>2017-11-28T12:02:40.000Z</time>
      </trkpt>
      <trkpt lat="44.81202" lon="5.07453">
        <ele>976.26</ele>
        <time>2017-11-28T12:03:57.000Z</time>
      </trkpt>
      <trkpt lat="44.812" lon="5.07453">
        <ele>975.98</ele>
        <time>2017-11-28T12:06:10.000Z</time>
      </trkpt>
      <trkpt lat="44.81199" lon="5.07453">
        <ele>975.79</ele>
        <time>2017-11-28T12:07:33.000Z</time>
      </trkpt>
      <trkpt lat="44.81201" lon="5.07457">
        <ele>976.54</ele>
        <time>2017-11-28T12:10:53.000Z</time>
      </trkpt>
      <trkpt lat="44.81199" lon="5.07453">
        <ele>975.71</ele>
        <time>2017-11-28T12:11:15.000Z</time>
      </trkpt>
      <trkpt lat="44.81201" lon="5.07456">
        <ele>976.45</ele>
        <time>2017-11-28T12:25:21.000Z</time>
      </trkpt>
      <trkpt lat="44.81198" lon="5.07455">
        <ele>975.76</ele>
        <time>2017-11-28T12:25:31.000Z</time>
      </trkpt>
      <trkpt lat="44.81197" lon="5.07456">
        <ele>975.7</ele>
        <time>2017-11-28T12:25:41.000Z</time>
      </trkpt>
      <trkpt lat="44.812" lon="5.07455">
        <ele>975.96</ele>
        <time>2017-11-28T12:25:51.000Z</time>
      </trkpt>
      <trkpt lat="44.81199" lon="5.07453">
        <ele>975.74</ele>
        <time>2017-11-28T12:26:16.000Z</time>
      </trkpt>
      <trkpt lat="44.812" lon="5.07455">
        <ele>975.98</ele>
        <time>2017-11-28T12:26:27.000Z</time>
      </trkpt>
      <trkpt lat="44.81199" lon="5.07454">
        <ele>975.74</ele>
        <time>2017-11-28T12:28:10.000Z</time>
      </trkpt>
      <trkpt lat="44.812" lon="5.07455">
        <ele>975.97</ele>
        <time>2017-11-28T12:29:23.000Z</time>
      </trkpt>
      <trkpt lat="44.81199" lon="5.07454">
        <ele>975.66</ele>
        <time>2017-11-28T12:29:33.000Z</time>
      </trkpt>
      <trkpt lat="44.81198" lon="5.07455">
        <ele>975.64</ele>
        <time>2017-11-28T12:32:17.000Z</time>
      </trkpt>
      <trkpt lat="44.81198" lon="5.07456">
        <ele>975.88</ele>
        <time>2017-11-28T12:32:46.000Z</time>
      </trkpt>
      <trkpt lat="44.81197" lon="5.07457">
        <ele>975.83</ele>
        <time>2017-11-28T12:33:17.000Z</time>
      </trkpt>
      <trkpt lat="44.81199" lon="5.07458">
        <ele>976.15</ele>
        <time>2017-11-28T12:33:35.000Z</time>
      </trkpt>
      <trkpt lat="44.81198" lon="5.07457">
        <ele>975.89</ele>
        <time>2017-11-28T12:33:45.000Z</time>
      </trkpt>
      <trkpt lat="44.81198" lon="5.07456">
        <ele>975.84</ele>
        <time>2017-11-28T12:33:58.000Z</time>
      </trkpt>
      <trkpt lat="44.81197" lon="5.07456">
        <ele>975.61</ele>
        <time>2017-11-28T12:34:08.000Z</time>
      </trkpt>
      <trkpt lat="44.81198" lon="5.07456">
        <ele>975.86</ele>
        <time>2017-11-28T12:34:19.000Z</time>
      </trkpt>
      <trkpt lat="44.81198" lon="5.07458">
        <ele>976.07</ele>
        <time>2017-11-28T12:35:56.000Z</time>
      </trkpt>
      <trkpt lat="44.81192" lon="5.07456">
        <ele>974.64</ele>
        <time>2017-11-28T12:36:06.000Z</time>
      </trkpt>
      <trkpt lat="44.81189" lon="5.07453">
        <ele>973.53</ele>
        <time>2017-11-28T12:36:16.000Z</time>
      </trkpt>
      <trkpt lat="44.81183" lon="5.07451">
        <ele>972.21</ele>
        <time>2017-11-28T12:36:50.000Z</time>
      </trkpt>
      <trkpt lat="44.81176" lon="5.0745">
        <ele>970.73</ele>
        <time>2017-11-28T12:37:00.000Z</time>
      </trkpt>
      <trkpt lat="44.81175" lon="5.07452">
        <ele>970.87</ele>
        <time>2017-11-28T12:37:10.000Z</time>
      </trkpt>
      <trkpt lat="44.81172" lon="5.07453">
        <ele>970.64</ele>
        <time>2017-11-28T12:37:27.000Z</time>
      </trkpt>
      <trkpt lat="44.81157" lon="5.07469">
        <ele>971.5</ele>
        <time>2017-11-28T12:37:37.000Z</time>
      </trkpt>
      <trkpt lat="44.81146" lon="5.07477">
        <ele>972.42</ele>
        <time>2017-11-28T12:37:47.000Z</time>
      </trkpt>
      <trkpt lat="44.81143" lon="5.0748">
        <ele>972.84</ele>
        <time>2017-11-28T12:37:57.000Z</time>
      </trkpt>
      <trkpt lat="44.81141" lon="5.07484">
        <ele>973.39</ele>
        <time>2017-11-28T12:38:07.000Z</time>
      </trkpt>
      <trkpt lat="44.81134" lon="5.07484">
        <ele>973.5</ele>
        <time>2017-11-28T12:38:17.000Z</time>
      </trkpt>
      <trkpt lat="44.81132" lon="5.07497">
        <ele>975.34</ele>
        <time>2017-11-28T12:38:27.000Z</time>
      </trkpt>
      <trkpt lat="44.81122" lon="5.07501">
        <ele>976.41</ele>
        <time>2017-11-28T12:38:37.000Z</time>
      </trkpt>
      <trkpt lat="44.81119" lon="5.07502">
        <ele>976.75</ele>
        <time>2017-11-28T12:38:47.000Z</time>
      </trkpt>
      <trkpt lat="44.81113" lon="5.07508">
        <ele>977.63</ele>
        <time>2017-11-28T12:38:57.000Z</time>
      </trkpt>
      <trkpt lat="44.81113" lon="5.07511">
        <ele>977.82</ele>
        <time>2017-11-28T12:39:07.000Z</time>
      </trkpt>
      <trkpt lat="44.81107" lon="5.07514">
        <ele>978.37</ele>
        <time>2017-11-28T12:39:17.000Z</time>
      </trkpt>
      <trkpt lat="44.81105" lon="5.07515">
        <ele>978.56</ele>
        <time>2017-11-28T12:39:27.000Z</time>
      </trkpt>
      <trkpt lat="44.81103" lon="5.07518">
        <ele>978.85</ele>
        <time>2017-11-28T12:39:42.000Z</time>
      </trkpt>
      <trkpt lat="44.81093" lon="5.07521">
        <ele>979.41</ele>
        <time>2017-11-28T12:39:52.000Z</time>
      </trkpt>
      <trkpt lat="44.81089" lon="5.07524">
        <ele>979.64</ele>
        <time>2017-11-28T12:40:02.000Z</time>
      </trkpt>
      <trkpt lat="44.81072" lon="5.07524">
        <ele>979.59</ele>
        <time>2017-11-28T12:40:12.000Z</time>
      </trkpt>
      <trkpt lat="44.81066" lon="5.07529">
        <ele>979.71</ele>
        <time>2017-11-28T12:40:22.000Z</time>
      </trkpt>
      <trkpt lat="44.81065" lon="5.0753">
        <ele>979.7</ele>
        <time>2017-11-28T12:40:32.000Z</time>
      </trkpt>
      <trkpt lat="44.81047" lon="5.07537">
        <ele>979.59</ele>
        <time>2017-11-28T12:40:42.000Z</time>
      </trkpt>
      <trkpt lat="44.81044" lon="5.07537">
        <ele>979.44</ele>
        <time>2017-11-28T12:40:52.000Z</time>
      </trkpt>
      <trkpt lat="44.81043" lon="5.07535">
        <ele>979.17</ele>
        <time>2017-11-28T12:41:03.000Z</time>
      </trkpt>
      <trkpt lat="44.81042" lon="5.07537">
        <ele>979.36</ele>
        <time>2017-11-28T12:41:13.000Z</time>
      </trkpt>
      <trkpt lat="44.8103" lon="5.07541">
        <ele>979.49</ele>
        <time>2017-11-28T12:41:23.000Z</time>
      </trkpt>
      <trkpt lat="44.81024" lon="5.0754">
        <ele>979.18</ele>
        <time>2017-11-28T12:41:33.000Z</time>
      </trkpt>
      <trkpt lat="44.81014" lon="5.07544">
        <ele>979.54</ele>
        <time>2017-11-28T12:41:43.000Z</time>
      </trkpt>
      <trkpt lat="44.81011" lon="5.07542">
        <ele>979.08</ele>
        <time>2017-11-28T12:41:54.000Z</time>
      </trkpt>
      <trkpt lat="44.81007" lon="5.0754">
        <ele>978.68</ele>
        <time>2017-11-28T12:42:04.000Z</time>
      </trkpt>
      <trkpt lat="44.81007" lon="5.07537">
        <ele>978.03</ele>
        <time>2017-11-28T12:42:14.000Z</time>
      </trkpt>
      <trkpt lat="44.81008" lon="5.0754">
        <ele>978.55</ele>
        <time>2017-11-28T12:42:24.000Z</time>
      </trkpt>
      <trkpt lat="44.81007" lon="5.0754">
        <ele>978.72</ele>
        <time>2017-11-28T12:42:50.000Z</time>
      </trkpt>
      <trkpt lat="44.81005" lon="5.0754">
        <ele>978.53</ele>
        <time>2017-11-28T12:43:00.000Z</time>
      </trkpt>
      <trkpt lat="44.81007" lon="5.07541">
        <ele>978.73</ele>
        <time>2017-11-28T12:43:36.000Z</time>
      </trkpt>
      <trkpt lat="44.81005" lon="5.07539">
        <ele>978.37</ele>
        <time>2017-11-28T12:43:46.000Z</time>
      </trkpt>
      <trkpt lat="44.81005" lon="5.07539">
        <ele>978.26</ele>
        <time>2017-11-28T12:44:37.000Z</time>
      </trkpt>
      <trkpt lat="44.81002" lon="5.07541">
        <ele>978.83</ele>
        <time>2017-11-28T12:45:10.000Z</time>
      </trkpt>
      <trkpt lat="44.80994" lon="5.07547">
        <ele>980.07</ele>
        <time>2017-11-28T12:45:20.000Z</time>
      </trkpt>
      <trkpt lat="44.80986" lon="5.0755">
        <ele>980.79</ele>
        <time>2017-11-28T12:45:30.000Z</time>
      </trkpt>
      <trkpt lat="44.80975" lon="5.07557">
        <ele>982.52</ele>
        <time>2017-11-28T12:45:40.000Z</time>
      </trkpt>
      <trkpt lat="44.80971" lon="5.07562">
        <ele>983.7</ele>
        <time>2017-11-28T12:45:50.000Z</time>
      </trkpt>
      <trkpt lat="44.80964" lon="5.07568">
        <ele>984.87</ele>
        <time>2017-11-28T12:46:00.000Z</time>
      </trkpt>
      <trkpt lat="44.80952" lon="5.07568">
        <ele>985.31</ele>
        <time>2017-11-28T12:46:10.000Z</time>
      </trkpt>
      <trkpt lat="44.80947" lon="5.07568">
        <ele>985.46</ele>
        <time>2017-11-28T12:46:20.000Z</time>
      </trkpt>
      <trkpt lat="44.80937" lon="5.07567">
        <ele>985.23</ele>
        <time>2017-11-28T12:46:30.000Z</time>
      </trkpt>
      <trkpt lat="44.80933" lon="5.0756">
        <ele>983.95</ele>
        <time>2017-11-28T12:46:40.000Z</time>
      </trkpt>
      <trkpt lat="44.80925" lon="5.07554">
        <ele>982.29</ele>
        <time>2017-11-28T12:46:50.000Z</time>
      </trkpt>
      <trkpt lat="44.80916" lon="5.07556">
        <ele>981.99</ele>
        <time>2017-11-28T12:47:00.000Z</time>
      </trkpt>
      <trkpt lat="44.80914" lon="5.07555">
        <ele>981.69</ele>
        <time>2017-11-28T12:47:10.000Z</time>
      </trkpt>
      <trkpt lat="44.80913" lon="5.07558">
        <ele>981.99</ele>
        <time>2017-11-28T12:47:37.000Z</time>
      </trkpt>
      <trkpt lat="44.80901" lon="5.07558">
        <ele>980.56</ele>
        <time>2017-11-28T12:47:47.000Z</time>
      </trkpt>
      <trkpt lat="44.80892" lon="5.07552">
        <ele>977.56</ele>
        <time>2017-11-28T12:47:57.000Z</time>
      </trkpt>
      <trkpt lat="44.8089" lon="5.07553">
        <ele>977.38</ele>
        <time>2017-11-28T12:48:07.000Z</time>
      </trkpt>
      <trkpt lat="44.80888" lon="5.07554">
        <ele>977.3</ele>
        <time>2017-11-28T12:48:19.000Z</time>
      </trkpt>
      <trkpt lat="44.80885" lon="5.07557">
        <ele>977.25</ele>
        <time>2017-11-28T12:48:29.000Z</time>
      </trkpt>
      <trkpt lat="44.80883" lon="5.07558">
        <ele>977.29</ele>
        <time>2017-11-28T12:48:39.000Z</time>
      </trkpt>
      <trkpt lat="44.80883" lon="5.0756">
        <ele>977.46</ele>
        <time>2017-11-28T12:48:49.000Z</time>
      </trkpt>
      <trkpt lat="44.80875" lon="5.07562">
        <ele>976.39</ele>
        <time>2017-11-28T12:48:59.000Z</time>
      </trkpt>
      <trkpt lat="44.80867" lon="5.07558">
        <ele>973.64</ele>
        <time>2017-11-28T12:49:09.000Z</time>
      </trkpt>
      <trkpt lat="44.80868" lon="5.07558">
        <ele>973.99</ele>
        <time>2017-11-28T12:49:19.000Z</time>
      </trkpt>
      <trkpt lat="44.80867" lon="5.07559">
        <ele>973.86</ele>
        <time>2017-11-28T12:49:32.000Z</time>
      </trkpt>
      <trkpt lat="44.80866" lon="5.07561">
        <ele>974.06</ele>
        <time>2017-11-28T12:49:42.000Z</time>
      </trkpt>
      <trkpt lat="44.80864" lon="5.07563">
        <ele>973.85</ele>
        <time>2017-11-28T12:49:54.000Z</time>
      </trkpt>
      <trkpt lat="44.80854" lon="5.07561">
        <ele>971.29</ele>
        <time>2017-11-28T12:50:04.000Z</time>
      </trkpt>
      <trkpt lat="44.80847" lon="5.07564">
        <ele>970.35</ele>
        <time>2017-11-28T12:50:14.000Z</time>
      </trkpt>
      <trkpt lat="44.80838" lon="5.07566">
        <ele>968.79</ele>
        <time>2017-11-28T12:50:24.000Z</time>
      </trkpt>
      <trkpt lat="44.80829" lon="5.07567">
        <ele>967.61</ele>
        <time>2017-11-28T12:50:34.000Z</time>
      </trkpt>
      <trkpt lat="44.80828" lon="5.07568">
        <ele>967.47</ele>
        <time>2017-11-28T12:50:44.000Z</time>
      </trkpt>
      <trkpt lat="44.80829" lon="5.07571">
        <ele>967.98</ele>
        <time>2017-11-28T12:50:54.000Z</time>
      </trkpt>
      <trkpt lat="44.80827" lon="5.07576">
        <ele>968.41</ele>
        <time>2017-11-28T12:51:04.000Z</time>
      </trkpt>
      <trkpt lat="44.80821" lon="5.07575">
        <ele>967.14</ele>
        <time>2017-11-28T12:51:14.000Z</time>
      </trkpt>
      <trkpt lat="44.80815" lon="5.0758">
        <ele>966.47</ele>
        <time>2017-11-28T12:51:24.000Z</time>
      </trkpt>
      <trkpt lat="44.80806" lon="5.07575">
        <ele>964.28</ele>
        <time>2017-11-28T12:51:34.000Z</time>
      </trkpt>
      <trkpt lat="44.80803" lon="5.07573">
        <ele>963.65</ele>
        <time>2017-11-28T12:52:02.000Z</time>
      </trkpt>
      <trkpt lat="44.80793" lon="5.07566">
        <ele>960.95</ele>
        <time>2017-11-28T12:52:12.000Z</time>
      </trkpt>
      <trkpt lat="44.80792" lon="5.07568">
        <ele>960.96</ele>
        <time>2017-11-28T12:52:22.000Z</time>
      </trkpt>
      <trkpt lat="44.80782" lon="5.07567">
        <ele>959.17</ele>
        <time>2017-11-28T12:52:32.000Z</time>
      </trkpt>
      <trkpt lat="44.8077" lon="5.07568">
        <ele>957.42</ele>
        <time>2017-11-28T12:52:42.000Z</time>
      </trkpt>
      <trkpt lat="44.80764" lon="5.07569">
        <ele>956.78</ele>
        <time>2017-11-28T12:52:52.000Z</time>
      </trkpt>
      <trkpt lat="44.80757" lon="5.07569">
        <ele>955.76</ele>
        <time>2017-11-28T12:53:02.000Z</time>
      </trkpt>
      <trkpt lat="44.80749" lon="5.0757">
        <ele>954.78</ele>
        <time>2017-11-28T12:53:12.000Z</time>
      </trkpt>
      <trkpt lat="44.80738" lon="5.07575">
        <ele>954.01</ele>
        <time>2017-11-28T12:53:22.000Z</time>
      </trkpt>
      <trkpt lat="44.80727" lon="5.07574">
        <ele>952.76</ele>
        <time>2017-11-28T12:53:32.000Z</time>
      </trkpt>
      <trkpt lat="44.80718" lon="5.0757">
        <ele>951.37</ele>
        <time>2017-11-28T12:53:42.000Z</time>
      </trkpt>
      <trkpt lat="44.80711" lon="5.07573">
        <ele>951.12</ele>
        <time>2017-11-28T12:53:52.000Z</time>
      </trkpt>
      <trkpt lat="44.80704" lon="5.07575">
        <ele>950.75</ele>
        <time>2017-11-28T12:54:02.000Z</time>
      </trkpt>
      <trkpt lat="44.80693" lon="5.07574">
        <ele>949.96</ele>
        <time>2017-11-28T12:54:12.000Z</time>
      </trkpt>
      <trkpt lat="44.80686" lon="5.07569">
        <ele>948.81</ele>
        <time>2017-11-28T12:54:22.000Z</time>
      </trkpt>
      <trkpt lat="44.80684" lon="5.07567">
        <ele>948.39</ele>
        <time>2017-11-28T12:54:32.000Z</time>
      </trkpt>
      <trkpt lat="44.80683" lon="5.07568">
        <ele>948.58</ele>
        <time>2017-11-28T12:54:42.000Z</time>
      </trkpt>
      <trkpt lat="44.8067" lon="5.07572">
        <ele>948.66</ele>
        <time>2017-11-28T12:54:52.000Z</time>
      </trkpt>
      <trkpt lat="44.80659" lon="5.07575">
        <ele>949.19</ele>
        <time>2017-11-28T12:55:02.000Z</time>
      </trkpt>
      <trkpt lat="44.8065" lon="5.07575">
        <ele>949.4</ele>
        <time>2017-11-28T12:55:12.000Z</time>
      </trkpt>
      <trkpt lat="44.8064" lon="5.07573">
        <ele>949.66</ele>
        <time>2017-11-28T12:55:22.000Z</time>
      </trkpt>
      <trkpt lat="44.80633" lon="5.07575">
        <ele>950.39</ele>
        <time>2017-11-28T12:55:32.000Z</time>
      </trkpt>
      <trkpt lat="44.80625" lon="5.07576">
        <ele>951.35</ele>
        <time>2017-11-28T12:55:42.000Z</time>
      </trkpt>
      <trkpt lat="44.80615" lon="5.07583">
        <ele>953.3</ele>
        <time>2017-11-28T12:55:52.000Z</time>
      </trkpt>
      <trkpt lat="44.8061" lon="5.07591">
        <ele>954.6</ele>
        <time>2017-11-28T12:56:02.000Z</time>
      </trkpt>
      <trkpt lat="44.8061" lon="5.07589">
        <ele>954.43</ele>
        <time>2017-11-28T12:56:12.000Z</time>
      </trkpt>
      <trkpt lat="44.80606" lon="5.0759">
        <ele>954.89</ele>
        <time>2017-11-28T12:56:22.000Z</time>
      </trkpt>
      <trkpt lat="44.80604" lon="5.07588">
        <ele>955</ele>
        <time>2017-11-28T12:56:34.000Z</time>
      </trkpt>
      <trkpt lat="44.80583" lon="5.07588">
        <ele>956.7</ele>
        <time>2017-11-28T12:56:44.000Z</time>
      </trkpt>
      <trkpt lat="44.80571" lon="5.07592">
        <ele>957.97</ele>
        <time>2017-11-28T12:56:54.000Z</time>
      </trkpt>
      <trkpt lat="44.80563" lon="5.07596">
        <ele>958.95</ele>
        <time>2017-11-28T12:57:04.000Z</time>
      </trkpt>
      <trkpt lat="44.8055" lon="5.07609">
        <ele>960.05</ele>
        <time>2017-11-28T12:57:14.000Z</time>
      </trkpt>
      <trkpt lat="44.80543" lon="5.07605">
        <ele>960.59</ele>
        <time>2017-11-28T12:57:24.000Z</time>
      </trkpt>
      <trkpt lat="44.80534" lon="5.07603">
        <ele>961.13</ele>
        <time>2017-11-28T12:57:34.000Z</time>
      </trkpt>
      <trkpt lat="44.80531" lon="5.07605">
        <ele>961.27</ele>
        <time>2017-11-28T12:57:44.000Z</time>
      </trkpt>
      <trkpt lat="44.80522" lon="5.07611">
        <ele>961.3</ele>
        <time>2017-11-28T12:57:54.000Z</time>
      </trkpt>
      <trkpt lat="44.8052" lon="5.07608">
        <ele>961.51</ele>
        <time>2017-11-28T12:58:04.000Z</time>
      </trkpt>
      <trkpt lat="44.80519" lon="5.07608">
        <ele>961.54</ele>
        <time>2017-11-28T12:58:20.000Z</time>
      </trkpt>
      <trkpt lat="44.80507" lon="5.07606">
        <ele>961.67</ele>
        <time>2017-11-28T12:58:30.000Z</time>
      </trkpt>
      <trkpt lat="44.80491" lon="5.07613">
        <ele>960.68</ele>
        <time>2017-11-28T12:58:40.000Z</time>
      </trkpt>
      <trkpt lat="44.80481" lon="5.07611">
        <ele>960.11</ele>
        <time>2017-11-28T12:58:50.000Z</time>
      </trkpt>
      <trkpt lat="44.80473" lon="5.07614">
        <ele>959.13</ele>
        <time>2017-11-28T12:59:00.000Z</time>
      </trkpt>
      <trkpt lat="44.80462" lon="5.07609">
        <ele>958.32</ele>
        <time>2017-11-28T12:59:10.000Z</time>
      </trkpt>
      <trkpt lat="44.80452" lon="5.07612">
        <ele>956.84</ele>
        <time>2017-11-28T12:59:20.000Z</time>
      </trkpt>
      <trkpt lat="44.80443" lon="5.07611">
        <ele>955.8</ele>
        <time>2017-11-28T12:59:30.000Z</time>
      </trkpt>
      <trkpt lat="44.80437" lon="5.07603">
        <ele>955.44</ele>
        <time>2017-11-28T12:59:40.000Z</time>
      </trkpt>
      <trkpt lat="44.80432" lon="5.07601">
        <ele>954.73</ele>
        <time>2017-11-28T12:59:50.000Z</time>
      </trkpt>
      <trkpt lat="44.80423" lon="5.07596">
        <ele>953.63</ele>
        <time>2017-11-28T13:00:00.000Z</time>
      </trkpt>
      <trkpt lat="44.80413" lon="5.07594">
        <ele>952.4</ele>
        <time>2017-11-28T13:00:10.000Z</time>
      </trkpt>
      <trkpt lat="44.80409" lon="5.07601">
        <ele>951.99</ele>
        <time>2017-11-28T13:00:20.000Z</time>
      </trkpt>
      <trkpt lat="44.80398" lon="5.07598">
        <ele>950.77</ele>
        <time>2017-11-28T13:00:30.000Z</time>
      </trkpt>
      <trkpt lat="44.8039" lon="5.07595">
        <ele>949.87</ele>
        <time>2017-11-28T13:00:40.000Z</time>
      </trkpt>
      <trkpt lat="44.80387" lon="5.07585">
        <ele>949.02</ele>
        <time>2017-11-28T13:00:50.000Z</time>
      </trkpt>
      <trkpt lat="44.80376" lon="5.0758">
        <ele>947.37</ele>
        <time>2017-11-28T13:01:00.000Z</time>
      </trkpt>
      <trkpt lat="44.8037" lon="5.07584">
        <ele>947.1</ele>
        <time>2017-11-28T13:01:10.000Z</time>
      </trkpt>
      <trkpt lat="44.80363" lon="5.0758">
        <ele>946.06</ele>
        <time>2017-11-28T13:01:20.000Z</time>
      </trkpt>
      <trkpt lat="44.80355" lon="5.07578">
        <ele>944.95</ele>
        <time>2017-11-28T13:01:30.000Z</time>
      </trkpt>
      <trkpt lat="44.80348" lon="5.07577">
        <ele>944</ele>
        <time>2017-11-28T13:01:40.000Z</time>
      </trkpt>
      <trkpt lat="44.80337" lon="5.07573">
        <ele>942.44</ele>
        <time>2017-11-28T13:01:50.000Z</time>
      </trkpt>
      <trkpt lat="44.80327" lon="5.07574">
        <ele>941.4</ele>
        <time>2017-11-28T13:02:00.000Z</time>
      </trkpt>
      <trkpt lat="44.80321" lon="5.07575">
        <ele>940.89</ele>
        <time>2017-11-28T13:02:10.000Z</time>
      </trkpt>
      <trkpt lat="44.80313" lon="5.07575">
        <ele>940.07</ele>
        <time>2017-11-28T13:02:20.000Z</time>
      </trkpt>
      <trkpt lat="44.80308" lon="5.07579">
        <ele>939.82</ele>
        <time>2017-11-28T13:02:30.000Z</time>
      </trkpt>
      <trkpt lat="44.80299" lon="5.07573">
        <ele>938.39</ele>
        <time>2017-11-28T13:02:40.000Z</time>
      </trkpt>
      <trkpt lat="44.80293" lon="5.07569">
        <ele>937.35</ele>
        <time>2017-11-28T13:02:50.000Z</time>
      </trkpt>
      <trkpt lat="44.80283" lon="5.07562">
        <ele>935.66</ele>
        <time>2017-11-28T13:03:00.000Z</time>
      </trkpt>
      <trkpt lat="44.80271" lon="5.07559">
        <ele>934.1</ele>
        <time>2017-11-28T13:03:10.000Z</time>
      </trkpt>
      <trkpt lat="44.80267" lon="5.07558">
        <ele>933.54</ele>
        <time>2017-11-28T13:03:20.000Z</time>
      </trkpt>
      <trkpt lat="44.80261" lon="5.07558">
        <ele>933.02</ele>
        <time>2017-11-28T13:03:30.000Z</time>
      </trkpt>
      <trkpt lat="44.80257" lon="5.07555">
        <ele>932.22</ele>
        <time>2017-11-28T13:03:40.000Z</time>
      </trkpt>
      <trkpt lat="44.80253" lon="5.07553">
        <ele>931.57</ele>
        <time>2017-11-28T13:03:50.000Z</time>
      </trkpt>
      <trkpt lat="44.80253" lon="5.07552">
        <ele>931.34</ele>
        <time>2017-11-28T13:04:29.000Z</time>
      </trkpt>
      <trkpt lat="44.80256" lon="5.07551">
        <ele>931.57</ele>
        <time>2017-11-28T13:04:40.000Z</time>
      </trkpt>
      <trkpt lat="44.80257" lon="5.0755">
        <ele>931.54</ele>
        <time>2017-11-28T13:04:50.000Z</time>
      </trkpt>
      <trkpt lat="44.80258" lon="5.07551">
        <ele>931.74</ele>
        <time>2017-11-28T13:05:58.000Z</time>
      </trkpt>
      <trkpt lat="44.80256" lon="5.07551">
        <ele>931.54</ele>
        <time>2017-11-28T13:06:08.000Z</time>
      </trkpt>
      <trkpt lat="44.80257" lon="5.07551">
        <ele>931.7</ele>
        <time>2017-11-28T13:06:22.000Z</time>
      </trkpt>
      <trkpt lat="44.80255" lon="5.0755">
        <ele>931.38</ele>
        <time>2017-11-28T13:06:41.000Z</time>
      </trkpt>
      <trkpt lat="44.8025" lon="5.0755">
        <ele>930.85</ele>
        <time>2017-11-28T13:06:51.000Z</time>
      </trkpt>
      <trkpt lat="44.80249" lon="5.07552">
        <ele>931.01</ele>
        <time>2017-11-28T13:07:01.000Z</time>
      </trkpt>
      <trkpt lat="44.80248" lon="5.07551">
        <ele>930.82</ele>
        <time>2017-11-28T13:07:16.000Z</time>
      </trkpt>
      <trkpt lat="44.80246" lon="5.07548">
        <ele>930.13</ele>
        <time>2017-11-28T13:07:26.000Z</time>
      </trkpt>
      <trkpt lat="44.80244" lon="5.07549">
        <ele>930</ele>
        <time>2017-11-28T13:07:55.000Z</time>
      </trkpt>
      <trkpt lat="44.80237" lon="5.07551">
        <ele>929.52</ele>
        <time>2017-11-28T13:08:05.000Z</time>
      </trkpt>
      <trkpt lat="44.80237" lon="5.07552">
        <ele>929.55</ele>
        <time>2017-11-28T13:08:15.000Z</time>
      </trkpt>
      <trkpt lat="44.8023" lon="5.07545">
        <ele>927.92</ele>
        <time>2017-11-28T13:08:25.000Z</time>
      </trkpt>
      <trkpt lat="44.80219" lon="5.07541">
        <ele>926.07</ele>
        <time>2017-11-28T13:08:35.000Z</time>
      </trkpt>
      <trkpt lat="44.80211" lon="5.07537">
        <ele>924.56</ele>
        <time>2017-11-28T13:08:45.000Z</time>
      </trkpt>
      <trkpt lat="44.80202" lon="5.07533">
        <ele>922.91</ele>
        <time>2017-11-28T13:08:55.000Z</time>
      </trkpt>
      <trkpt lat="44.80194" lon="5.07531">
        <ele>921.5</ele>
        <time>2017-11-28T13:09:05.000Z</time>
      </trkpt>
      <trkpt lat="44.80187" lon="5.07532">
        <ele>920.75</ele>
        <time>2017-11-28T13:09:15.000Z</time>
      </trkpt>
      <trkpt lat="44.80179" lon="5.07534">
        <ele>920.03</ele>
        <time>2017-11-28T13:09:25.000Z</time>
      </trkpt>
      <trkpt lat="44.80176" lon="5.07535">
        <ele>919.73</ele>
        <time>2017-11-28T13:09:35.000Z</time>
      </trkpt>
      <trkpt lat="44.80167" lon="5.07537">
        <ele>918.8</ele>
        <time>2017-11-28T13:09:45.000Z</time>
      </trkpt>
      <trkpt lat="44.80162" lon="5.07539">
        <ele>918.22</ele>
        <time>2017-11-28T13:09:55.000Z</time>
      </trkpt>
      <trkpt lat="44.80161" lon="5.07539">
        <ele>918.04</ele>
        <time>2017-11-28T13:10:05.000Z</time>
      </trkpt>
      <trkpt lat="44.80156" lon="5.07542">
        <ele>917.53</ele>
        <time>2017-11-28T13:10:15.000Z</time>
      </trkpt>
      <trkpt lat="44.80145" lon="5.07543">
        <ele>916.05</ele>
        <time>2017-11-28T13:10:25.000Z</time>
      </trkpt>
      <trkpt lat="44.80136" lon="5.07543">
        <ele>914.53</ele>
        <time>2017-11-28T13:10:35.000Z</time>
      </trkpt>
      <trkpt lat="44.8013" lon="5.07546">
        <ele>913.76</ele>
        <time>2017-11-28T13:10:45.000Z</time>
      </trkpt>
      <trkpt lat="44.80128" lon="5.07547">
        <ele>913.55</ele>
        <time>2017-11-28T13:10:55.000Z</time>
      </trkpt>
      <trkpt lat="44.80115" lon="5.07544">
        <ele>911.11</ele>
        <time>2017-11-28T13:11:05.000Z</time>
      </trkpt>
      <trkpt lat="44.80105" lon="5.07544">
        <ele>909.25</ele>
        <time>2017-11-28T13:11:15.000Z</time>
      </trkpt>
      <trkpt lat="44.80101" lon="5.07545">
        <ele>908.7</ele>
        <time>2017-11-28T13:11:25.000Z</time>
      </trkpt>
      <trkpt lat="44.80096" lon="5.07542">
        <ele>907.6</ele>
        <time>2017-11-28T13:11:35.000Z</time>
      </trkpt>
      <trkpt lat="44.8008" lon="5.07536">
        <ele>904.48</ele>
        <time>2017-11-28T13:11:45.000Z</time>
      </trkpt>
      <trkpt lat="44.8007" lon="5.07534">
        <ele>902.55</ele>
        <time>2017-11-28T13:11:55.000Z</time>
      </trkpt>
      <trkpt lat="44.80058" lon="5.07531">
        <ele>900.66</ele>
        <time>2017-11-28T13:12:05.000Z</time>
      </trkpt>
      <trkpt lat="44.80049" lon="5.07529">
        <ele>899.12</ele>
        <time>2017-11-28T13:12:15.000Z</time>
      </trkpt>
      <trkpt lat="44.80041" lon="5.07526">
        <ele>897.67</ele>
        <time>2017-11-28T13:12:25.000Z</time>
      </trkpt>
      <trkpt lat="44.80033" lon="5.07524">
        <ele>896.48</ele>
        <time>2017-11-28T13:12:35.000Z</time>
      </trkpt>
      <trkpt lat="44.80029" lon="5.07521">
        <ele>895.47</ele>
        <time>2017-11-28T13:12:45.000Z</time>
      </trkpt>
      <trkpt lat="44.80023" lon="5.0752">
        <ele>894.47</ele>
        <time>2017-11-28T13:12:55.000Z</time>
      </trkpt>
      <trkpt lat="44.80022" lon="5.0752">
        <ele>894.26</ele>
        <time>2017-11-28T13:13:05.000Z</time>
      </trkpt>
      <trkpt lat="44.80011" lon="5.07517">
        <ele>892.03</ele>
        <time>2017-11-28T13:13:15.000Z</time>
      </trkpt>
      <trkpt lat="44.80004" lon="5.07507">
        <ele>889.25</ele>
        <time>2017-11-28T13:13:25.000Z</time>
      </trkpt>
      <trkpt lat="44.80003" lon="5.07504">
        <ele>888.46</ele>
        <time>2017-11-28T13:13:36.000Z</time>
      </trkpt>
      <trkpt lat="44.79993" lon="5.07497">
        <ele>884.71</ele>
        <time>2017-11-28T13:13:46.000Z</time>
      </trkpt>
      <trkpt lat="44.79985" lon="5.07487">
        <ele>879.6</ele>
        <time>2017-11-28T13:13:56.000Z</time>
      </trkpt>
      <trkpt lat="44.79977" lon="5.07478">
        <ele>874.94</ele>
        <time>2017-11-28T13:14:06.000Z</time>
      </trkpt>
      <trkpt lat="44.7997" lon="5.07468">
        <ele>870.3</ele>
        <time>2017-11-28T13:14:16.000Z</time>
      </trkpt>
      <trkpt lat="44.79963" lon="5.07463">
        <ele>867.46</ele>
        <time>2017-11-28T13:14:26.000Z</time>
      </trkpt>
      <trkpt lat="44.79958" lon="5.07454">
        <ele>863.93</ele>
        <time>2017-11-28T13:14:36.000Z</time>
      </trkpt>
      <trkpt lat="44.79955" lon="5.07445">
        <ele>861.09</ele>
        <time>2017-11-28T13:14:46.000Z</time>
      </trkpt>
      <trkpt lat="44.79951" lon="5.07445">
        <ele>860.96</ele>
        <time>2017-11-28T13:14:56.000Z</time>
      </trkpt>
      <trkpt lat="44.79947" lon="5.0744">
        <ele>859.37</ele>
        <time>2017-11-28T13:15:06.000Z</time>
      </trkpt>
      <trkpt lat="44.79943" lon="5.07436">
        <ele>858.18</ele>
        <time>2017-11-28T13:15:16.000Z</time>
      </trkpt>
      <trkpt lat="44.79944" lon="5.07435">
        <ele>857.98</ele>
        <time>2017-11-28T13:15:32.000Z</time>
      </trkpt>
      <trkpt lat="44.79945" lon="5.07434">
        <ele>857.8</ele>
        <time>2017-11-28T13:15:42.000Z</time>
      </trkpt>
      <trkpt lat="44.79945" lon="5.07433">
        <ele>857.4</ele>
        <time>2017-11-28T13:15:52.000Z</time>
      </trkpt>
      <trkpt lat="44.79944" lon="5.07432">
        <ele>857.12</ele>
        <time>2017-11-28T13:16:02.000Z</time>
      </trkpt>
      <trkpt lat="44.79945" lon="5.07434">
        <ele>857.86</ele>
        <time>2017-11-28T13:16:12.000Z</time>
      </trkpt>
      <trkpt lat="44.79945" lon="5.07433">
        <ele>857.44</ele>
        <time>2017-11-28T13:17:19.000Z</time>
      </trkpt>
      <trkpt lat="44.79946" lon="5.07433">
        <ele>857.33</ele>
        <time>2017-11-28T13:17:29.000Z</time>
      </trkpt>
      <trkpt lat="44.79944" lon="5.07433">
        <ele>857.58</ele>
        <time>2017-11-28T13:18:48.000Z</time>
      </trkpt>
      <trkpt lat="44.79938" lon="5.07436">
        <ele>858.19</ele>
        <time>2017-11-28T13:18:58.000Z</time>
      </trkpt>
      <trkpt lat="44.79932" lon="5.07435">
        <ele>857.9</ele>
        <time>2017-11-28T13:19:08.000Z</time>
      </trkpt>
      <trkpt lat="44.79928" lon="5.07433">
        <ele>857.46</ele>
        <time>2017-11-28T13:19:18.000Z</time>
      </trkpt>
      <trkpt lat="44.7992" lon="5.07427">
        <ele>856.34</ele>
        <time>2017-11-28T13:19:28.000Z</time>
      </trkpt>
      <trkpt lat="44.79913" lon="5.07427">
        <ele>856.25</ele>
        <time>2017-11-28T13:19:38.000Z</time>
      </trkpt>
      <trkpt lat="44.79907" lon="5.07422">
        <ele>855.17</ele>
        <time>2017-11-28T13:19:48.000Z</time>
      </trkpt>
      <trkpt lat="44.799" lon="5.07425">
        <ele>855.56</ele>
        <time>2017-11-28T13:19:58.000Z</time>
      </trkpt>
      <trkpt lat="44.79893" lon="5.07423">
        <ele>855.06</ele>
        <time>2017-11-28T13:20:08.000Z</time>
      </trkpt>
      <trkpt lat="44.79887" lon="5.07418">
        <ele>854.03</ele>
        <time>2017-11-28T13:20:18.000Z</time>
      </trkpt>
      <trkpt lat="44.79879" lon="5.07415">
        <ele>853.18</ele>
        <time>2017-11-28T13:20:28.000Z</time>
      </trkpt>
      <trkpt lat="44.79871" lon="5.07419">
        <ele>853.48</ele>
        <time>2017-11-28T13:20:38.000Z</time>
      </trkpt>
      <trkpt lat="44.79862" lon="5.07422">
        <ele>853.19</ele>
        <time>2017-11-28T13:20:48.000Z</time>
      </trkpt>
      <trkpt lat="44.79854" lon="5.07422">
        <ele>852.71</ele>
        <time>2017-11-28T13:20:58.000Z</time>
      </trkpt>
      <trkpt lat="44.79847" lon="5.07426">
        <ele>852.22</ele>
        <time>2017-11-28T13:21:08.000Z</time>
      </trkpt>
      <trkpt lat="44.79839" lon="5.07431">
        <ele>851.45</ele>
        <time>2017-11-28T13:21:18.000Z</time>
      </trkpt>
      <trkpt lat="44.79825" lon="5.07444">
        <ele>848.64</ele>
        <time>2017-11-28T13:21:28.000Z</time>
      </trkpt>
      <trkpt lat="44.79817" lon="5.07439">
        <ele>848.39</ele>
        <time>2017-11-28T13:21:38.000Z</time>
      </trkpt>
      <trkpt lat="44.7981" lon="5.07442">
        <ele>847.07</ele>
        <time>2017-11-28T13:21:48.000Z</time>
      </trkpt>
      <trkpt lat="44.79799" lon="5.07438">
        <ele>846.39</ele>
        <time>2017-11-28T13:21:58.000Z</time>
      </trkpt>
      <trkpt lat="44.7979" lon="5.07439">
        <ele>845.01</ele>
        <time>2017-11-28T13:22:08.000Z</time>
      </trkpt>
      <trkpt lat="44.79785" lon="5.07438">
        <ele>844.45</ele>
        <time>2017-11-28T13:22:18.000Z</time>
      </trkpt>
      <trkpt lat="44.79777" lon="5.07435">
        <ele>844.06</ele>
        <time>2017-11-28T13:22:28.000Z</time>
      </trkpt>
      <trkpt lat="44.79772" lon="5.07423">
        <ele>845.06</ele>
        <time>2017-11-28T13:22:38.000Z</time>
      </trkpt>
      <trkpt lat="44.79773" lon="5.07422">
        <ele>845.38</ele>
        <time>2017-11-28T13:22:48.000Z</time>
      </trkpt>
      <trkpt lat="44.79771" lon="5.07424">
        <ele>844.9</ele>
        <time>2017-11-28T13:22:58.000Z</time>
      </trkpt>
      <trkpt lat="44.79773" lon="5.07423">
        <ele>845.16</ele>
        <time>2017-11-28T13:24:56.000Z</time>
      </trkpt>
      <trkpt lat="44.7977" lon="5.07423">
        <ele>844.89</ele>
        <time>2017-11-28T13:25:06.000Z</time>
      </trkpt>
      <trkpt lat="44.79771" lon="5.07421">
        <ele>845.2</ele>
        <time>2017-11-28T13:25:16.000Z</time>
      </trkpt>
      <trkpt lat="44.79766" lon="5.07419">
        <ele>844.8</ele>
        <time>2017-11-28T13:25:26.000Z</time>
      </trkpt>
      <trkpt lat="44.79754" lon="5.07417">
        <ele>843.44</ele>
        <time>2017-11-28T13:25:36.000Z</time>
      </trkpt>
      <trkpt lat="44.79741" lon="5.07405">
        <ele>843.06</ele>
        <time>2017-11-28T13:25:46.000Z</time>
      </trkpt>
      <trkpt lat="44.79736" lon="5.07405">
        <ele>842.36</ele>
        <time>2017-11-28T13:25:56.000Z</time>
      </trkpt>
      <trkpt lat="44.79727" lon="5.07393">
        <ele>842.31</ele>
        <time>2017-11-28T13:26:06.000Z</time>
      </trkpt>
      <trkpt lat="44.79718" lon="5.07389">
        <ele>841.36</ele>
        <time>2017-11-28T13:26:16.000Z</time>
      </trkpt>
      <trkpt lat="44.79711" lon="5.07378">
        <ele>841.14</ele>
        <time>2017-11-28T13:26:26.000Z</time>
      </trkpt>
      <trkpt lat="44.79703" lon="5.07367">
        <ele>840.42</ele>
        <time>2017-11-28T13:26:36.000Z</time>
      </trkpt>
      <trkpt lat="44.79694" lon="5.07358">
        <ele>839.5</ele>
        <time>2017-11-28T13:26:46.000Z</time>
      </trkpt>
      <trkpt lat="44.79681" lon="5.07343">
        <ele>837.79</ele>
        <time>2017-11-28T13:26:56.000Z</time>
      </trkpt>
      <trkpt lat="44.79672" lon="5.07344">
        <ele>836.17</ele>
        <time>2017-11-28T13:27:06.000Z</time>
      </trkpt>
      <trkpt lat="44.79668" lon="5.07339">
        <ele>835.72</ele>
        <time>2017-11-28T13:27:16.000Z</time>
      </trkpt>
      <trkpt lat="44.79656" lon="5.07334">
        <ele>833.87</ele>
        <time>2017-11-28T13:27:26.000Z</time>
      </trkpt>
      <trkpt lat="44.79646" lon="5.07327">
        <ele>832.53</ele>
        <time>2017-11-28T13:27:36.000Z</time>
      </trkpt>
      <trkpt lat="44.79635" lon="5.07329">
        <ele>829.89</ele>
        <time>2017-11-28T13:27:46.000Z</time>
      </trkpt>
      <trkpt lat="44.79627" lon="5.07321">
        <ele>829.03</ele>
        <time>2017-11-28T13:27:56.000Z</time>
      </trkpt>
      <trkpt lat="44.7962" lon="5.07315">
        <ele>828.06</ele>
        <time>2017-11-28T13:28:06.000Z</time>
      </trkpt>
      <trkpt lat="44.79616" lon="5.07303">
        <ele>828.71</ele>
        <time>2017-11-28T13:28:16.000Z</time>
      </trkpt>
      <trkpt lat="44.7961" lon="5.07294">
        <ele>828.3</ele>
        <time>2017-11-28T13:28:26.000Z</time>
      </trkpt>
      <trkpt lat="44.79602" lon="5.07291">
        <ele>827.02</ele>
        <time>2017-11-28T13:28:36.000Z</time>
      </trkpt>
      <trkpt lat="44.79595" lon="5.07282">
        <ele>826.5</ele>
        <time>2017-11-28T13:28:46.000Z</time>
      </trkpt>
      <trkpt lat="44.79589" lon="5.07269">
        <ele>826.73</ele>
        <time>2017-11-28T13:28:56.000Z</time>
      </trkpt>
      <trkpt lat="44.79578" lon="5.07265">
        <ele>825.39</ele>
        <time>2017-11-28T13:29:06.000Z</time>
      </trkpt>
      <trkpt lat="44.79568" lon="5.07258">
        <ele>824.69</ele>
        <time>2017-11-28T13:29:16.000Z</time>
      </trkpt>
      <trkpt lat="44.79558" lon="5.07254">
        <ele>823.71</ele>
        <time>2017-11-28T13:29:26.000Z</time>
      </trkpt>
      <trkpt lat="44.79548" lon="5.07247">
        <ele>823.45</ele>
        <time>2017-11-28T13:29:36.000Z</time>
      </trkpt>
      <trkpt lat="44.79537" lon="5.0724">
        <ele>823.18</ele>
        <time>2017-11-28T13:29:46.000Z</time>
      </trkpt>
      <trkpt lat="44.79525" lon="5.07239">
        <ele>821.82</ele>
        <time>2017-11-28T13:29:56.000Z</time>
      </trkpt>
      <trkpt lat="44.79519" lon="5.07228">
        <ele>822.62</ele>
        <time>2017-11-28T13:30:06.000Z</time>
      </trkpt>
      <trkpt lat="44.79515" lon="5.07213">
        <ele>824.03</ele>
        <time>2017-11-28T13:30:16.000Z</time>
      </trkpt>
      <trkpt lat="44.79514" lon="5.07198">
        <ele>825.6</ele>
        <time>2017-11-28T13:30:26.000Z</time>
      </trkpt>
      <trkpt lat="44.79508" lon="5.07188">
        <ele>825.41</ele>
        <time>2017-11-28T13:30:36.000Z</time>
      </trkpt>
      <trkpt lat="44.79507" lon="5.07176">
        <ele>825.78</ele>
        <time>2017-11-28T13:30:46.000Z</time>
      </trkpt>
      <trkpt lat="44.79503" lon="5.07163">
        <ele>825.35</ele>
        <time>2017-11-28T13:30:56.000Z</time>
      </trkpt>
      <trkpt lat="44.79504" lon="5.07158">
        <ele>825.36</ele>
        <time>2017-11-28T13:31:06.000Z</time>
      </trkpt>
      <trkpt lat="44.79504" lon="5.07157">
        <ele>825.43</ele>
        <time>2017-11-28T13:31:16.000Z</time>
      </trkpt>
      <trkpt lat="44.79504" lon="5.07155">
        <ele>825.39</ele>
        <time>2017-11-28T13:31:30.000Z</time>
      </trkpt>
      <trkpt lat="44.79505" lon="5.07158">
        <ele>825.47</ele>
        <time>2017-11-28T13:36:08.000Z</time>
      </trkpt>
      <trkpt lat="44.79507" lon="5.07151">
        <ele>825.54</ele>
        <time>2017-11-28T13:36:18.000Z</time>
      </trkpt>
      <trkpt lat="44.79507" lon="5.07153">
        <ele>825.67</ele>
        <time>2017-11-28T13:36:28.000Z</time>
      </trkpt>
      <trkpt lat="44.79506" lon="5.07153">
        <ele>825.55</ele>
        <time>2017-11-28T13:36:38.000Z</time>
      </trkpt>
      <trkpt lat="44.7951" lon="5.07156">
        <ele>826.02</ele>
        <time>2017-11-28T13:36:48.000Z</time>
      </trkpt>
      <trkpt lat="44.7951" lon="5.07151">
        <ele>825.87</ele>
        <time>2017-11-28T13:36:58.000Z</time>
      </trkpt>
      <trkpt lat="44.79509" lon="5.07149">
        <ele>825.67</ele>
        <time>2017-11-28T13:37:08.000Z</time>
      </trkpt>
      <trkpt lat="44.79508" lon="5.07149">
        <ele>825.59</ele>
        <time>2017-11-28T13:37:28.000Z</time>
      </trkpt>
      <trkpt lat="44.79509" lon="5.07147">
        <ele>825.55</ele>
        <time>2017-11-28T13:37:38.000Z</time>
      </trkpt>
      <trkpt lat="44.79509" lon="5.07143">
        <ele>825.38</ele>
        <time>2017-11-28T13:37:48.000Z</time>
      </trkpt>
      <trkpt lat="44.79507" lon="5.0714">
        <ele>825.09</ele>
        <time>2017-11-28T13:37:58.000Z</time>
      </trkpt>
      <trkpt lat="44.79506" lon="5.07141">
        <ele>825.05</ele>
        <time>2017-11-28T13:38:13.000Z</time>
      </trkpt>
      <trkpt lat="44.79512" lon="5.07136">
        <ele>825.09</ele>
        <time>2017-11-28T13:38:23.000Z</time>
      </trkpt>
      <trkpt lat="44.79518" lon="5.07129">
        <ele>824.78</ele>
        <time>2017-11-28T13:38:33.000Z</time>
      </trkpt>
      <trkpt lat="44.79519" lon="5.07133">
        <ele>825.27</ele>
        <time>2017-11-28T13:38:43.000Z</time>
      </trkpt>
      <trkpt lat="44.79519" lon="5.07134">
        <ele>825.44</ele>
        <time>2017-11-28T13:38:53.000Z</time>
      </trkpt>
      <trkpt lat="44.79511" lon="5.07129">
        <ele>824.42</ele>
        <time>2017-11-28T13:39:03.000Z</time>
      </trkpt>
      <trkpt lat="44.79511" lon="5.07131">
        <ele>824.61</ele>
        <time>2017-11-28T13:39:13.000Z</time>
      </trkpt>
      <trkpt lat="44.79513" lon="5.07131">
        <ele>824.77</ele>
        <time>2017-11-28T13:39:58.000Z</time>
      </trkpt>
      <trkpt lat="44.79517" lon="5.07135">
        <ele>825.42</ele>
        <time>2017-11-28T13:40:08.000Z</time>
      </trkpt>
      <trkpt lat="44.79514" lon="5.07139">
        <ele>825.56</ele>
        <time>2017-11-28T13:40:18.000Z</time>
      </trkpt>
      <trkpt lat="44.79515" lon="5.07138">
        <ele>825.58</ele>
        <time>2017-11-28T13:40:28.000Z</time>
      </trkpt>
      <trkpt lat="44.79514" lon="5.07138">
        <ele>825.43</ele>
        <time>2017-11-28T13:40:43.000Z</time>
      </trkpt>
      <trkpt lat="44.79514" lon="5.07127">
        <ele>824.39</ele>
        <time>2017-11-28T13:40:53.000Z</time>
      </trkpt>
      <trkpt lat="44.79516" lon="5.07114">
        <ele>822.58</ele>
        <time>2017-11-28T13:41:03.000Z</time>
      </trkpt>
      <trkpt lat="44.79516" lon="5.07109">
        <ele>821.57</ele>
        <time>2017-11-28T13:41:13.000Z</time>
      </trkpt>
      <trkpt lat="44.79517" lon="5.07104">
        <ele>820.52</ele>
        <time>2017-11-28T13:41:23.000Z</time>
      </trkpt>
      <trkpt lat="44.79521" lon="5.07113">
        <ele>822.44</ele>
        <time>2017-11-28T13:41:33.000Z</time>
      </trkpt>
      <trkpt lat="44.79521" lon="5.07112">
        <ele>822.16</ele>
        <time>2017-11-28T13:41:43.000Z</time>
      </trkpt>
      <trkpt lat="44.79522" lon="5.07115">
        <ele>822.73</ele>
        <time>2017-11-28T13:42:22.000Z</time>
      </trkpt>
      <trkpt lat="44.79533" lon="5.07125">
        <ele>825.06</ele>
        <time>2017-11-28T13:42:32.000Z</time>
      </trkpt>
      <trkpt lat="44.79538" lon="5.07128">
        <ele>825.88</ele>
        <time>2017-11-28T13:42:42.000Z</time>
      </trkpt>
      <trkpt lat="44.79548" lon="5.07134">
        <ele>827.46</ele>
        <time>2017-11-28T13:42:52.000Z</time>
      </trkpt>
      <trkpt lat="44.79556" lon="5.07136">
        <ele>828.3</ele>
        <time>2017-11-28T13:43:02.000Z</time>
      </trkpt>
      <trkpt lat="44.79562" lon="5.07142">
        <ele>829.83</ele>
        <time>2017-11-28T13:43:12.000Z</time>
      </trkpt>
      <trkpt lat="44.79562" lon="5.07143">
        <ele>830.05</ele>
        <time>2017-11-28T13:43:22.000Z</time>
      </trkpt>
      <trkpt lat="44.79565" lon="5.07144">
        <ele>830.42</ele>
        <time>2017-11-28T13:43:33.000Z</time>
      </trkpt>
      <trkpt lat="44.79572" lon="5.0715">
        <ele>831.86</ele>
        <time>2017-11-28T13:43:43.000Z</time>
      </trkpt>
      <trkpt lat="44.79577" lon="5.0716">
        <ele>833.78</ele>
        <time>2017-11-28T13:43:53.000Z</time>
      </trkpt>
      <trkpt lat="44.79584" lon="5.07162">
        <ele>834.57</ele>
        <time>2017-11-28T13:44:03.000Z</time>
      </trkpt>
      <trkpt lat="44.79593" lon="5.07169">
        <ele>836.2</ele>
        <time>2017-11-28T13:44:13.000Z</time>
      </trkpt>
      <trkpt lat="44.79596" lon="5.07175">
        <ele>836.89</ele>
        <time>2017-11-28T13:44:23.000Z</time>
      </trkpt>
      <trkpt lat="44.79604" lon="5.07178">
        <ele>838.01</ele>
        <time>2017-11-28T13:44:33.000Z</time>
      </trkpt>
      <trkpt lat="44.79614" lon="5.07183">
        <ele>839.65</ele>
        <time>2017-11-28T13:44:43.000Z</time>
      </trkpt>
      <trkpt lat="44.79618" lon="5.07187">
        <ele>840.23</ele>
        <time>2017-11-28T13:44:53.000Z</time>
      </trkpt>
      <trkpt lat="44.79626" lon="5.07193">
        <ele>841.34</ele>
        <time>2017-11-28T13:45:03.000Z</time>
      </trkpt>
      <trkpt lat="44.79633" lon="5.07192">
        <ele>842.06</ele>
        <time>2017-11-28T13:45:13.000Z</time>
      </trkpt>
      <trkpt lat="44.79643" lon="5.07194">
        <ele>842.89</ele>
        <time>2017-11-28T13:45:23.000Z</time>
      </trkpt>
      <trkpt lat="44.79648" lon="5.07191">
        <ele>842.96</ele>
        <time>2017-11-28T13:45:33.000Z</time>
      </trkpt>
      <trkpt lat="44.79655" lon="5.07188">
        <ele>842.7</ele>
        <time>2017-11-28T13:45:43.000Z</time>
      </trkpt>
      <trkpt lat="44.79658" lon="5.07185">
        <ele>842.25</ele>
        <time>2017-11-28T13:45:53.000Z</time>
      </trkpt>
      <trkpt lat="44.79668" lon="5.0719">
        <ele>841.82</ele>
        <time>2017-11-28T13:46:03.000Z</time>
      </trkpt>
      <trkpt lat="44.79677" lon="5.07195">
        <ele>840.88</ele>
        <time>2017-11-28T13:46:13.000Z</time>
      </trkpt>
      <trkpt lat="44.7969" lon="5.07201">
        <ele>838.82</ele>
        <time>2017-11-28T13:46:23.000Z</time>
      </trkpt>
      <trkpt lat="44.79693" lon="5.07206">
        <ele>838.87</ele>
        <time>2017-11-28T13:46:33.000Z</time>
      </trkpt>
      <trkpt lat="44.79694" lon="5.07206">
        <ele>838.6</ele>
        <time>2017-11-28T13:46:43.000Z</time>
      </trkpt>
      <trkpt lat="44.79699" lon="5.07211">
        <ele>838.06</ele>
        <time>2017-11-28T13:46:53.000Z</time>
      </trkpt>
      <trkpt lat="44.79701" lon="5.07212">
        <ele>837.6</ele>
        <time>2017-11-28T13:47:03.000Z</time>
      </trkpt>
      <trkpt lat="44.79702" lon="5.0721">
        <ele>837.18</ele>
        <time>2017-11-28T13:47:13.000Z</time>
      </trkpt>
      <trkpt lat="44.79704" lon="5.07212">
        <ele>836.82</ele>
        <time>2017-11-28T13:47:47.000Z</time>
      </trkpt>
      <trkpt lat="44.79707" lon="5.07214">
        <ele>836.54</ele>
        <time>2017-11-28T13:47:57.000Z</time>
      </trkpt>
      <trkpt lat="44.79721" lon="5.07223">
        <ele>834.17</ele>
        <time>2017-11-28T13:48:07.000Z</time>
      </trkpt>
      <trkpt lat="44.79738" lon="5.0723">
        <ele>830.45</ele>
        <time>2017-11-28T13:48:17.000Z</time>
      </trkpt>
      <trkpt lat="44.79742" lon="5.07233">
        <ele>830.08</ele>
        <time>2017-11-28T13:48:27.000Z</time>
      </trkpt>
      <trkpt lat="44.79748" lon="5.07241">
        <ele>830.44</ele>
        <time>2017-11-28T13:48:37.000Z</time>
      </trkpt>
      <trkpt lat="44.79754" lon="5.0725">
        <ele>830.71</ele>
        <time>2017-11-28T13:48:47.000Z</time>
      </trkpt>
      <trkpt lat="44.79762" lon="5.0725">
        <ele>827.86</ele>
        <time>2017-11-28T13:48:57.000Z</time>
      </trkpt>
      <trkpt lat="44.79772" lon="5.07251">
        <ele>824.08</ele>
        <time>2017-11-28T13:49:07.000Z</time>
      </trkpt>
      <trkpt lat="44.79771" lon="5.07263">
        <ele>828.2</ele>
        <time>2017-11-28T13:49:17.000Z</time>
      </trkpt>
      <trkpt lat="44.79776" lon="5.07276">
        <ele>830.12</ele>
        <time>2017-11-28T13:49:27.000Z</time>
      </trkpt>
      <trkpt lat="44.79779" lon="5.07276">
        <ele>828.65</ele>
        <time>2017-11-28T13:49:37.000Z</time>
      </trkpt>
      <trkpt lat="44.7978" lon="5.07275">
        <ele>828.21</ele>
        <time>2017-11-28T13:50:11.000Z</time>
      </trkpt>
      <trkpt lat="44.79785" lon="5.07279">
        <ele>827.38</ele>
        <time>2017-11-28T13:50:36.000Z</time>
      </trkpt>
      <trkpt lat="44.79811" lon="5.07298">
        <ele>824.75</ele>
        <time>2017-11-28T13:50:46.000Z</time>
      </trkpt>
      <trkpt lat="44.79826" lon="5.07301">
        <ele>820.99</ele>
        <time>2017-11-28T13:50:56.000Z</time>
      </trkpt>
      <trkpt lat="44.79838" lon="5.07298">
        <ele>816.37</ele>
        <time>2017-11-28T13:51:06.000Z</time>
      </trkpt>
      <trkpt lat="44.79846" lon="5.07297">
        <ele>813.55</ele>
        <time>2017-11-28T13:51:16.000Z</time>
      </trkpt>
      <trkpt lat="44.79854" lon="5.07299">
        <ele>812.66</ele>
        <time>2017-11-28T13:51:26.000Z</time>
      </trkpt>
      <trkpt lat="44.79856" lon="5.073">
        <ele>812.76</ele>
        <time>2017-11-28T13:51:36.000Z</time>
      </trkpt>
      <trkpt lat="44.79857" lon="5.07299">
        <ele>812.24</ele>
        <time>2017-11-28T13:51:57.000Z</time>
      </trkpt>
      <trkpt lat="44.79865" lon="5.07292">
        <ele>806.56</ele>
        <time>2017-11-28T13:52:07.000Z</time>
      </trkpt>
      <trkpt lat="44.79877" lon="5.07289">
        <ele>801.68</ele>
        <time>2017-11-28T13:52:17.000Z</time>
      </trkpt>
      <trkpt lat="44.79891" lon="5.07293">
        <ele>800.58</ele>
        <time>2017-11-28T13:52:27.000Z</time>
      </trkpt>
      <trkpt lat="44.79903" lon="5.07293">
        <ele>797.94</ele>
        <time>2017-11-28T13:52:37.000Z</time>
      </trkpt>
      <trkpt lat="44.7991" lon="5.07288">
        <ele>793.77</ele>
        <time>2017-11-28T13:52:47.000Z</time>
      </trkpt>
      <trkpt lat="44.79914" lon="5.07287">
        <ele>792.41</ele>
        <time>2017-11-28T13:52:57.000Z</time>
      </trkpt>
      <trkpt lat="44.79922" lon="5.07286">
        <ele>789.68</ele>
        <time>2017-11-28T13:53:07.000Z</time>
      </trkpt>
      <trkpt lat="44.79928" lon="5.07285">
        <ele>787.84</ele>
        <time>2017-11-28T13:53:17.000Z</time>
      </trkpt>
      <trkpt lat="44.79932" lon="5.07269">
        <ele>778.48</ele>
        <time>2017-11-28T13:53:27.000Z</time>
      </trkpt>
      <trkpt lat="44.79945" lon="5.07273">
        <ele>777.89</ele>
        <time>2017-11-28T13:53:37.000Z</time>
      </trkpt>
      <trkpt lat="44.79949" lon="5.07267">
        <ele>773.78</ele>
        <time>2017-11-28T13:53:47.000Z</time>
      </trkpt>
      <trkpt lat="44.7996" lon="5.0727">
        <ele>773.76</ele>
        <time>2017-11-28T13:53:57.000Z</time>
      </trkpt>
      <trkpt lat="44.79969" lon="5.07271">
        <ele>772.91</ele>
        <time>2017-11-28T13:54:07.000Z</time>
      </trkpt>
      <trkpt lat="44.79973" lon="5.07268">
        <ele>770.83</ele>
        <time>2017-11-28T13:54:17.000Z</time>
      </trkpt>
      <trkpt lat="44.79979" lon="5.07264">
        <ele>767.96</ele>
        <time>2017-11-28T13:54:27.000Z</time>
      </trkpt>
      <trkpt lat="44.79988" lon="5.07263">
        <ele>766.14</ele>
        <time>2017-11-28T13:54:37.000Z</time>
      </trkpt>
      <trkpt lat="44.79994" lon="5.07262">
        <ele>765.39</ele>
        <time>2017-11-28T13:54:47.000Z</time>
      </trkpt>
      <trkpt lat="44.79999" lon="5.07254">
        <ele>760.81</ele>
        <time>2017-11-28T13:54:57.000Z</time>
      </trkpt>
      <trkpt lat="44.80005" lon="5.07252">
        <ele>759.57</ele>
        <time>2017-11-28T13:55:07.000Z</time>
      </trkpt>
      <trkpt lat="44.8001" lon="5.0725">
        <ele>758.49</ele>
        <time>2017-11-28T13:55:17.000Z</time>
      </trkpt>
      <trkpt lat="44.8002" lon="5.07249">
        <ele>757.44</ele>
        <time>2017-11-28T13:55:27.000Z</time>
      </trkpt>
      <trkpt lat="44.80029" lon="5.07247">
        <ele>756.73</ele>
        <time>2017-11-28T13:55:37.000Z</time>
      </trkpt>
      <trkpt lat="44.80035" lon="5.0724">
        <ele>752.87</ele>
        <time>2017-11-28T13:55:47.000Z</time>
      </trkpt>
      <trkpt lat="44.80042" lon="5.07233">
        <ele>749.92</ele>
        <time>2017-11-28T13:55:57.000Z</time>
      </trkpt>
      <trkpt lat="44.80049" lon="5.07228">
        <ele>747.62</ele>
        <time>2017-11-28T13:56:07.000Z</time>
      </trkpt>
      <trkpt lat="44.80058" lon="5.07221">
        <ele>744.51</ele>
        <time>2017-11-28T13:56:17.000Z</time>
      </trkpt>
      <trkpt lat="44.80065" lon="5.0722">
        <ele>744.03</ele>
        <time>2017-11-28T13:56:27.000Z</time>
      </trkpt>
      <trkpt lat="44.80074" lon="5.07217">
        <ele>742.84</ele>
        <time>2017-11-28T13:56:37.000Z</time>
      </trkpt>
      <trkpt lat="44.80079" lon="5.07212">
        <ele>740.69</ele>
        <time>2017-11-28T13:56:47.000Z</time>
      </trkpt>
      <trkpt lat="44.80085" lon="5.07204">
        <ele>736.74</ele>
        <time>2017-11-28T13:56:57.000Z</time>
      </trkpt>
      <trkpt lat="44.80092" lon="5.07199">
        <ele>734.83</ele>
        <time>2017-11-28T13:57:07.000Z</time>
      </trkpt>
      <trkpt lat="44.80101" lon="5.07205">
        <ele>737.57</ele>
        <time>2017-11-28T13:57:17.000Z</time>
      </trkpt>
      <trkpt lat="44.80102" lon="5.07194">
        <ele>732.65</ele>
        <time>2017-11-28T13:57:27.000Z</time>
      </trkpt>
      <trkpt lat="44.80109" lon="5.07192">
        <ele>731.47</ele>
        <time>2017-11-28T13:57:37.000Z</time>
      </trkpt>
      <trkpt lat="44.80116" lon="5.07188">
        <ele>729.57</ele>
        <time>2017-11-28T13:57:47.000Z</time>
      </trkpt>
      <trkpt lat="44.80126" lon="5.07189">
        <ele>730.3</ele>
        <time>2017-11-28T13:57:57.000Z</time>
      </trkpt>
      <trkpt lat="44.80133" lon="5.07185">
        <ele>728.25</ele>
        <time>2017-11-28T13:58:07.000Z</time>
      </trkpt>
      <trkpt lat="44.80144" lon="5.07184">
        <ele>727.84</ele>
        <time>2017-11-28T13:58:17.000Z</time>
      </trkpt>
      <trkpt lat="44.80153" lon="5.07178">
        <ele>725.06</ele>
        <time>2017-11-28T13:58:27.000Z</time>
      </trkpt>
      <trkpt lat="44.80159" lon="5.07173">
        <ele>722.89</ele>
        <time>2017-11-28T13:58:37.000Z</time>
      </trkpt>
      <trkpt lat="44.80166" lon="5.07172">
        <ele>722.4</ele>
        <time>2017-11-28T13:58:47.000Z</time>
      </trkpt>
      <trkpt lat="44.80177" lon="5.07169">
        <ele>721.21</ele>
        <time>2017-11-28T13:58:57.000Z</time>
      </trkpt>
      <trkpt lat="44.80187" lon="5.07171">
        <ele>722.21</ele>
        <time>2017-11-28T13:59:07.000Z</time>
      </trkpt>
      <trkpt lat="44.80198" lon="5.07161">
        <ele>718.08</ele>
        <time>2017-11-28T13:59:17.000Z</time>
      </trkpt>
      <trkpt lat="44.80207" lon="5.0716">
        <ele>717.95</ele>
        <time>2017-11-28T13:59:27.000Z</time>
      </trkpt>
      <trkpt lat="44.80217" lon="5.07157">
        <ele>716.8</ele>
        <time>2017-11-28T13:59:37.000Z</time>
      </trkpt>
      <trkpt lat="44.80225" lon="5.07146">
        <ele>711.53</ele>
        <time>2017-11-28T13:59:47.000Z</time>
      </trkpt>
      <trkpt lat="44.80233" lon="5.07138">
        <ele>708.21</ele>
        <time>2017-11-28T13:59:57.000Z</time>
      </trkpt>
      <trkpt lat="44.80241" lon="5.07131">
        <ele>704.91</ele>
        <time>2017-11-28T14:00:07.000Z</time>
      </trkpt>
      <trkpt lat="44.80252" lon="5.07131">
        <ele>704.83</ele>
        <time>2017-11-28T14:00:17.000Z</time>
      </trkpt>
      <trkpt lat="44.80261" lon="5.0713">
        <ele>704.06</ele>
        <time>2017-11-28T14:00:27.000Z</time>
      </trkpt>
      <trkpt lat="44.80269" lon="5.07127">
        <ele>702.77</ele>
        <time>2017-11-28T14:00:37.000Z</time>
      </trkpt>
      <trkpt lat="44.80275" lon="5.07125">
        <ele>701.85</ele>
        <time>2017-11-28T14:00:47.000Z</time>
      </trkpt>
      <trkpt lat="44.80287" lon="5.07122">
        <ele>699.92</ele>
        <time>2017-11-28T14:00:57.000Z</time>
      </trkpt>
      <trkpt lat="44.80298" lon="5.07117">
        <ele>697.43</ele>
        <time>2017-11-28T14:01:07.000Z</time>
      </trkpt>
      <trkpt lat="44.80308" lon="5.07108">
        <ele>692.72</ele>
        <time>2017-11-28T14:01:17.000Z</time>
      </trkpt>
      <trkpt lat="44.80318" lon="5.07099">
        <ele>688.52</ele>
        <time>2017-11-28T14:01:27.000Z</time>
      </trkpt>
      <trkpt lat="44.80327" lon="5.07093">
        <ele>685.88</ele>
        <time>2017-11-28T14:01:37.000Z</time>
      </trkpt>
      <trkpt lat="44.80338" lon="5.07086">
        <ele>683.24</ele>
        <time>2017-11-28T14:01:47.000Z</time>
      </trkpt>
      <trkpt lat="44.80346" lon="5.07081">
        <ele>681.44</ele>
        <time>2017-11-28T14:01:57.000Z</time>
      </trkpt>
      <trkpt lat="44.80354" lon="5.07082">
        <ele>682.69</ele>
        <time>2017-11-28T14:02:07.000Z</time>
      </trkpt>
      <trkpt lat="44.80363" lon="5.07083">
        <ele>683.75</ele>
        <time>2017-11-28T14:02:17.000Z</time>
      </trkpt>
      <trkpt lat="44.80373" lon="5.07076">
        <ele>681.52</ele>
        <time>2017-11-28T14:02:27.000Z</time>
      </trkpt>
      <trkpt lat="44.80381" lon="5.0707">
        <ele>679.79</ele>
        <time>2017-11-28T14:02:37.000Z</time>
      </trkpt>
      <trkpt lat="44.80388" lon="5.07057">
        <ele>674.77</ele>
        <time>2017-11-28T14:02:47.000Z</time>
      </trkpt>
      <trkpt lat="44.80395" lon="5.07058">
        <ele>675.57</ele>
        <time>2017-11-28T14:02:57.000Z</time>
      </trkpt>
      <trkpt lat="44.80397" lon="5.07046">
        <ele>670.94</ele>
        <time>2017-11-28T14:03:07.000Z</time>
      </trkpt>
      <trkpt lat="44.80404" lon="5.07047">
        <ele>671.52</ele>
        <time>2017-11-28T14:03:17.000Z</time>
      </trkpt>
      <trkpt lat="44.80411" lon="5.07039">
        <ele>668.42</ele>
        <time>2017-11-28T14:03:27.000Z</time>
      </trkpt>
      <trkpt lat="44.80417" lon="5.07036">
        <ele>667.68</ele>
        <time>2017-11-28T14:03:37.000Z</time>
      </trkpt>
      <trkpt lat="44.80424" lon="5.07029">
        <ele>664.72</ele>
        <time>2017-11-28T14:03:47.000Z</time>
      </trkpt>
      <trkpt lat="44.80428" lon="5.0703">
        <ele>665.21</ele>
        <time>2017-11-28T14:03:57.000Z</time>
      </trkpt>
      <trkpt lat="44.80438" lon="5.07025">
        <ele>663.21</ele>
        <time>2017-11-28T14:04:07.000Z</time>
      </trkpt>
      <trkpt lat="44.80448" lon="5.07021">
        <ele>661.6</ele>
        <time>2017-11-28T14:04:17.000Z</time>
      </trkpt>
      <trkpt lat="44.80453" lon="5.07019">
        <ele>660.52</ele>
        <time>2017-11-28T14:04:27.000Z</time>
      </trkpt>
      <trkpt lat="44.80461" lon="5.07016">
        <ele>659.63</ele>
        <time>2017-11-28T14:04:37.000Z</time>
      </trkpt>
      <trkpt lat="44.80471" lon="5.0701">
        <ele>656.9</ele>
        <time>2017-11-28T14:04:47.000Z</time>
      </trkpt>
      <trkpt lat="44.80481" lon="5.07007">
        <ele>655.57</ele>
        <time>2017-11-28T14:04:57.000Z</time>
      </trkpt>
      <trkpt lat="44.80487" lon="5.07">
        <ele>652.99</ele>
        <time>2017-11-28T14:05:07.000Z</time>
      </trkpt>
      <trkpt lat="44.80496" lon="5.06996">
        <ele>651.1</ele>
        <time>2017-11-28T14:05:17.000Z</time>
      </trkpt>
      <trkpt lat="44.80503" lon="5.06986">
        <ele>647.6</ele>
        <time>2017-11-28T14:05:27.000Z</time>
      </trkpt>
      <trkpt lat="44.80511" lon="5.06978">
        <ele>644.53</ele>
        <time>2017-11-28T14:05:37.000Z</time>
      </trkpt>
      <trkpt lat="44.8052" lon="5.06971">
        <ele>642.14</ele>
        <time>2017-11-28T14:05:47.000Z</time>
      </trkpt>
      <trkpt lat="44.80528" lon="5.06965">
        <ele>640.16</ele>
        <time>2017-11-28T14:05:57.000Z</time>
      </trkpt>
      <trkpt lat="44.80534" lon="5.06952">
        <ele>635.79</ele>
        <time>2017-11-28T14:06:07.000Z</time>
      </trkpt>
      <trkpt lat="44.80535" lon="5.06953">
        <ele>636.11</ele>
        <time>2017-11-28T14:06:17.000Z</time>
      </trkpt>
      <trkpt lat="44.80534" lon="5.06949">
        <ele>634.7</ele>
        <time>2017-11-28T14:06:55.000Z</time>
      </trkpt>
      <trkpt lat="44.80539" lon="5.06943">
        <ele>632.68</ele>
        <time>2017-11-28T14:07:05.000Z</time>
      </trkpt>
      <trkpt lat="44.80548" lon="5.06937">
        <ele>631.17</ele>
        <time>2017-11-28T14:07:15.000Z</time>
      </trkpt>
      <trkpt lat="44.80559" lon="5.06929">
        <ele>629.02</ele>
        <time>2017-11-28T14:07:25.000Z</time>
      </trkpt>
      <trkpt lat="44.8057" lon="5.06924">
        <ele>628.31</ele>
        <time>2017-11-28T14:07:35.000Z</time>
      </trkpt>
      <trkpt lat="44.80579" lon="5.0692">
        <ele>627.51</ele>
        <time>2017-11-28T14:07:45.000Z</time>
      </trkpt>
      <trkpt lat="44.80586" lon="5.06912">
        <ele>625.6</ele>
        <time>2017-11-28T14:07:55.000Z</time>
      </trkpt>
      <trkpt lat="44.806" lon="5.06908">
        <ele>625.91</ele>
        <time>2017-11-28T14:08:05.000Z</time>
      </trkpt>
      <trkpt lat="44.8061" lon="5.06905">
        <ele>626.13</ele>
        <time>2017-11-28T14:08:15.000Z</time>
      </trkpt>
      <trkpt lat="44.80621" lon="5.06902">
        <ele>626.25</ele>
        <time>2017-11-28T14:08:25.000Z</time>
      </trkpt>
      <trkpt lat="44.80634" lon="5.06901">
        <ele>627.82</ele>
        <time>2017-11-28T14:08:35.000Z</time>
      </trkpt>
      <trkpt lat="44.80646" lon="5.06892">
        <ele>626.66</ele>
        <time>2017-11-28T14:08:45.000Z</time>
      </trkpt>
      <trkpt lat="44.80657" lon="5.06885">
        <ele>626.28</ele>
        <time>2017-11-28T14:08:55.000Z</time>
      </trkpt>
      <trkpt lat="44.80667" lon="5.06877">
        <ele>625.57</ele>
        <time>2017-11-28T14:09:05.000Z</time>
      </trkpt>
      <trkpt lat="44.80672" lon="5.06865">
        <ele>622.58</ele>
        <time>2017-11-28T14:09:15.000Z</time>
      </trkpt>
      <trkpt lat="44.80675" lon="5.06855">
        <ele>619.99</ele>
        <time>2017-11-28T14:09:25.000Z</time>
      </trkpt>
      <trkpt lat="44.80676" lon="5.06843">
        <ele>616.74</ele>
        <time>2017-11-28T14:09:35.000Z</time>
      </trkpt>
      <trkpt lat="44.8068" lon="5.06831">
        <ele>613.74</ele>
        <time>2017-11-28T14:09:45.000Z</time>
      </trkpt>
      <trkpt lat="44.8068" lon="5.06826">
        <ele>612.45</ele>
        <time>2017-11-28T14:09:55.000Z</time>
      </trkpt>
      <trkpt lat="44.8068" lon="5.06825">
        <ele>612.02</ele>
        <time>2017-11-28T14:10:05.000Z</time>
      </trkpt>
      <trkpt lat="44.80676" lon="5.068">
        <ele>604.73</ele>
        <time>2017-11-28T14:10:15.000Z</time>
      </trkpt>
      <trkpt lat="44.80676" lon="5.06793">
        <ele>602.94</ele>
        <time>2017-11-28T14:10:25.000Z</time>
      </trkpt>
      <trkpt lat="44.80675" lon="5.06792">
        <ele>602.52</ele>
        <time>2017-11-28T14:10:35.000Z</time>
      </trkpt>
      <trkpt lat="44.80674" lon="5.06789">
        <ele>601.68</ele>
        <time>2017-11-28T14:11:21.000Z</time>
      </trkpt>
      <trkpt lat="44.80672" lon="5.06776">
        <ele>598.1</ele>
        <time>2017-11-28T14:11:31.000Z</time>
      </trkpt>
      <trkpt lat="44.8067" lon="5.06771">
        <ele>596.6</ele>
        <time>2017-11-28T14:11:41.000Z</time>
      </trkpt>
      <trkpt lat="44.80669" lon="5.06766">
        <ele>595.13</ele>
        <time>2017-11-28T14:11:51.000Z</time>
      </trkpt>
      <trkpt lat="44.80668" lon="5.06761">
        <ele>593.63</ele>
        <time>2017-11-28T14:12:01.000Z</time>
      </trkpt>
      <trkpt lat="44.80666" lon="5.06757">
        <ele>592.65</ele>
        <time>2017-11-28T14:12:11.000Z</time>
      </trkpt>
      <trkpt lat="44.80665" lon="5.06751">
        <ele>590.85</ele>
        <time>2017-11-28T14:12:21.000Z</time>
      </trkpt>
      <trkpt lat="44.80664" lon="5.06747">
        <ele>589.79</ele>
        <time>2017-11-28T14:12:35.000Z</time>
      </trkpt>
      <trkpt lat="44.80666" lon="5.06727">
        <ele>585.65</ele>
        <time>2017-11-28T14:12:45.000Z</time>
      </trkpt>
      <trkpt lat="44.80662" lon="5.06716">
        <ele>582.48</ele>
        <time>2017-11-28T14:12:55.000Z</time>
      </trkpt>
      <trkpt lat="44.80655" lon="5.06703">
        <ele>578.53</ele>
        <time>2017-11-28T14:13:05.000Z</time>
      </trkpt>
      <trkpt lat="44.80655" lon="5.06696">
        <ele>576.97</ele>
        <time>2017-11-28T14:13:15.000Z</time>
      </trkpt>
      <trkpt lat="44.80653" lon="5.06692">
        <ele>575.94</ele>
        <time>2017-11-28T14:13:25.000Z</time>
      </trkpt>
      <trkpt lat="44.80654" lon="5.06691">
        <ele>575.91</ele>
        <time>2017-11-28T14:13:35.000Z</time>
      </trkpt>
      <trkpt lat="44.80654" lon="5.06689">
        <ele>575.43</ele>
        <time>2017-11-28T14:15:48.000Z</time>
      </trkpt>
      <trkpt lat="44.80655" lon="5.06691">
        <ele>575.82</ele>
        <time>2017-11-28T14:16:04.000Z</time>
      </trkpt>
      <trkpt lat="44.80655" lon="5.06688">
        <ele>575.39</ele>
        <time>2017-11-28T14:16:53.000Z</time>
      </trkpt>
      <trkpt lat="44.80656" lon="5.06682">
        <ele>574.35</ele>
        <time>2017-11-28T14:17:03.000Z</time>
      </trkpt>
      <trkpt lat="44.80659" lon="5.06666">
        <ele>571.74</ele>
        <time>2017-11-28T14:17:13.000Z</time>
      </trkpt>
      <trkpt lat="44.80662" lon="5.06656">
        <ele>570.11</ele>
        <time>2017-11-28T14:17:23.000Z</time>
      </trkpt>
      <trkpt lat="44.80661" lon="5.06644">
        <ele>567.75</ele>
        <time>2017-11-28T14:17:33.000Z</time>
      </trkpt>
      <trkpt lat="44.80662" lon="5.06635">
        <ele>566.25</ele>
        <time>2017-11-28T14:17:43.000Z</time>
      </trkpt>
      <trkpt lat="44.80666" lon="5.0663">
        <ele>565.78</ele>
        <time>2017-11-28T14:17:53.000Z</time>
      </trkpt>
      <trkpt lat="44.80668" lon="5.06629">
        <ele>565.8</ele>
        <time>2017-11-28T14:18:33.000Z</time>
      </trkpt>
      <trkpt lat="44.80679" lon="5.06618">
        <ele>564.94</ele>
        <time>2017-11-28T14:18:43.000Z</time>
      </trkpt>
      <trkpt lat="44.80681" lon="5.06611">
        <ele>563.83</ele>
        <time>2017-11-28T14:18:53.000Z</time>
      </trkpt>
      <trkpt lat="44.80682" lon="5.06607">
        <ele>563.18</ele>
        <time>2017-11-28T14:19:03.000Z</time>
      </trkpt>
      <trkpt lat="44.80681" lon="5.06604">
        <ele>562.4</ele>
        <time>2017-11-28T14:19:16.000Z</time>
      </trkpt>
      <trkpt lat="44.80678" lon="5.0659">
        <ele>559.23</ele>
        <time>2017-11-28T14:19:26.000Z</time>
      </trkpt>
      <trkpt lat="44.80674" lon="5.06581">
        <ele>557.1</ele>
        <time>2017-11-28T14:19:36.000Z</time>
      </trkpt>
      <trkpt lat="44.80668" lon="5.06576">
        <ele>555.67</ele>
        <time>2017-11-28T14:19:46.000Z</time>
      </trkpt>
      <trkpt lat="44.80663" lon="5.06567">
        <ele>553.38</ele>
        <time>2017-11-28T14:19:56.000Z</time>
      </trkpt>
      <trkpt lat="44.80659" lon="5.06564">
        <ele>552.3</ele>
        <time>2017-11-28T14:20:06.000Z</time>
      </trkpt>
      <trkpt lat="44.80652" lon="5.06558">
        <ele>550.59</ele>
        <time>2017-11-28T14:20:16.000Z</time>
      </trkpt>
      <trkpt lat="44.80647" lon="5.06554">
        <ele>549.55</ele>
        <time>2017-11-28T14:20:26.000Z</time>
      </trkpt>
      <trkpt lat="44.8064" lon="5.06551">
        <ele>548.55</ele>
        <time>2017-11-28T14:20:36.000Z</time>
      </trkpt>
      <trkpt lat="44.80635" lon="5.06543">
        <ele>546.86</ele>
        <time>2017-11-28T14:20:46.000Z</time>
      </trkpt>
      <trkpt lat="44.80631" lon="5.06536">
        <ele>545.4</ele>
        <time>2017-11-28T14:20:56.000Z</time>
      </trkpt>
      <trkpt lat="44.80624" lon="5.06525">
        <ele>543.47</ele>
        <time>2017-11-28T14:21:06.000Z</time>
      </trkpt>
      <trkpt lat="44.8062" lon="5.06513">
        <ele>541.56</ele>
        <time>2017-11-28T14:21:16.000Z</time>
      </trkpt>
      <trkpt lat="44.80618" lon="5.06504">
        <ele>540.27</ele>
        <time>2017-11-28T14:21:26.000Z</time>
      </trkpt>
      <trkpt lat="44.80621" lon="5.06491">
        <ele>538.59</ele>
        <time>2017-11-28T14:21:36.000Z</time>
      </trkpt>
      <trkpt lat="44.80619" lon="5.0648">
        <ele>537.34</ele>
        <time>2017-11-28T14:21:46.000Z</time>
      </trkpt>
      <trkpt lat="44.80621" lon="5.0647">
        <ele>536.13</ele>
        <time>2017-11-28T14:21:56.000Z</time>
      </trkpt>
      <trkpt lat="44.80623" lon="5.06461">
        <ele>535.01</ele>
        <time>2017-11-28T14:22:06.000Z</time>
      </trkpt>
      <trkpt lat="44.80622" lon="5.0645">
        <ele>533.76</ele>
        <time>2017-11-28T14:22:16.000Z</time>
      </trkpt>
      <trkpt lat="44.80621" lon="5.06439">
        <ele>532.41</ele>
        <time>2017-11-28T14:22:26.000Z</time>
      </trkpt>
      <trkpt lat="44.80623" lon="5.06438">
        <ele>532.25</ele>
        <time>2017-11-28T14:22:36.000Z</time>
      </trkpt>
      <trkpt lat="44.80623" lon="5.06434">
        <ele>531.77</ele>
        <time>2017-11-28T14:22:53.000Z</time>
      </trkpt>
      <trkpt lat="44.80618" lon="5.06413">
        <ele>528.7</ele>
        <time>2017-11-28T14:23:03.000Z</time>
      </trkpt>
      <trkpt lat="44.80617" lon="5.06399">
        <ele>526.36</ele>
        <time>2017-11-28T14:23:13.000Z</time>
      </trkpt>
      <trkpt lat="44.80616" lon="5.06387">
        <ele>524.11</ele>
        <time>2017-11-28T14:23:23.000Z</time>
      </trkpt>
      <trkpt lat="44.80614" lon="5.06381">
        <ele>522.91</ele>
        <time>2017-11-28T14:23:33.000Z</time>
      </trkpt>
      <trkpt lat="44.80609" lon="5.06372">
        <ele>521.26</ele>
        <time>2017-11-28T14:23:43.000Z</time>
      </trkpt>
      <trkpt lat="44.80605" lon="5.06364">
        <ele>519.62</ele>
        <time>2017-11-28T14:23:53.000Z</time>
      </trkpt>
      <trkpt lat="44.80599" lon="5.06358">
        <ele>518.29</ele>
        <time>2017-11-28T14:24:03.000Z</time>
      </trkpt>
      <trkpt lat="44.80599" lon="5.06353">
        <ele>517.45</ele>
        <time>2017-11-28T14:24:13.000Z</time>
      </trkpt>
      <trkpt lat="44.80589" lon="5.06346">
        <ele>515.6</ele>
        <time>2017-11-28T14:24:23.000Z</time>
      </trkpt>
      <trkpt lat="44.80593" lon="5.06331">
        <ele>513.23</ele>
        <time>2017-11-28T14:24:33.000Z</time>
      </trkpt>
      <trkpt lat="44.80589" lon="5.06328">
        <ele>512.53</ele>
        <time>2017-11-28T14:24:43.000Z</time>
      </trkpt>
      <trkpt lat="44.80588" lon="5.06326">
        <ele>512.15</ele>
        <time>2017-11-28T14:24:53.000Z</time>
      </trkpt>
      <trkpt lat="44.80587" lon="5.06323">
        <ele>511.64</ele>
        <time>2017-11-28T14:25:03.000Z</time>
      </trkpt>
      <trkpt lat="44.80586" lon="5.06314">
        <ele>510.09</ele>
        <time>2017-11-28T14:25:13.000Z</time>
      </trkpt>
      <trkpt lat="44.80586" lon="5.06312">
        <ele>509.81</ele>
        <time>2017-11-28T14:25:23.000Z</time>
      </trkpt>
      <trkpt lat="44.80587" lon="5.06293">
        <ele>507.08</ele>
        <time>2017-11-28T14:25:33.000Z</time>
      </trkpt>
      <trkpt lat="44.80588" lon="5.06278">
        <ele>504.93</ele>
        <time>2017-11-28T14:25:43.000Z</time>
      </trkpt>
      <trkpt lat="44.80589" lon="5.06264">
        <ele>502.99</ele>
        <time>2017-11-28T14:25:53.000Z</time>
      </trkpt>
      <trkpt lat="44.80596" lon="5.06251">
        <ele>501.22</ele>
        <time>2017-11-28T14:26:03.000Z</time>
      </trkpt>
      <trkpt lat="44.80597" lon="5.06241">
        <ele>499.77</ele>
        <time>2017-11-28T14:26:13.000Z</time>
      </trkpt>
      <trkpt lat="44.80597" lon="5.06243">
        <ele>500.01</ele>
        <time>2017-11-28T14:26:23.000Z</time>
      </trkpt>
      <trkpt lat="44.80598" lon="5.06241">
        <ele>499.68</ele>
        <time>2017-11-28T14:26:33.000Z</time>
      </trkpt>
      <trkpt lat="44.80599" lon="5.06232">
        <ele>498.58</ele>
        <time>2017-11-28T14:26:43.000Z</time>
      </trkpt>
      <trkpt lat="44.80603" lon="5.06224">
        <ele>497.26</ele>
        <time>2017-11-28T14:26:53.000Z</time>
      </trkpt>
      <trkpt lat="44.80609" lon="5.06215">
        <ele>495.52</ele>
        <time>2017-11-28T14:27:03.000Z</time>
      </trkpt>
      <trkpt lat="44.80611" lon="5.06207">
        <ele>494.25</ele>
        <time>2017-11-28T14:27:13.000Z</time>
      </trkpt>
      <trkpt lat="44.80612" lon="5.06196">
        <ele>492.67</ele>
        <time>2017-11-28T14:27:23.000Z</time>
      </trkpt>
      <trkpt lat="44.80616" lon="5.06186">
        <ele>490.72</ele>
        <time>2017-11-28T14:27:33.000Z</time>
      </trkpt>
      <trkpt lat="44.80617" lon="5.06183">
        <ele>490.16</ele>
        <time>2017-11-28T14:27:43.000Z</time>
      </trkpt>
      <trkpt lat="44.80617" lon="5.06179">
        <ele>489.73</ele>
        <time>2017-11-28T14:28:01.000Z</time>
      </trkpt>
      <trkpt lat="44.80611" lon="5.06154">
        <ele>487.29</ele>
        <time>2017-11-28T14:28:11.000Z</time>
      </trkpt>
      <trkpt lat="44.80611" lon="5.0614">
        <ele>485.3</ele>
        <time>2017-11-28T14:28:21.000Z</time>
      </trkpt>
      <trkpt lat="44.8061" lon="5.06126">
        <ele>483.35</ele>
        <time>2017-11-28T14:28:31.000Z</time>
      </trkpt>
      <trkpt lat="44.8061" lon="5.06118">
        <ele>482.12</ele>
        <time>2017-11-28T14:28:41.000Z</time>
      </trkpt>
      <trkpt lat="44.8061" lon="5.06117">
        <ele>481.96</ele>
        <time>2017-11-28T14:28:51.000Z</time>
      </trkpt>
      <trkpt lat="44.80609" lon="5.06104">
        <ele>480.23</ele>
        <time>2017-11-28T14:29:01.000Z</time>
      </trkpt>
      <trkpt lat="44.80606" lon="5.06089">
        <ele>478.8</ele>
        <time>2017-11-28T14:29:11.000Z</time>
      </trkpt>
      <trkpt lat="44.80602" lon="5.06074">
        <ele>477.61</ele>
        <time>2017-11-28T14:29:21.000Z</time>
      </trkpt>
      <trkpt lat="44.80602" lon="5.06063">
        <ele>476.18</ele>
        <time>2017-11-28T14:29:31.000Z</time>
      </trkpt>
      <trkpt lat="44.80601" lon="5.06056">
        <ele>475.41</ele>
        <time>2017-11-28T14:29:41.000Z</time>
      </trkpt>
      <trkpt lat="44.806" lon="5.06045">
        <ele>474.23</ele>
        <time>2017-11-28T14:29:51.000Z</time>
      </trkpt>
      <trkpt lat="44.80602" lon="5.06031">
        <ele>472.29</ele>
        <time>2017-11-28T14:30:01.000Z</time>
      </trkpt>
      <trkpt lat="44.80601" lon="5.06021">
        <ele>471.29</ele>
        <time>2017-11-28T14:30:11.000Z</time>
      </trkpt>
      <trkpt lat="44.80606" lon="5.06006">
        <ele>468.53</ele>
        <time>2017-11-28T14:30:21.000Z</time>
      </trkpt>
      <trkpt lat="44.80609" lon="5.05994">
        <ele>466.71</ele>
        <time>2017-11-28T14:30:31.000Z</time>
      </trkpt>
      <trkpt lat="44.80609" lon="5.05985">
        <ele>465.58</ele>
        <time>2017-11-28T14:30:41.000Z</time>
      </trkpt>
      <trkpt lat="44.80606" lon="5.05975">
        <ele>465.23</ele>
        <time>2017-11-28T14:30:51.000Z</time>
      </trkpt>
      <trkpt lat="44.80608" lon="5.05964">
        <ele>463.67</ele>
        <time>2017-11-28T14:31:01.000Z</time>
      </trkpt>
      <trkpt lat="44.80612" lon="5.05956">
        <ele>462.04</ele>
        <time>2017-11-28T14:31:11.000Z</time>
      </trkpt>
      <trkpt lat="44.80612" lon="5.05947">
        <ele>461.04</ele>
        <time>2017-11-28T14:31:21.000Z</time>
      </trkpt>
      <trkpt lat="44.80614" lon="5.05936">
        <ele>459.44</ele>
        <time>2017-11-28T14:31:31.000Z</time>
      </trkpt>
      <trkpt lat="44.80616" lon="5.05923">
        <ele>457.33</ele>
        <time>2017-11-28T14:31:41.000Z</time>
      </trkpt>
      <trkpt lat="44.80615" lon="5.05912">
        <ele>456.26</ele>
        <time>2017-11-28T14:31:51.000Z</time>
      </trkpt>
      <trkpt lat="44.80615" lon="5.05901">
        <ele>454.91</ele>
        <time>2017-11-28T14:32:01.000Z</time>
      </trkpt>
      <trkpt lat="44.80612" lon="5.05889">
        <ele>454.05</ele>
        <time>2017-11-28T14:32:11.000Z</time>
      </trkpt>
      <trkpt lat="44.8061" lon="5.05877">
        <ele>453.01</ele>
        <time>2017-11-28T14:32:21.000Z</time>
      </trkpt>
      <trkpt lat="44.80608" lon="5.05866">
        <ele>451.9</ele>
        <time>2017-11-28T14:32:31.000Z</time>
      </trkpt>
      <trkpt lat="44.80604" lon="5.05856">
        <ele>451.29</ele>
        <time>2017-11-28T14:32:41.000Z</time>
      </trkpt>
      <trkpt lat="44.80601" lon="5.05847">
        <ele>450.46</ele>
        <time>2017-11-28T14:32:51.000Z</time>
      </trkpt>
      <trkpt lat="44.80598" lon="5.05839">
        <ele>449.68</ele>
        <time>2017-11-28T14:33:01.000Z</time>
      </trkpt>
      <trkpt lat="44.80591" lon="5.05829">
        <ele>448.73</ele>
        <time>2017-11-28T14:33:11.000Z</time>
      </trkpt>
      <trkpt lat="44.80585" lon="5.05824">
        <ele>448.13</ele>
        <time>2017-11-28T14:33:21.000Z</time>
      </trkpt>
      <trkpt lat="44.80583" lon="5.05815">
        <ele>446.59</ele>
        <time>2017-11-28T14:33:31.000Z</time>
      </trkpt>
      <trkpt lat="44.80579" lon="5.05806">
        <ele>444.61</ele>
        <time>2017-11-28T14:33:41.000Z</time>
      </trkpt>
      <trkpt lat="44.80575" lon="5.05801">
        <ele>443.64</ele>
        <time>2017-11-28T14:33:51.000Z</time>
      </trkpt>
      <trkpt lat="44.80569" lon="5.05792">
        <ele>441.66</ele>
        <time>2017-11-28T14:34:01.000Z</time>
      </trkpt>
      <trkpt lat="44.80566" lon="5.05783">
        <ele>439.51</ele>
        <time>2017-11-28T14:34:11.000Z</time>
      </trkpt>
      <trkpt lat="44.80563" lon="5.05774">
        <ele>437.52</ele>
        <time>2017-11-28T14:34:21.000Z</time>
      </trkpt>
      <trkpt lat="44.80562" lon="5.05764">
        <ele>435.5</ele>
        <time>2017-11-28T14:34:31.000Z</time>
      </trkpt>
      <trkpt lat="44.80562" lon="5.05757">
        <ele>434.18</ele>
        <time>2017-11-28T14:34:41.000Z</time>
      </trkpt>
      <trkpt lat="44.8056" lon="5.05746">
        <ele>432.22</ele>
        <time>2017-11-28T14:34:51.000Z</time>
      </trkpt>
      <trkpt lat="44.80555" lon="5.05736">
        <ele>430.2</ele>
        <time>2017-11-28T14:35:01.000Z</time>
      </trkpt>
      <trkpt lat="44.80555" lon="5.05728">
        <ele>428.8</ele>
        <time>2017-11-28T14:35:11.000Z</time>
      </trkpt>
      <trkpt lat="44.80552" lon="5.05715">
        <ele>426.57</ele>
        <time>2017-11-28T14:35:21.000Z</time>
      </trkpt>
      <trkpt lat="44.80549" lon="5.05702">
        <ele>424.49</ele>
        <time>2017-11-28T14:35:31.000Z</time>
      </trkpt>
      <trkpt lat="44.80548" lon="5.05694">
        <ele>423.33</ele>
        <time>2017-11-28T14:35:41.000Z</time>
      </trkpt>
      <trkpt lat="44.80548" lon="5.05685">
        <ele>422.16</ele>
        <time>2017-11-28T14:35:51.000Z</time>
      </trkpt>
      <trkpt lat="44.80549" lon="5.05675">
        <ele>420.9</ele>
        <time>2017-11-28T14:36:01.000Z</time>
      </trkpt>
      <trkpt lat="44.80548" lon="5.05666">
        <ele>419.83</ele>
        <time>2017-11-28T14:36:11.000Z</time>
      </trkpt>
      <trkpt lat="44.80546" lon="5.05656">
        <ele>418.75</ele>
        <time>2017-11-28T14:36:21.000Z</time>
      </trkpt>
      <trkpt lat="44.80548" lon="5.05644">
        <ele>417.76</ele>
        <time>2017-11-28T14:36:31.000Z</time>
      </trkpt>
      <trkpt lat="44.80549" lon="5.05629">
        <ele>416.69</ele>
        <time>2017-11-28T14:36:41.000Z</time>
      </trkpt>
      <trkpt lat="44.80551" lon="5.05612">
        <ele>415.59</ele>
        <time>2017-11-28T14:36:51.000Z</time>
      </trkpt>
      <trkpt lat="44.8055" lon="5.05609">
        <ele>415.43</ele>
        <time>2017-11-28T14:37:01.000Z</time>
      </trkpt>
      <trkpt lat="44.80554" lon="5.05607">
        <ele>415.37</ele>
        <time>2017-11-28T14:37:11.000Z</time>
      </trkpt>
      <trkpt lat="44.80556" lon="5.05598">
        <ele>414.87</ele>
        <time>2017-11-28T14:37:21.000Z</time>
      </trkpt>
      <trkpt lat="44.80561" lon="5.05584">
        <ele>414.22</ele>
        <time>2017-11-28T14:37:31.000Z</time>
      </trkpt>
      <trkpt lat="44.8056" lon="5.05586">
        <ele>414.31</ele>
        <time>2017-11-28T14:37:41.000Z</time>
      </trkpt>
      <trkpt lat="44.80562" lon="5.05582">
        <ele>414.13</ele>
        <time>2017-11-28T14:38:11.000Z</time>
      </trkpt>
      <trkpt lat="44.80565" lon="5.05567">
        <ele>413.55</ele>
        <time>2017-11-28T14:38:21.000Z</time>
      </trkpt>
      <trkpt lat="44.80567" lon="5.05553">
        <ele>413.18</ele>
        <time>2017-11-28T14:38:31.000Z</time>
      </trkpt>
      <trkpt lat="44.80566" lon="5.05545">
        <ele>413.02</ele>
        <time>2017-11-28T14:38:41.000Z</time>
      </trkpt>
      <trkpt lat="44.8057" lon="5.05537">
        <ele>412.8</ele>
        <time>2017-11-28T14:38:51.000Z</time>
      </trkpt>
      <trkpt lat="44.80566" lon="5.05524">
        <ele>412.48</ele>
        <time>2017-11-28T14:39:01.000Z</time>
      </trkpt>
      <trkpt lat="44.8056" lon="5.05522">
        <ele>412.37</ele>
        <time>2017-11-28T14:39:11.000Z</time>
      </trkpt>
      <trkpt lat="44.8056" lon="5.05512">
        <ele>411.94</ele>
        <time>2017-11-28T14:39:21.000Z</time>
      </trkpt>
      <trkpt lat="44.80556" lon="5.05504">
        <ele>411.42</ele>
        <time>2017-11-28T14:39:31.000Z</time>
      </trkpt>
      <trkpt lat="44.80553" lon="5.05493">
        <ele>410.5</ele>
        <time>2017-11-28T14:39:41.000Z</time>
      </trkpt>
      <trkpt lat="44.80552" lon="5.05474">
        <ele>408.51</ele>
        <time>2017-11-28T14:39:51.000Z</time>
      </trkpt>
      <trkpt lat="44.80553" lon="5.05466">
        <ele>407.71</ele>
        <time>2017-11-28T14:40:01.000Z</time>
      </trkpt>
      <trkpt lat="44.80553" lon="5.05465">
        <ele>407.55</ele>
        <time>2017-11-28T14:40:11.000Z</time>
      </trkpt>
      <trkpt lat="44.80552" lon="5.05463">
        <ele>407.34</ele>
        <time>2017-11-28T14:41:10.000Z</time>
      </trkpt>
      <trkpt lat="44.80556" lon="5.05455">
        <ele>406.53</ele>
        <time>2017-11-28T14:41:20.000Z</time>
      </trkpt>
      <trkpt lat="44.80561" lon="5.05457">
        <ele>406.91</ele>
        <time>2017-11-28T14:41:30.000Z</time>
      </trkpt>
      <trkpt lat="44.80555" lon="5.05458">
        <ele>406.85</ele>
        <time>2017-11-28T14:41:40.000Z</time>
      </trkpt>
      <trkpt lat="44.80555" lon="5.05457">
        <ele>406.71</ele>
        <time>2017-11-28T14:41:50.000Z</time>
      </trkpt>
      <trkpt lat="44.80556" lon="5.05457">
        <ele>406.68</ele>
        <time>2017-11-28T14:42:09.000Z</time>
      </trkpt>
      <trkpt lat="44.80554" lon="5.05456">
        <ele>406.55</ele>
        <time>2017-11-28T14:43:29.000Z</time>
      </trkpt>
      <trkpt lat="44.80552" lon="5.05459">
        <ele>406.77</ele>
        <time>2017-11-28T14:43:39.000Z</time>
      </trkpt>
      <trkpt lat="44.80553" lon="5.05456">
        <ele>406.47</ele>
        <time>2017-11-28T14:43:49.000Z</time>
      </trkpt>
      <trkpt lat="44.80555" lon="5.05453">
        <ele>406.21</ele>
        <time>2017-11-28T14:43:59.000Z</time>
      </trkpt>
      <trkpt lat="44.80554" lon="5.05455">
        <ele>406.34</ele>
        <time>2017-11-28T14:44:38.000Z</time>
      </trkpt>
      <trkpt lat="44.80553" lon="5.05455">
        <ele>406.3</ele>
        <time>2017-11-28T14:44:54.000Z</time>
      </trkpt>
      <trkpt lat="44.80552" lon="5.05456">
        <ele>406.42</ele>
        <time>2017-11-28T14:45:04.000Z</time>
      </trkpt>
      <trkpt lat="44.80553" lon="5.05454">
        <ele>406.18</ele>
        <time>2017-11-28T14:45:28.000Z</time>
      </trkpt>
      <trkpt lat="44.80554" lon="5.05454">
        <ele>406.31</ele>
        <time>2017-11-28T14:45:38.000Z</time>
      </trkpt>
      <trkpt lat="44.80552" lon="5.05455">
        <ele>406.3</ele>
        <time>2017-11-28T14:47:43.000Z</time>
      </trkpt>
      <trkpt lat="44.80553" lon="5.05454">
        <ele>406.19</ele>
        <time>2017-11-28T14:47:53.000Z</time>
      </trkpt>
      <trkpt lat="44.80556" lon="5.05449">
        <ele>405.8</ele>
        <time>2017-11-28T14:48:03.000Z</time>
      </trkpt>
      <trkpt lat="44.80557" lon="5.05448">
        <ele>405.71</ele>
        <time>2017-11-28T14:48:13.000Z</time>
      </trkpt>
      <trkpt lat="44.8056" lon="5.05438">
        <ele>404.56</ele>
        <time>2017-11-28T14:48:23.000Z</time>
      </trkpt>
      <trkpt lat="44.80561" lon="5.05438">
        <ele>404.67</ele>
        <time>2017-11-28T14:48:33.000Z</time>
      </trkpt>
      <trkpt lat="44.80563" lon="5.05436">
        <ele>404.51</ele>
        <time>2017-11-28T14:48:47.000Z</time>
      </trkpt>
      <trkpt lat="44.80571" lon="5.05414">
        <ele>402.29</ele>
        <time>2017-11-28T14:48:57.000Z</time>
      </trkpt>
      <trkpt lat="44.80572" lon="5.05388">
        <ele>399.53</ele>
        <time>2017-11-28T14:49:07.000Z</time>
      </trkpt>
      <trkpt lat="44.80579" lon="5.05384">
        <ele>399.62</ele>
        <time>2017-11-28T14:49:17.000Z</time>
      </trkpt>
      <trkpt lat="44.80582" lon="5.05375">
        <ele>398.95</ele>
        <time>2017-11-28T14:49:27.000Z</time>
      </trkpt>
      <trkpt lat="44.80582" lon="5.05358">
        <ele>397.38</ele>
        <time>2017-11-28T14:49:37.000Z</time>
      </trkpt>
      <trkpt lat="44.80585" lon="5.05341">
        <ele>395.91</ele>
        <time>2017-11-28T14:49:47.000Z</time>
      </trkpt>
      <trkpt lat="44.80583" lon="5.05329">
        <ele>394.55</ele>
        <time>2017-11-28T14:49:57.000Z</time>
      </trkpt>
      <trkpt lat="44.80587" lon="5.05318">
        <ele>393.63</ele>
        <time>2017-11-28T14:50:07.000Z</time>
      </trkpt>
      <trkpt lat="44.80587" lon="5.05313">
        <ele>393.14</ele>
        <time>2017-11-28T14:50:17.000Z</time>
      </trkpt>
      <trkpt lat="44.80586" lon="5.05304">
        <ele>392.06</ele>
        <time>2017-11-28T14:50:27.000Z</time>
      </trkpt>
      <trkpt lat="44.80583" lon="5.0529">
        <ele>390.36</ele>
        <time>2017-11-28T14:50:37.000Z</time>
      </trkpt>
      <trkpt lat="44.80587" lon="5.05279">
        <ele>389.46</ele>
        <time>2017-11-28T14:50:47.000Z</time>
      </trkpt>
      <trkpt lat="44.80591" lon="5.05262">
        <ele>387.92</ele>
        <time>2017-11-28T14:50:57.000Z</time>
      </trkpt>
      <trkpt lat="44.80588" lon="5.05254">
        <ele>386.78</ele>
        <time>2017-11-28T14:51:07.000Z</time>
      </trkpt>
      <trkpt lat="44.80594" lon="5.05242">
        <ele>385.84</ele>
        <time>2017-11-28T14:51:17.000Z</time>
      </trkpt>
      <trkpt lat="44.80591" lon="5.05231">
        <ele>384.44</ele>
        <time>2017-11-28T14:51:27.000Z</time>
      </trkpt>
      <trkpt lat="44.8059" lon="5.05215">
        <ele>382.6</ele>
        <time>2017-11-28T14:51:37.000Z</time>
      </trkpt>
      <trkpt lat="44.80594" lon="5.052">
        <ele>381.06</ele>
        <time>2017-11-28T14:51:47.000Z</time>
      </trkpt>
      <trkpt lat="44.80592" lon="5.05184">
        <ele>379.21</ele>
        <time>2017-11-28T14:51:57.000Z</time>
      </trkpt>
      <trkpt lat="44.80593" lon="5.0517">
        <ele>377.72</ele>
        <time>2017-11-28T14:52:07.000Z</time>
      </trkpt>
      <trkpt lat="44.80604" lon="5.05161">
        <ele>376.87</ele>
        <time>2017-11-28T14:52:17.000Z</time>
      </trkpt>
      <trkpt lat="44.80613" lon="5.05154">
        <ele>375.91</ele>
        <time>2017-11-28T14:52:27.000Z</time>
      </trkpt>
      <trkpt lat="44.80621" lon="5.05146">
        <ele>374.77</ele>
        <time>2017-11-28T14:52:37.000Z</time>
      </trkpt>
      <trkpt lat="44.80629" lon="5.0514">
        <ele>373.82</ele>
        <time>2017-11-28T14:52:47.000Z</time>
      </trkpt>
      <trkpt lat="44.80638" lon="5.05133">
        <ele>372.84</ele>
        <time>2017-11-28T14:52:57.000Z</time>
      </trkpt>
      <trkpt lat="44.80646" lon="5.05131">
        <ele>372.37</ele>
        <time>2017-11-28T14:53:07.000Z</time>
      </trkpt>
      <trkpt lat="44.80657" lon="5.05125">
        <ele>371.72</ele>
        <time>2017-11-28T14:53:17.000Z</time>
      </trkpt>
      <trkpt lat="44.80663" lon="5.05117">
        <ele>371.16</ele>
        <time>2017-11-28T14:53:27.000Z</time>
      </trkpt>
      <trkpt lat="44.80669" lon="5.0511">
        <ele>370.77</ele>
        <time>2017-11-28T14:53:37.000Z</time>
      </trkpt>
      <trkpt lat="44.80675" lon="5.05104">
        <ele>370.62</ele>
        <time>2017-11-28T14:53:47.000Z</time>
      </trkpt>
      <trkpt lat="44.80684" lon="5.05101">
        <ele>370.8</ele>
        <time>2017-11-28T14:53:57.000Z</time>
      </trkpt>
      <trkpt lat="44.8069" lon="5.05103">
        <ele>371.21</ele>
        <time>2017-11-28T14:54:07.000Z</time>
      </trkpt>
      <trkpt lat="44.80693" lon="5.051">
        <ele>371.24</ele>
        <time>2017-11-28T14:54:17.000Z</time>
      </trkpt>
      <trkpt lat="44.80698" lon="5.051">
        <ele>371.52</ele>
        <time>2017-11-28T14:54:27.000Z</time>
      </trkpt>
      <trkpt lat="44.80707" lon="5.05094">
        <ele>371.74</ele>
        <time>2017-11-28T14:54:37.000Z</time>
      </trkpt>
      <trkpt lat="44.80716" lon="5.05087">
        <ele>371.97</ele>
        <time>2017-11-28T14:54:47.000Z</time>
      </trkpt>
      <trkpt lat="44.80724" lon="5.05083">
        <ele>372.33</ele>
        <time>2017-11-28T14:54:57.000Z</time>
      </trkpt>
      <trkpt lat="44.80729" lon="5.05081">
        <ele>372.57</ele>
        <time>2017-11-28T14:55:07.000Z</time>
      </trkpt>
      <trkpt lat="44.80739" lon="5.05079">
        <ele>373.11</ele>
        <time>2017-11-28T14:55:17.000Z</time>
      </trkpt>
      <trkpt lat="44.80746" lon="5.0508">
        <ele>373.53</ele>
        <time>2017-11-28T14:55:27.000Z</time>
      </trkpt>
      <trkpt lat="44.80755" lon="5.05079">
        <ele>373.99</ele>
        <time>2017-11-28T14:55:37.000Z</time>
      </trkpt>
      <trkpt lat="44.80764" lon="5.05077">
        <ele>374.27</ele>
        <time>2017-11-28T14:55:47.000Z</time>
      </trkpt>
      <trkpt lat="44.80774" lon="5.05077">
        <ele>374.75</ele>
        <time>2017-11-28T14:55:57.000Z</time>
      </trkpt>
      <trkpt lat="44.80784" lon="5.05076">
        <ele>375.21</ele>
        <time>2017-11-28T14:56:07.000Z</time>
      </trkpt>
      <trkpt lat="44.80794" lon="5.05076">
        <ele>375.61</ele>
        <time>2017-11-28T14:56:17.000Z</time>
      </trkpt>
      <trkpt lat="44.80803" lon="5.05076">
        <ele>376.01</ele>
        <time>2017-11-28T14:56:27.000Z</time>
      </trkpt>
      <trkpt lat="44.80812" lon="5.05074">
        <ele>376.25</ele>
        <time>2017-11-28T14:56:37.000Z</time>
      </trkpt>
      <trkpt lat="44.80823" lon="5.05075">
        <ele>376.82</ele>
        <time>2017-11-28T14:56:47.000Z</time>
      </trkpt>
      <trkpt lat="44.80827" lon="5.05075">
        <ele>377.01</ele>
        <time>2017-11-28T14:56:57.000Z</time>
      </trkpt>
      <trkpt lat="44.80831" lon="5.05075">
        <ele>377.2</ele>
        <time>2017-11-28T14:57:07.000Z</time>
      </trkpt>
      <trkpt lat="44.80839" lon="5.05074">
        <ele>377.54</ele>
        <time>2017-11-28T14:57:17.000Z</time>
      </trkpt>
      <trkpt lat="44.80852" lon="5.05075">
        <ele>378.25</ele>
        <time>2017-11-28T14:57:27.000Z</time>
      </trkpt>
      <trkpt lat="44.80863" lon="5.0507">
        <ele>378.4</ele>
        <time>2017-11-28T14:57:37.000Z</time>
      </trkpt>
      <trkpt lat="44.80873" lon="5.0507">
        <ele>378.9</ele>
        <time>2017-11-28T14:57:47.000Z</time>
      </trkpt>
      <trkpt lat="44.80884" lon="5.05069">
        <ele>379.43</ele>
        <time>2017-11-28T14:57:57.000Z</time>
      </trkpt>
      <trkpt lat="44.80892" lon="5.05067">
        <ele>379.76</ele>
        <time>2017-11-28T14:58:07.000Z</time>
      </trkpt>
      <trkpt lat="44.80903" lon="5.05065">
        <ele>380.28</ele>
        <time>2017-11-28T14:58:17.000Z</time>
      </trkpt>
      <trkpt lat="44.80913" lon="5.05063">
        <ele>380.72</ele>
        <time>2017-11-28T14:58:27.000Z</time>
      </trkpt>
      <trkpt lat="44.80922" lon="5.05053">
        <ele>380.78</ele>
        <time>2017-11-28T14:58:37.000Z</time>
      </trkpt>
      <trkpt lat="44.8093" lon="5.05054">
        <ele>381.33</ele>
        <time>2017-11-28T14:58:47.000Z</time>
      </trkpt>
      <trkpt lat="44.80936" lon="5.05051">
        <ele>381.54</ele>
        <time>2017-11-28T14:58:57.000Z</time>
      </trkpt>
      <trkpt lat="44.80946" lon="5.05045">
        <ele>382.03</ele>
        <time>2017-11-28T14:59:07.000Z</time>
      </trkpt>
      <trkpt lat="44.80954" lon="5.05038">
        <ele>382.32</ele>
        <time>2017-11-28T14:59:17.000Z</time>
      </trkpt>
      <trkpt lat="44.80963" lon="5.05031">
        <ele>382.75</ele>
        <time>2017-11-28T14:59:27.000Z</time>
      </trkpt>
      <trkpt lat="44.80971" lon="5.05029">
        <ele>383.21</ele>
        <time>2017-11-28T14:59:37.000Z</time>
      </trkpt>
      <trkpt lat="44.80981" lon="5.05025">
        <ele>383.68</ele>
        <time>2017-11-28T14:59:47.000Z</time>
      </trkpt>
      <trkpt lat="44.80983" lon="5.05024">
        <ele>383.78</ele>
        <time>2017-11-28T14:59:57.000Z</time>
      </trkpt>
      <trkpt lat="44.80994" lon="5.05019">
        <ele>384.18</ele>
        <time>2017-11-28T15:00:07.000Z</time>
      </trkpt>
      <trkpt lat="44.81004" lon="5.05012">
        <ele>384.39</ele>
        <time>2017-11-28T15:00:17.000Z</time>
      </trkpt>
      <trkpt lat="44.81014" lon="5.05011">
        <ele>384.65</ele>
        <time>2017-11-28T15:00:27.000Z</time>
      </trkpt>
      <trkpt lat="44.81024" lon="5.05006">
        <ele>384.66</ele>
        <time>2017-11-28T15:00:37.000Z</time>
      </trkpt>
      <trkpt lat="44.81032" lon="5.05002">
        <ele>384.59</ele>
        <time>2017-11-28T15:00:47.000Z</time>
      </trkpt>
      <trkpt lat="44.8104" lon="5.04994">
        <ele>384.23</ele>
        <time>2017-11-28T15:00:57.000Z</time>
      </trkpt>
      <trkpt lat="44.81051" lon="5.04985">
        <ele>383.63</ele>
        <time>2017-11-28T15:01:07.000Z</time>
      </trkpt>
      <trkpt lat="44.81062" lon="5.04978">
        <ele>382.93</ele>
        <time>2017-11-28T15:01:17.000Z</time>
      </trkpt>
      <trkpt lat="44.81075" lon="5.04965">
        <ele>381.6</ele>
        <time>2017-11-28T15:01:27.000Z</time>
      </trkpt>
      <trkpt lat="44.81088" lon="5.04959">
        <ele>380.66</ele>
        <time>2017-11-28T15:01:37.000Z</time>
      </trkpt>
      <trkpt lat="44.811" lon="5.04951">
        <ele>379.64</ele>
        <time>2017-11-28T15:01:47.000Z</time>
      </trkpt>
      <trkpt lat="44.81109" lon="5.04941">
        <ele>378.52</ele>
        <time>2017-11-28T15:01:57.000Z</time>
      </trkpt>
      <trkpt lat="44.81122" lon="5.04935">
        <ele>377.57</ele>
        <time>2017-11-28T15:02:07.000Z</time>
      </trkpt>
      <trkpt lat="44.81133" lon="5.04931">
        <ele>376.7</ele>
        <time>2017-11-28T15:02:17.000Z</time>
      </trkpt>
      <trkpt lat="44.81143" lon="5.04929">
        <ele>375.97</ele>
        <time>2017-11-28T15:02:27.000Z</time>
      </trkpt>
      <trkpt lat="44.81154" lon="5.04923">
        <ele>374.69</ele>
        <time>2017-11-28T15:02:37.000Z</time>
      </trkpt>
      <trkpt lat="44.81164" lon="5.04922">
        <ele>373.73</ele>
        <time>2017-11-28T15:02:47.000Z</time>
      </trkpt>
      <trkpt lat="44.81176" lon="5.04916">
        <ele>371.93</ele>
        <time>2017-11-28T15:02:57.000Z</time>
      </trkpt>
      <trkpt lat="44.81185" lon="5.04914">
        <ele>370.43</ele>
        <time>2017-11-28T15:03:07.000Z</time>
      </trkpt>
      <trkpt lat="44.8119" lon="5.04907">
        <ele>368.97</ele>
        <time>2017-11-28T15:03:17.000Z</time>
      </trkpt>
      <trkpt lat="44.81197" lon="5.04903">
        <ele>367.53</ele>
        <time>2017-11-28T15:03:27.000Z</time>
      </trkpt>
      <trkpt lat="44.812" lon="5.04897">
        <ele>366.33</ele>
        <time>2017-11-28T15:03:37.000Z</time>
      </trkpt>
      <trkpt lat="44.81201" lon="5.04896">
        <ele>366.03</ele>
        <time>2017-11-28T15:03:47.000Z</time>
      </trkpt>
      <trkpt lat="44.81202" lon="5.04893">
        <ele>365.49</ele>
        <time>2017-11-28T15:04:03.000Z</time>
      </trkpt>
      <trkpt lat="44.81219" lon="5.04862">
        <ele>359.53</ele>
        <time>2017-11-28T15:04:13.000Z</time>
      </trkpt>
      <trkpt lat="44.81231" lon="5.04861">
        <ele>357.82</ele>
        <time>2017-11-28T15:04:23.000Z</time>
      </trkpt>
      <trkpt lat="44.81232" lon="5.04848">
        <ele>356.59</ele>
        <time>2017-11-28T15:04:33.000Z</time>
      </trkpt>
      <trkpt lat="44.81234" lon="5.04849">
        <ele>356.43</ele>
        <time>2017-11-28T15:04:43.000Z</time>
      </trkpt>
      <trkpt lat="44.81238" lon="5.0484">
        <ele>355.44</ele>
        <time>2017-11-28T15:04:53.000Z</time>
      </trkpt>
      <trkpt lat="44.81238" lon="5.04832">
        <ele>355.05</ele>
        <time>2017-11-28T15:05:03.000Z</time>
      </trkpt>
      <trkpt lat="44.81245" lon="5.04828">
        <ele>354.27</ele>
        <time>2017-11-28T15:05:13.000Z</time>
      </trkpt>
      <trkpt lat="44.81255" lon="5.04823">
        <ele>353.39</ele>
        <time>2017-11-28T15:05:23.000Z</time>
      </trkpt>
      <trkpt lat="44.81263" lon="5.04815">
        <ele>352.74</ele>
        <time>2017-11-28T15:05:33.000Z</time>
      </trkpt>
      <trkpt lat="44.81264" lon="5.04812">
        <ele>352.64</ele>
        <time>2017-11-28T15:05:43.000Z</time>
      </trkpt>
      <trkpt lat="44.81266" lon="5.04812">
        <ele>352.56</ele>
        <time>2017-11-28T15:05:53.000Z</time>
      </trkpt>
      <trkpt lat="44.8127" lon="5.04809">
        <ele>352.26</ele>
        <time>2017-11-28T15:06:06.000Z</time>
      </trkpt>
      <trkpt lat="44.81292" lon="5.04804">
        <ele>350.85</ele>
        <time>2017-11-28T15:06:16.000Z</time>
      </trkpt>
      <trkpt lat="44.81305" lon="5.0479">
        <ele>349.56</ele>
        <time>2017-11-28T15:06:26.000Z</time>
      </trkpt>
      <trkpt lat="44.81309" lon="5.0478">
        <ele>348.93</ele>
        <time>2017-11-28T15:06:36.000Z</time>
      </trkpt>
      <trkpt lat="44.81322" lon="5.04776">
        <ele>347.67</ele>
        <time>2017-11-28T15:06:46.000Z</time>
      </trkpt>
      <trkpt lat="44.81331" lon="5.04773">
        <ele>346.75</ele>
        <time>2017-11-28T15:06:56.000Z</time>
      </trkpt>
      <trkpt lat="44.81341" lon="5.0477">
        <ele>345.81</ele>
        <time>2017-11-28T15:07:06.000Z</time>
      </trkpt>
      <trkpt lat="44.81344" lon="5.04751">
        <ele>344.92</ele>
        <time>2017-11-28T15:07:16.000Z</time>
      </trkpt>
      <trkpt lat="44.81356" lon="5.04742">
        <ele>343.8</ele>
        <time>2017-11-28T15:07:26.000Z</time>
      </trkpt>
      <trkpt lat="44.8137" lon="5.04736">
        <ele>342.57</ele>
        <time>2017-11-28T15:07:36.000Z</time>
      </trkpt>
      <trkpt lat="44.81377" lon="5.04726">
        <ele>342.07</ele>
        <time>2017-11-28T15:07:46.000Z</time>
      </trkpt>
      <trkpt lat="44.81389" lon="5.04722">
        <ele>341.25</ele>
        <time>2017-11-28T15:07:56.000Z</time>
      </trkpt>
      <trkpt lat="44.81399" lon="5.04721">
        <ele>340.56</ele>
        <time>2017-11-28T15:08:06.000Z</time>
      </trkpt>
      <trkpt lat="44.81409" lon="5.04723">
        <ele>339.84</ele>
        <time>2017-11-28T15:08:16.000Z</time>
      </trkpt>
      <trkpt lat="44.81422" lon="5.04723">
        <ele>339.17</ele>
        <time>2017-11-28T15:08:26.000Z</time>
      </trkpt>
      <trkpt lat="44.81435" lon="5.04717">
        <ele>338.78</ele>
        <time>2017-11-28T15:08:36.000Z</time>
      </trkpt>
      <trkpt lat="44.81447" lon="5.04712">
        <ele>338.49</ele>
        <time>2017-11-28T15:08:46.000Z</time>
      </trkpt>
      <trkpt lat="44.8146" lon="5.04708">
        <ele>338.21</ele>
        <time>2017-11-28T15:08:56.000Z</time>
      </trkpt>
      <trkpt lat="44.81471" lon="5.04702">
        <ele>337.89</ele>
        <time>2017-11-28T15:09:06.000Z</time>
      </trkpt>
      <trkpt lat="44.8148" lon="5.04699">
        <ele>337.59</ele>
        <time>2017-11-28T15:09:16.000Z</time>
      </trkpt>
      <trkpt lat="44.8149" lon="5.04693">
        <ele>337.13</ele>
        <time>2017-11-28T15:09:26.000Z</time>
      </trkpt>
      <trkpt lat="44.81501" lon="5.04696">
        <ele>336.76</ele>
        <time>2017-11-28T15:09:36.000Z</time>
      </trkpt>
      <trkpt lat="44.81514" lon="5.04698">
        <ele>336.29</ele>
        <time>2017-11-28T15:09:46.000Z</time>
      </trkpt>
      <trkpt lat="44.81524" lon="5.04697">
        <ele>335.77</ele>
        <time>2017-11-28T15:09:56.000Z</time>
      </trkpt>
      <trkpt lat="44.81533" lon="5.04699">
        <ele>335.39</ele>
        <time>2017-11-28T15:10:06.000Z</time>
      </trkpt>
      <trkpt lat="44.8154" lon="5.0471">
        <ele>335.51</ele>
        <time>2017-11-28T15:10:16.000Z</time>
      </trkpt>
      <trkpt lat="44.81548" lon="5.04717">
        <ele>335.47</ele>
        <time>2017-11-28T15:10:26.000Z</time>
      </trkpt>
      <trkpt lat="44.81556" lon="5.04725">
        <ele>335.52</ele>
        <time>2017-11-28T15:10:36.000Z</time>
      </trkpt>
      <trkpt lat="44.81562" lon="5.04726">
        <ele>335.28</ele>
        <time>2017-11-28T15:10:46.000Z</time>
      </trkpt>
      <trkpt lat="44.81571" lon="5.04713">
        <ele>334.45</ele>
        <time>2017-11-28T15:10:56.000Z</time>
      </trkpt>
      <trkpt lat="44.8158" lon="5.04703">
        <ele>333.93</ele>
        <time>2017-11-28T15:11:06.000Z</time>
      </trkpt>
      <trkpt lat="44.81586" lon="5.04695">
        <ele>333.62</ele>
        <time>2017-11-28T15:11:16.000Z</time>
      </trkpt>
      <trkpt lat="44.81592" lon="5.04689">
        <ele>333.4</ele>
        <time>2017-11-28T15:11:26.000Z</time>
      </trkpt>
      <trkpt lat="44.81603" lon="5.04683">
        <ele>333.16</ele>
        <time>2017-11-28T15:11:36.000Z</time>
      </trkpt>
      <trkpt lat="44.81614" lon="5.04679">
        <ele>333.04</ele>
        <time>2017-11-28T15:11:46.000Z</time>
      </trkpt>
      <trkpt lat="44.8162" lon="5.04678">
        <ele>332.99</ele>
        <time>2017-11-28T15:11:56.000Z</time>
      </trkpt>
      <trkpt lat="44.81628" lon="5.04677">
        <ele>333.01</ele>
        <time>2017-11-28T15:12:06.000Z</time>
      </trkpt>
      <trkpt lat="44.8164" lon="5.04674">
        <ele>332.99</ele>
        <time>2017-11-28T15:12:16.000Z</time>
      </trkpt>
      <trkpt lat="44.81651" lon="5.04666">
        <ele>332.64</ele>
        <time>2017-11-28T15:12:26.000Z</time>
      </trkpt>
      <trkpt lat="44.81662" lon="5.04667">
        <ele>332.94</ele>
        <time>2017-11-28T15:12:36.000Z</time>
      </trkpt>
      <trkpt lat="44.81673" lon="5.04669">
        <ele>333.36</ele>
        <time>2017-11-28T15:12:46.000Z</time>
      </trkpt>
      <trkpt lat="44.81682" lon="5.04666">
        <ele>333.37</ele>
        <time>2017-11-28T15:12:56.000Z</time>
      </trkpt>
      <trkpt lat="44.81693" lon="5.04666">
        <ele>333.68</ele>
        <time>2017-11-28T15:13:06.000Z</time>
      </trkpt>
      <trkpt lat="44.81702" lon="5.04662">
        <ele>333.67</ele>
        <time>2017-11-28T15:13:16.000Z</time>
      </trkpt>
      <trkpt lat="44.81711" lon="5.0466">
        <ele>333.7</ele>
        <time>2017-11-28T15:13:26.000Z</time>
      </trkpt>
      <trkpt lat="44.81716" lon="5.04654">
        <ele>333.09</ele>
        <time>2017-11-28T15:13:36.000Z</time>
      </trkpt>
      <trkpt lat="44.81726" lon="5.0465">
        <ele>332.94</ele>
        <time>2017-11-28T15:13:46.000Z</time>
      </trkpt>
      <trkpt lat="44.81734" lon="5.04645">
        <ele>332.49</ele>
        <time>2017-11-28T15:13:56.000Z</time>
      </trkpt>
      <trkpt lat="44.81744" lon="5.04643">
        <ele>332.72</ele>
        <time>2017-11-28T15:14:06.000Z</time>
      </trkpt>
      <trkpt lat="44.81754" lon="5.04642">
        <ele>333.06</ele>
        <time>2017-11-28T15:14:16.000Z</time>
      </trkpt>
      <trkpt lat="44.81761" lon="5.04632">
        <ele>331.9</ele>
        <time>2017-11-28T15:14:26.000Z</time>
      </trkpt>
      <trkpt lat="44.81769" lon="5.04631">
        <ele>332.3</ele>
        <time>2017-11-28T15:14:36.000Z</time>
      </trkpt>
      <trkpt lat="44.81779" lon="5.04621">
        <ele>331.4</ele>
        <time>2017-11-28T15:14:46.000Z</time>
      </trkpt>
      <trkpt lat="44.81788" lon="5.04618">
        <ele>331.62</ele>
        <time>2017-11-28T15:14:56.000Z</time>
      </trkpt>
      <trkpt lat="44.81799" lon="5.04613">
        <ele>331.54</ele>
        <time>2017-11-28T15:15:06.000Z</time>
      </trkpt>
      <trkpt lat="44.81811" lon="5.04608">
        <ele>331.47</ele>
        <time>2017-11-28T15:15:16.000Z</time>
      </trkpt>
      <trkpt lat="44.81821" lon="5.04603">
        <ele>330.99</ele>
        <time>2017-11-28T15:15:26.000Z</time>
      </trkpt>
      <trkpt lat="44.81832" lon="5.04596">
        <ele>330.11</ele>
        <time>2017-11-28T15:15:36.000Z</time>
      </trkpt>
      <trkpt lat="44.81844" lon="5.04594">
        <ele>330.05</ele>
        <time>2017-11-28T15:15:46.000Z</time>
      </trkpt>
      <trkpt lat="44.8185" lon="5.04588">
        <ele>329.25</ele>
        <time>2017-11-28T15:15:56.000Z</time>
      </trkpt>
      <trkpt lat="44.81861" lon="5.04583">
        <ele>328.68</ele>
        <time>2017-11-28T15:16:06.000Z</time>
      </trkpt>
      <trkpt lat="44.81872" lon="5.04578">
        <ele>328.18</ele>
        <time>2017-11-28T15:16:16.000Z</time>
      </trkpt>
      <trkpt lat="44.8188" lon="5.04572">
        <ele>327.35</ele>
        <time>2017-11-28T15:16:26.000Z</time>
      </trkpt>
      <trkpt lat="44.81892" lon="5.04569">
        <ele>327.21</ele>
        <time>2017-11-28T15:16:36.000Z</time>
      </trkpt>
      <trkpt lat="44.81904" lon="5.04563">
        <ele>326.38</ele>
        <time>2017-11-28T15:16:46.000Z</time>
      </trkpt>
      <trkpt lat="44.81911" lon="5.04561">
        <ele>326.14</ele>
        <time>2017-11-28T15:16:56.000Z</time>
      </trkpt>
      <trkpt lat="44.81921" lon="5.04558">
        <ele>325.61</ele>
        <time>2017-11-28T15:17:06.000Z</time>
      </trkpt>
      <trkpt lat="44.81927" lon="5.04545">
        <ele>323.97</ele>
        <time>2017-11-28T15:17:16.000Z</time>
      </trkpt>
      <trkpt lat="44.81939" lon="5.04555">
        <ele>324.65</ele>
        <time>2017-11-28T15:17:26.000Z</time>
      </trkpt>
      <trkpt lat="44.81948" lon="5.04548">
        <ele>323.53</ele>
        <time>2017-11-28T15:17:36.000Z</time>
      </trkpt>
      <trkpt lat="44.81959" lon="5.04547">
        <ele>322.92</ele>
        <time>2017-11-28T15:17:46.000Z</time>
      </trkpt>
      <trkpt lat="44.81964" lon="5.04539">
        <ele>322.04</ele>
        <time>2017-11-28T15:17:56.000Z</time>
      </trkpt>
      <trkpt lat="44.81971" lon="5.04532">
        <ele>321.34</ele>
        <time>2017-11-28T15:18:06.000Z</time>
      </trkpt>
      <trkpt lat="44.81977" lon="5.0453">
        <ele>321.06</ele>
        <time>2017-11-28T15:18:16.000Z</time>
      </trkpt>
      <trkpt lat="44.81987" lon="5.0452">
        <ele>320.49</ele>
        <time>2017-11-28T15:18:26.000Z</time>
      </trkpt>
      <trkpt lat="44.81996" lon="5.04513">
        <ele>320.26</ele>
        <time>2017-11-28T15:18:36.000Z</time>
      </trkpt>
      <trkpt lat="44.82006" lon="5.04507">
        <ele>320.35</ele>
        <time>2017-11-28T15:18:46.000Z</time>
      </trkpt>
      <trkpt lat="44.82011" lon="5.04504">
        <ele>320.41</ele>
        <time>2017-11-28T15:18:56.000Z</time>
      </trkpt>
      <trkpt lat="44.8202" lon="5.04493">
        <ele>320.56</ele>
        <time>2017-11-28T15:19:06.000Z</time>
      </trkpt>
      <trkpt lat="44.82028" lon="5.04487">
        <ele>320.97</ele>
        <time>2017-11-28T15:19:16.000Z</time>
      </trkpt>
      <trkpt lat="44.82032" lon="5.04476">
        <ele>321.4</ele>
        <time>2017-11-28T15:19:26.000Z</time>
      </trkpt>
      <trkpt lat="44.82035" lon="5.04465">
        <ele>321.98</ele>
        <time>2017-11-28T15:19:36.000Z</time>
      </trkpt>
      <trkpt lat="44.8204" lon="5.04454">
        <ele>322.87</ele>
        <time>2017-11-28T15:19:46.000Z</time>
      </trkpt>
      <trkpt lat="44.82044" lon="5.04441">
        <ele>324.01</ele>
        <time>2017-11-28T15:19:56.000Z</time>
      </trkpt>
      <trkpt lat="44.82041" lon="5.04423">
        <ele>324.47</ele>
        <time>2017-11-28T15:20:06.000Z</time>
      </trkpt>
      <trkpt lat="44.82038" lon="5.04414">
        <ele>324.25</ele>
        <time>2017-11-28T15:20:16.000Z</time>
      </trkpt>
      <trkpt lat="44.82036" lon="5.04409">
        <ele>324.25</ele>
        <time>2017-11-28T15:20:26.000Z</time>
      </trkpt>
      <trkpt lat="44.82033" lon="5.04408">
        <ele>323.77</ele>
        <time>2017-11-28T15:20:36.000Z</time>
      </trkpt>
      <trkpt lat="44.82034" lon="5.04407">
        <ele>323.94</ele>
        <time>2017-11-28T15:20:46.000Z</time>
      </trkpt>
      <trkpt lat="44.82034" lon="5.04404">
        <ele>323.99</ele>
        <time>2017-11-28T15:20:56.000Z</time>
      </trkpt>
      <trkpt lat="44.82031" lon="5.04386">
        <ele>324.04</ele>
        <time>2017-11-28T15:21:06.000Z</time>
      </trkpt>
      <trkpt lat="44.82025" lon="5.0438">
        <ele>323.02</ele>
        <time>2017-11-28T15:21:16.000Z</time>
      </trkpt>
      <trkpt lat="44.82017" lon="5.04373">
        <ele>321.92</ele>
        <time>2017-11-28T15:21:26.000Z</time>
      </trkpt>
      <trkpt lat="44.82011" lon="5.04365">
        <ele>321.12</ele>
        <time>2017-11-28T15:21:36.000Z</time>
      </trkpt>
      <trkpt lat="44.82008" lon="5.0435">
        <ele>320.73</ele>
        <time>2017-11-28T15:21:46.000Z</time>
      </trkpt>
      <trkpt lat="44.82006" lon="5.04335">
        <ele>320.46</ele>
        <time>2017-11-28T15:21:56.000Z</time>
      </trkpt>
      <trkpt lat="44.82002" lon="5.04322">
        <ele>320.02</ele>
        <time>2017-11-28T15:22:06.000Z</time>
      </trkpt>
      <trkpt lat="44.82003" lon="5.04307">
        <ele>320.03</ele>
        <time>2017-11-28T15:22:16.000Z</time>
      </trkpt>
      <trkpt lat="44.82" lon="5.04293">
        <ele>319.95</ele>
        <time>2017-11-28T15:22:26.000Z</time>
      </trkpt>
      <trkpt lat="44.82005" lon="5.04276">
        <ele>319.71</ele>
        <time>2017-11-28T15:22:36.000Z</time>
      </trkpt>
      <trkpt lat="44.82009" lon="5.04263">
        <ele>319.39</ele>
        <time>2017-11-28T15:22:46.000Z</time>
      </trkpt>
      <trkpt lat="44.82017" lon="5.04245">
        <ele>318.97</ele>
        <time>2017-11-28T15:22:56.000Z</time>
      </trkpt>
      <trkpt lat="44.82026" lon="5.0424">
        <ele>319.75</ele>
        <time>2017-11-28T15:23:06.000Z</time>
      </trkpt>
      <trkpt lat="44.82038" lon="5.0423">
        <ele>321.06</ele>
        <time>2017-11-28T15:23:16.000Z</time>
      </trkpt>
      <trkpt lat="44.82047" lon="5.04223">
        <ele>322.38</ele>
        <time>2017-11-28T15:23:26.000Z</time>
      </trkpt>
      <trkpt lat="44.82057" lon="5.04215">
        <ele>323.37</ele>
        <time>2017-11-28T15:23:36.000Z</time>
      </trkpt>
      <trkpt lat="44.82065" lon="5.0421">
        <ele>324.59</ele>
        <time>2017-11-28T15:23:46.000Z</time>
      </trkpt>
      <trkpt lat="44.82076" lon="5.042">
        <ele>325.32</ele>
        <time>2017-11-28T15:23:56.000Z</time>
      </trkpt>
      <trkpt lat="44.82084" lon="5.04196">
        <ele>325.81</ele>
        <time>2017-11-28T15:24:06.000Z</time>
      </trkpt>
      <trkpt lat="44.82093" lon="5.04185">
        <ele>325.32</ele>
        <time>2017-11-28T15:24:16.000Z</time>
      </trkpt>
      <trkpt lat="44.82101" lon="5.04179">
        <ele>325.42</ele>
        <time>2017-11-28T15:24:26.000Z</time>
      </trkpt>
      <trkpt lat="44.82112" lon="5.04176">
        <ele>326.62</ele>
        <time>2017-11-28T15:24:36.000Z</time>
      </trkpt>
      <trkpt lat="44.82119" lon="5.04165">
        <ele>325.95</ele>
        <time>2017-11-28T15:24:46.000Z</time>
      </trkpt>
      <trkpt lat="44.82126" lon="5.04158">
        <ele>326.05</ele>
        <time>2017-11-28T15:24:56.000Z</time>
      </trkpt>
      <trkpt lat="44.82134" lon="5.04157">
        <ele>327.12</ele>
        <time>2017-11-28T15:25:06.000Z</time>
      </trkpt>
      <trkpt lat="44.82135" lon="5.04148">
        <ele>326.22</ele>
        <time>2017-11-28T15:25:16.000Z</time>
      </trkpt>
      <trkpt lat="44.8215" lon="5.04145">
        <ele>328.21</ele>
        <time>2017-11-28T15:25:26.000Z</time>
      </trkpt>
      <trkpt lat="44.82155" lon="5.04136">
        <ele>328.06</ele>
        <time>2017-11-28T15:25:36.000Z</time>
      </trkpt>
      <trkpt lat="44.8216" lon="5.04122">
        <ele>327.46</ele>
        <time>2017-11-28T15:25:46.000Z</time>
      </trkpt>
      <trkpt lat="44.82156" lon="5.04115">
        <ele>326.16</ele>
        <time>2017-11-28T15:25:56.000Z</time>
      </trkpt>
      <trkpt lat="44.82154" lon="5.04115">
        <ele>325.76</ele>
        <time>2017-11-28T15:26:06.000Z</time>
      </trkpt>
      <trkpt lat="44.82167" lon="5.04109">
        <ele>327.16</ele>
        <time>2017-11-28T15:26:16.000Z</time>
      </trkpt>
      <trkpt lat="44.82176" lon="5.04097">
        <ele>327.44</ele>
        <time>2017-11-28T15:26:26.000Z</time>
      </trkpt>
      <trkpt lat="44.82184" lon="5.04082">
        <ele>327.08</ele>
        <time>2017-11-28T15:26:36.000Z</time>
      </trkpt>
      <trkpt lat="44.82187" lon="5.04066">
        <ele>326.02</ele>
        <time>2017-11-28T15:26:46.000Z</time>
      </trkpt>
      <trkpt lat="44.82192" lon="5.04048">
        <ele>325.4</ele>
        <time>2017-11-28T15:26:56.000Z</time>
      </trkpt>
      <trkpt lat="44.82198" lon="5.04037">
        <ele>325.39</ele>
        <time>2017-11-28T15:27:06.000Z</time>
      </trkpt>
      <trkpt lat="44.82205" lon="5.04023">
        <ele>325.52</ele>
        <time>2017-11-28T15:27:16.000Z</time>
      </trkpt>
      <trkpt lat="44.82212" lon="5.04013">
        <ele>325.78</ele>
        <time>2017-11-28T15:27:26.000Z</time>
      </trkpt>
      <trkpt lat="44.82219" lon="5.04005">
        <ele>326.15</ele>
        <time>2017-11-28T15:27:36.000Z</time>
      </trkpt>
      <trkpt lat="44.82225" lon="5.03998">
        <ele>326.3</ele>
        <time>2017-11-28T15:27:46.000Z</time>
      </trkpt>
      <trkpt lat="44.82232" lon="5.03987">
        <ele>326.49</ele>
        <time>2017-11-28T15:27:56.000Z</time>
      </trkpt>
      <trkpt lat="44.82241" lon="5.0398">
        <ele>326.78</ele>
        <time>2017-11-28T15:28:06.000Z</time>
      </trkpt>
      <trkpt lat="44.82246" lon="5.03972">
        <ele>326.75</ele>
        <time>2017-11-28T15:28:16.000Z</time>
      </trkpt>
      <trkpt lat="44.82254" lon="5.03965">
        <ele>326.79</ele>
        <time>2017-11-28T15:28:26.000Z</time>
      </trkpt>
      <trkpt lat="44.82262" lon="5.03958">
        <ele>326.73</ele>
        <time>2017-11-28T15:28:36.000Z</time>
      </trkpt>
      <trkpt lat="44.82267" lon="5.03948">
        <ele>326.39</ele>
        <time>2017-11-28T15:28:46.000Z</time>
      </trkpt>
      <trkpt lat="44.82278" lon="5.03939">
        <ele>325.93</ele>
        <time>2017-11-28T15:28:56.000Z</time>
      </trkpt>
      <trkpt lat="44.82289" lon="5.03937">
        <ele>325.6</ele>
        <time>2017-11-28T15:29:06.000Z</time>
      </trkpt>
      <trkpt lat="44.82304" lon="5.03947">
        <ele>325.59</ele>
        <time>2017-11-28T15:29:16.000Z</time>
      </trkpt>
      <trkpt lat="44.82313" lon="5.03949">
        <ele>325.3</ele>
        <time>2017-11-28T15:29:26.000Z</time>
      </trkpt>
      <trkpt lat="44.82318" lon="5.03958">
        <ele>325.54</ele>
        <time>2017-11-28T15:29:36.000Z</time>
      </trkpt>
      <trkpt lat="44.82331" lon="5.03964">
        <ele>325.21</ele>
        <time>2017-11-28T15:29:46.000Z</time>
      </trkpt>
      <trkpt lat="44.8234" lon="5.03972">
        <ele>325.19</ele>
        <time>2017-11-28T15:29:56.000Z</time>
      </trkpt>
      <trkpt lat="44.82347" lon="5.03976">
        <ele>324.86</ele>
        <time>2017-11-28T15:30:06.000Z</time>
      </trkpt>
      <trkpt lat="44.82355" lon="5.03975">
        <ele>323.89</ele>
        <time>2017-11-28T15:30:16.000Z</time>
      </trkpt>
      <trkpt lat="44.82359" lon="5.0398">
        <ele>323.84</ele>
        <time>2017-11-28T15:30:26.000Z</time>
      </trkpt>
      <trkpt lat="44.82359" lon="5.03976">
        <ele>323.53</ele>
        <time>2017-11-28T15:30:36.000Z</time>
      </trkpt>
      <trkpt lat="44.82365" lon="5.03956">
        <ele>321.15</ele>
        <time>2017-11-28T15:30:46.000Z</time>
      </trkpt>
      <trkpt lat="44.82371" lon="5.03944">
        <ele>319.51</ele>
        <time>2017-11-28T15:30:56.000Z</time>
      </trkpt>
      <trkpt lat="44.82376" lon="5.03934">
        <ele>318.2</ele>
        <time>2017-11-28T15:31:06.000Z</time>
      </trkpt>
      <trkpt lat="44.82377" lon="5.03925">
        <ele>317.54</ele>
        <time>2017-11-28T15:31:16.000Z</time>
      </trkpt>
      <trkpt lat="44.82377" lon="5.03918">
        <ele>317.16</ele>
        <time>2017-11-28T15:31:26.000Z</time>
      </trkpt>
      <trkpt lat="44.82375" lon="5.03918">
        <ele>317.42</ele>
        <time>2017-11-28T15:31:36.000Z</time>
      </trkpt>
      <trkpt lat="44.82373" lon="5.03917">
        <ele>317.69</ele>
        <time>2017-11-28T15:31:46.000Z</time>
      </trkpt>
      <trkpt lat="44.82365" lon="5.03919">
        <ele>318.8</ele>
        <time>2017-11-28T15:31:56.000Z</time>
      </trkpt>
      <trkpt lat="44.82366" lon="5.0392">
        <ele>318.77</ele>
        <time>2017-11-28T15:32:06.000Z</time>
      </trkpt>
      <trkpt lat="44.82365" lon="5.03921">
        <ele>318.81</ele>
        <time>2017-11-28T15:32:08.000Z</time>
      </trkpt>
    </trkseg>
  </trk>
</gpx>